<?xml version="1.0" encoding="UTF-8" standalone="no" ?>
<gpx xmlns="http://www.topografix.com/GPX/1/1" xmlns:xsi="http://www.w3.org/2001/XMLSchema-instance" xsi:schemaLocation="http://www.topografix.com/GPX/1/1 http://www.topografix.com/GPX/1/1/gpx.xsd" version="1.1" creator="VisuGPX - https://www.visugpx.com">
  <metadata>
    <name>sortie club vosgien village neuf</name>
    <desc><![CDATA[le massif du DINKELBERG St chrischona]]></desc>
  </metadata>
  <trk>
    <name><![CDATA[ACTIVE LOG 018]]></name>
    <trkseg>
      <trkpt lat="47.59508" lon="7.70501">
        <ele>430.8079834</ele>
        <time>2010-11-07T07:28:29Z</time>
      </trkpt>
      <trkpt lat="47.59487" lon="7.70499">
        <ele>432.25</ele>
        <time>2010-11-07T07:32:55Z</time>
      </trkpt>
      <trkpt lat="47.59453" lon="7.70489">
        <ele>432.25</ele>
        <time>2010-11-07T07:33:45Z</time>
      </trkpt>
      <trkpt lat="47.59443" lon="7.70486">
        <ele>431.2885742</ele>
        <time>2010-11-07T07:33:53Z</time>
      </trkpt>
      <trkpt lat="47.59426" lon="7.70478">
        <ele>431.769165</ele>
        <time>2010-11-07T07:34:05Z</time>
      </trkpt>
      <trkpt lat="47.59382" lon="7.70449">
        <ele>430.8079834</ele>
        <time>2010-11-07T07:34:45Z</time>
      </trkpt>
      <trkpt lat="47.59376" lon="7.70447">
        <ele>431.2885742</ele>
        <time>2010-11-07T07:34:49Z</time>
      </trkpt>
      <trkpt lat="47.59361" lon="7.70447">
        <ele>431.769165</ele>
        <time>2010-11-07T07:34:59Z</time>
      </trkpt>
      <trkpt lat="47.59355" lon="7.70444">
        <ele>431.2885742</ele>
        <time>2010-11-07T07:35:05Z</time>
      </trkpt>
      <trkpt lat="47.59346" lon="7.70445">
        <ele>431.769165</ele>
        <time>2010-11-07T07:35:13Z</time>
      </trkpt>
      <trkpt lat="47.59332" lon="7.70445">
        <ele>432.25</ele>
        <time>2010-11-07T07:35:24Z</time>
      </trkpt>
      <trkpt lat="47.59322" lon="7.70446">
        <ele>431.769165</ele>
        <time>2010-11-07T07:35:30Z</time>
      </trkpt>
      <trkpt lat="47.59313" lon="7.70446">
        <ele>431.769165</ele>
        <time>2010-11-07T07:35:36Z</time>
      </trkpt>
      <trkpt lat="47.59299" lon="7.70443">
        <ele>433.2113037</ele>
        <time>2010-11-07T07:35:46Z</time>
      </trkpt>
      <trkpt lat="47.59286" lon="7.70443">
        <ele>434.6533203</ele>
        <time>2010-11-07T07:35:54Z</time>
      </trkpt>
      <trkpt lat="47.59279" lon="7.70441">
        <ele>435.614502</ele>
        <time>2010-11-07T07:36:03Z</time>
      </trkpt>
      <trkpt lat="47.59273" lon="7.70438">
        <ele>436.0952148</ele>
        <time>2010-11-07T07:36:11Z</time>
      </trkpt>
      <trkpt lat="47.59267" lon="7.70437">
        <ele>436.5759277</ele>
        <time>2010-11-07T07:36:18Z</time>
      </trkpt>
      <trkpt lat="47.5926" lon="7.70438">
        <ele>437.0565186</ele>
        <time>2010-11-07T07:36:27Z</time>
      </trkpt>
      <trkpt lat="47.59251" lon="7.70438">
        <ele>438.0178223</ele>
        <time>2010-11-07T07:36:33Z</time>
      </trkpt>
      <trkpt lat="47.59244" lon="7.70438">
        <ele>438.4985352</ele>
        <time>2010-11-07T07:36:39Z</time>
      </trkpt>
      <trkpt lat="47.59231" lon="7.70441">
        <ele>438.979126</ele>
        <time>2010-11-07T07:36:47Z</time>
      </trkpt>
      <trkpt lat="47.59222" lon="7.70442">
        <ele>439.4597168</ele>
        <time>2010-11-07T07:36:55Z</time>
      </trkpt>
      <trkpt lat="47.59212" lon="7.70442">
        <ele>440.4212646</ele>
        <time>2010-11-07T07:37:05Z</time>
      </trkpt>
      <trkpt lat="47.59201" lon="7.70443">
        <ele>441.3824463</ele>
        <time>2010-11-07T07:37:14Z</time>
      </trkpt>
      <trkpt lat="47.59193" lon="7.70442">
        <ele>441.3824463</ele>
        <time>2010-11-07T07:37:22Z</time>
      </trkpt>
      <trkpt lat="47.59185" lon="7.70443">
        <ele>442.8244629</ele>
        <time>2010-11-07T07:37:30Z</time>
      </trkpt>
      <trkpt lat="47.59172" lon="7.70444">
        <ele>443.7857666</ele>
        <time>2010-11-07T07:37:42Z</time>
      </trkpt>
      <trkpt lat="47.5916" lon="7.70445">
        <ele>444.7470703</ele>
        <time>2010-11-07T07:37:52Z</time>
      </trkpt>
      <trkpt lat="47.59148" lon="7.70447">
        <ele>446.1890869</ele>
        <time>2010-11-07T07:38:03Z</time>
      </trkpt>
      <trkpt lat="47.59135" lon="7.70448">
        <ele>446.6696777</ele>
        <time>2010-11-07T07:38:14Z</time>
      </trkpt>
      <trkpt lat="47.59122" lon="7.70449">
        <ele>446.6696777</ele>
        <time>2010-11-07T07:38:25Z</time>
      </trkpt>
      <trkpt lat="47.59109" lon="7.70451">
        <ele>448.1118164</ele>
        <time>2010-11-07T07:38:36Z</time>
      </trkpt>
      <trkpt lat="47.59092" lon="7.70451">
        <ele>447.6309814</ele>
        <time>2010-11-07T07:38:50Z</time>
      </trkpt>
      <trkpt lat="47.59082" lon="7.7045">
        <ele>447.6309814</ele>
        <time>2010-11-07T07:39:00Z</time>
      </trkpt>
      <trkpt lat="47.59064" lon="7.70451">
        <ele>447.6309814</ele>
        <time>2010-11-07T07:39:12Z</time>
      </trkpt>
      <trkpt lat="47.59049" lon="7.70451">
        <ele>448.1118164</ele>
        <time>2010-11-07T07:39:24Z</time>
      </trkpt>
      <trkpt lat="47.59032" lon="7.70457">
        <ele>449.5537109</ele>
        <time>2010-11-07T07:39:37Z</time>
      </trkpt>
      <trkpt lat="47.59019" lon="7.70459">
        <ele>449.072998</ele>
        <time>2010-11-07T07:39:48Z</time>
      </trkpt>
      <trkpt lat="47.59007" lon="7.70462">
        <ele>449.072998</ele>
        <time>2010-11-07T07:39:58Z</time>
      </trkpt>
      <trkpt lat="47.5899" lon="7.70467">
        <ele>450.0344238</ele>
        <time>2010-11-07T07:40:12Z</time>
      </trkpt>
      <trkpt lat="47.58978" lon="7.70469">
        <ele>450.0344238</ele>
        <time>2010-11-07T07:40:22Z</time>
      </trkpt>
      <trkpt lat="47.58968" lon="7.70469">
        <ele>450.5150146</ele>
        <time>2010-11-07T07:40:30Z</time>
      </trkpt>
      <trkpt lat="47.58956" lon="7.70472">
        <ele>451.9570313</ele>
        <time>2010-11-07T07:40:41Z</time>
      </trkpt>
      <trkpt lat="47.58947" lon="7.70471">
        <ele>452.9182129</ele>
        <time>2010-11-07T07:40:51Z</time>
      </trkpt>
      <trkpt lat="47.58936" lon="7.70473">
        <ele>453.3989258</ele>
        <time>2010-11-07T07:41:01Z</time>
      </trkpt>
      <trkpt lat="47.58928" lon="7.70476">
        <ele>454.8408203</ele>
        <time>2010-11-07T07:41:10Z</time>
      </trkpt>
      <trkpt lat="47.58917" lon="7.70483">
        <ele>456.7635498</ele>
        <time>2010-11-07T07:41:22Z</time>
      </trkpt>
      <trkpt lat="47.58908" lon="7.70491">
        <ele>457.2442627</ele>
        <time>2010-11-07T07:41:31Z</time>
      </trkpt>
      <trkpt lat="47.589" lon="7.70499">
        <ele>458.6861572</ele>
        <time>2010-11-07T07:41:40Z</time>
      </trkpt>
      <trkpt lat="47.58894" lon="7.70505">
        <ele>460.1281738</ele>
        <time>2010-11-07T07:41:48Z</time>
      </trkpt>
      <trkpt lat="47.58886" lon="7.70512">
        <ele>461.5701904</ele>
        <time>2010-11-07T07:41:59Z</time>
      </trkpt>
      <trkpt lat="47.58876" lon="7.7052">
        <ele>462.5313721</ele>
        <time>2010-11-07T07:42:09Z</time>
      </trkpt>
      <trkpt lat="47.58863" lon="7.70532">
        <ele>463.4927979</ele>
        <time>2010-11-07T07:42:21Z</time>
      </trkpt>
      <trkpt lat="47.58853" lon="7.7054">
        <ele>464.4541016</ele>
        <time>2010-11-07T07:42:32Z</time>
      </trkpt>
      <trkpt lat="47.58842" lon="7.7055">
        <ele>465.4155273</ele>
        <time>2010-11-07T07:42:43Z</time>
      </trkpt>
      <trkpt lat="47.58835" lon="7.70556">
        <ele>465.4155273</ele>
        <time>2010-11-07T07:42:52Z</time>
      </trkpt>
      <trkpt lat="47.58824" lon="7.70563">
        <ele>465.8961182</ele>
        <time>2010-11-07T07:43:01Z</time>
      </trkpt>
      <trkpt lat="47.58819" lon="7.70571">
        <ele>468.2993164</ele>
        <time>2010-11-07T07:43:09Z</time>
      </trkpt>
      <trkpt lat="47.58822" lon="7.7058">
        <ele>469.741333</ele>
        <time>2010-11-07T07:43:18Z</time>
      </trkpt>
      <trkpt lat="47.58821" lon="7.70589">
        <ele>470.7026367</ele>
        <time>2010-11-07T07:43:26Z</time>
      </trkpt>
      <trkpt lat="47.5882" lon="7.70598">
        <ele>472.1446533</ele>
        <time>2010-11-07T07:43:34Z</time>
      </trkpt>
      <trkpt lat="47.58818" lon="7.70608">
        <ele>472.6253662</ele>
        <time>2010-11-07T07:43:42Z</time>
      </trkpt>
      <trkpt lat="47.58815" lon="7.70617">
        <ele>474.0672607</ele>
        <time>2010-11-07T07:43:49Z</time>
      </trkpt>
      <trkpt lat="47.58811" lon="7.70635">
        <ele>475.5092773</ele>
        <time>2010-11-07T07:44:01Z</time>
      </trkpt>
      <trkpt lat="47.58806" lon="7.70654">
        <ele>476.9512939</ele>
        <time>2010-11-07T07:44:14Z</time>
      </trkpt>
      <trkpt lat="47.58802" lon="7.7067">
        <ele>477.4318848</ele>
        <time>2010-11-07T07:44:25Z</time>
      </trkpt>
      <trkpt lat="47.588" lon="7.70683">
        <ele>478.3931885</ele>
        <time>2010-11-07T07:44:33Z</time>
      </trkpt>
      <trkpt lat="47.58798" lon="7.70695">
        <ele>479.3544922</ele>
        <time>2010-11-07T07:44:42Z</time>
      </trkpt>
      <trkpt lat="47.58793" lon="7.70714">
        <ele>480.315918</ele>
        <time>2010-11-07T07:44:55Z</time>
      </trkpt>
      <trkpt lat="47.58789" lon="7.70732">
        <ele>481.7578125</ele>
        <time>2010-11-07T07:45:06Z</time>
      </trkpt>
      <trkpt lat="47.58785" lon="7.7075">
        <ele>482.2385254</ele>
        <time>2010-11-07T07:45:18Z</time>
      </trkpt>
      <trkpt lat="47.58783" lon="7.70765">
        <ele>483.1998291</ele>
        <time>2010-11-07T07:45:27Z</time>
      </trkpt>
      <trkpt lat="47.58782" lon="7.70766">
        <ele>483.1998291</ele>
        <time>2010-11-07T07:45:28Z</time>
      </trkpt>
      <trkpt lat="47.58778" lon="7.70788">
        <ele>484.1611328</ele>
        <time>2010-11-07T07:45:42Z</time>
      </trkpt>
      <trkpt lat="47.58776" lon="7.70808">
        <ele>484.1611328</ele>
        <time>2010-11-07T07:45:54Z</time>
      </trkpt>
      <trkpt lat="47.58769" lon="7.70824">
        <ele>485.6030273</ele>
        <time>2010-11-07T07:46:05Z</time>
      </trkpt>
      <trkpt lat="47.58758" lon="7.7083">
        <ele>486.0837402</ele>
        <time>2010-11-07T07:46:15Z</time>
      </trkpt>
      <trkpt lat="47.58745" lon="7.70834">
        <ele>486.5644531</ele>
        <time>2010-11-07T07:46:26Z</time>
      </trkpt>
      <trkpt lat="47.58732" lon="7.70836">
        <ele>487.0450439</ele>
        <time>2010-11-07T07:46:37Z</time>
      </trkpt>
      <trkpt lat="47.58722" lon="7.70839">
        <ele>488.0064697</ele>
        <time>2010-11-07T07:46:46Z</time>
      </trkpt>
      <trkpt lat="47.58707" lon="7.70842">
        <ele>488.9677734</ele>
        <time>2010-11-07T07:46:59Z</time>
      </trkpt>
      <trkpt lat="47.58693" lon="7.70845">
        <ele>489.9290771</ele>
        <time>2010-11-07T07:47:11Z</time>
      </trkpt>
      <trkpt lat="47.58681" lon="7.70848">
        <ele>490.8903809</ele>
        <time>2010-11-07T07:47:22Z</time>
      </trkpt>
      <trkpt lat="47.58672" lon="7.70849">
        <ele>491.3709717</ele>
        <time>2010-11-07T07:47:31Z</time>
      </trkpt>
      <trkpt lat="47.58661" lon="7.70851">
        <ele>493.2935791</ele>
        <time>2010-11-07T07:47:41Z</time>
      </trkpt>
      <trkpt lat="47.5865" lon="7.70855">
        <ele>494.2550049</ele>
        <time>2010-11-07T07:47:51Z</time>
      </trkpt>
      <trkpt lat="47.58638" lon="7.70858">
        <ele>495.2161865</ele>
        <time>2010-11-07T07:48:02Z</time>
      </trkpt>
      <trkpt lat="47.58627" lon="7.70861">
        <ele>496.1777344</ele>
        <time>2010-11-07T07:48:14Z</time>
      </trkpt>
      <trkpt lat="47.58614" lon="7.70864">
        <ele>497.138916</ele>
        <time>2010-11-07T07:48:27Z</time>
      </trkpt>
      <trkpt lat="47.58601" lon="7.7087">
        <ele>498.1003418</ele>
        <time>2010-11-07T07:48:39Z</time>
      </trkpt>
      <trkpt lat="47.58591" lon="7.70877">
        <ele>500.0229492</ele>
        <time>2010-11-07T07:48:49Z</time>
      </trkpt>
      <trkpt lat="47.58583" lon="7.70885">
        <ele>500.9841309</ele>
        <time>2010-11-07T07:48:59Z</time>
      </trkpt>
      <trkpt lat="47.58573" lon="7.70896">
        <ele>502.9067383</ele>
        <time>2010-11-07T07:49:11Z</time>
      </trkpt>
      <trkpt lat="47.58562" lon="7.70909">
        <ele>503.8681641</ele>
        <time>2010-11-07T07:49:24Z</time>
      </trkpt>
      <trkpt lat="47.58547" lon="7.70923">
        <ele>504.8294678</ele>
        <time>2010-11-07T07:49:40Z</time>
      </trkpt>
      <trkpt lat="47.58536" lon="7.70936">
        <ele>505.7908936</ele>
        <time>2010-11-07T07:49:53Z</time>
      </trkpt>
      <trkpt lat="47.58527" lon="7.70947">
        <ele>505.7908936</ele>
        <time>2010-11-07T07:50:04Z</time>
      </trkpt>
      <trkpt lat="47.58516" lon="7.70964">
        <ele>506.7520752</ele>
        <time>2010-11-07T07:50:17Z</time>
      </trkpt>
      <trkpt lat="47.58513" lon="7.70968">
        <ele>506.2714844</ele>
        <time>2010-11-07T07:50:21Z</time>
      </trkpt>
      <trkpt lat="47.5851" lon="7.70974">
        <ele>506.2714844</ele>
        <time>2010-11-07T07:50:30Z</time>
      </trkpt>
      <trkpt lat="47.58505" lon="7.70982">
        <ele>506.2714844</ele>
        <time>2010-11-07T07:50:39Z</time>
      </trkpt>
      <trkpt lat="47.58501" lon="7.70989">
        <ele>506.2714844</ele>
        <time>2010-11-07T07:50:49Z</time>
      </trkpt>
      <trkpt lat="47.585" lon="7.70988">
        <ele>505.7908936</ele>
        <time>2010-11-07T07:51:06Z</time>
      </trkpt>
      <trkpt lat="47.58499" lon="7.70993">
        <ele>505.3101807</ele>
        <time>2010-11-07T07:51:30Z</time>
      </trkpt>
      <trkpt lat="47.58499" lon="7.70994">
        <ele>505.3101807</ele>
        <time>2010-11-07T07:51:43Z</time>
      </trkpt>
      <trkpt lat="47.58497" lon="7.70997">
        <ele>504.8294678</ele>
        <time>2010-11-07T07:51:53Z</time>
      </trkpt>
      <trkpt lat="47.58496" lon="7.71003">
        <ele>505.3101807</ele>
        <time>2010-11-07T07:52:03Z</time>
      </trkpt>
      <trkpt lat="47.58494" lon="7.7101">
        <ele>504.8294678</ele>
        <time>2010-11-07T07:52:11Z</time>
      </trkpt>
      <trkpt lat="47.58491" lon="7.71028">
        <ele>505.7908936</ele>
        <time>2010-11-07T07:52:23Z</time>
      </trkpt>
      <trkpt lat="47.58487" lon="7.71052">
        <ele>505.7908936</ele>
        <time>2010-11-07T07:52:37Z</time>
      </trkpt>
      <trkpt lat="47.58484" lon="7.71074">
        <ele>505.3101807</ele>
        <time>2010-11-07T07:52:50Z</time>
      </trkpt>
      <trkpt lat="47.58481" lon="7.71095">
        <ele>505.7908936</ele>
        <time>2010-11-07T07:53:02Z</time>
      </trkpt>
      <trkpt lat="47.58477" lon="7.71119">
        <ele>505.7908936</ele>
        <time>2010-11-07T07:53:16Z</time>
      </trkpt>
      <trkpt lat="47.58471" lon="7.71145">
        <ele>506.2714844</ele>
        <time>2010-11-07T07:53:32Z</time>
      </trkpt>
      <trkpt lat="47.58464" lon="7.71167">
        <ele>505.7908936</ele>
        <time>2010-11-07T07:53:45Z</time>
      </trkpt>
      <trkpt lat="47.58454" lon="7.71188">
        <ele>505.7908936</ele>
        <time>2010-11-07T07:53:59Z</time>
      </trkpt>
      <trkpt lat="47.58443" lon="7.71207">
        <ele>505.7908936</ele>
        <time>2010-11-07T07:54:13Z</time>
      </trkpt>
      <trkpt lat="47.58431" lon="7.71227">
        <ele>505.7908936</ele>
        <time>2010-11-07T07:54:27Z</time>
      </trkpt>
      <trkpt lat="47.58424" lon="7.71238">
        <ele>505.7908936</ele>
        <time>2010-11-07T07:54:36Z</time>
      </trkpt>
      <trkpt lat="47.58415" lon="7.71253">
        <ele>505.3101807</ele>
        <time>2010-11-07T07:54:48Z</time>
      </trkpt>
      <trkpt lat="47.58404" lon="7.7127">
        <ele>504.8294678</ele>
        <time>2010-11-07T07:55:01Z</time>
      </trkpt>
      <trkpt lat="47.58393" lon="7.71286">
        <ele>504.348877</ele>
        <time>2010-11-07T07:55:14Z</time>
      </trkpt>
      <trkpt lat="47.58383" lon="7.71297">
        <ele>502.9067383</ele>
        <time>2010-11-07T07:55:24Z</time>
      </trkpt>
      <trkpt lat="47.5837" lon="7.71312">
        <ele>501.4648438</ele>
        <time>2010-11-07T07:55:37Z</time>
      </trkpt>
      <trkpt lat="47.58359" lon="7.71325">
        <ele>501.4648438</ele>
        <time>2010-11-07T07:55:49Z</time>
      </trkpt>
      <trkpt lat="47.5835" lon="7.71338">
        <ele>499.0615234</ele>
        <time>2010-11-07T07:56:01Z</time>
      </trkpt>
      <trkpt lat="47.58342" lon="7.7135">
        <ele>497.6196289</ele>
        <time>2010-11-07T07:56:11Z</time>
      </trkpt>
      <trkpt lat="47.58329" lon="7.71367">
        <ele>497.138916</ele>
        <time>2010-11-07T07:56:25Z</time>
      </trkpt>
      <trkpt lat="47.58319" lon="7.71382">
        <ele>496.6583252</ele>
        <time>2010-11-07T07:56:37Z</time>
      </trkpt>
      <trkpt lat="47.58308" lon="7.71399">
        <ele>495.2161865</ele>
        <time>2010-11-07T07:56:50Z</time>
      </trkpt>
      <trkpt lat="47.583" lon="7.71411">
        <ele>494.7355957</ele>
        <time>2010-11-07T07:56:59Z</time>
      </trkpt>
      <trkpt lat="47.58299" lon="7.71412">
        <ele>494.2550049</ele>
        <time>2010-11-07T07:57:00Z</time>
      </trkpt>
      <trkpt lat="47.58296" lon="7.71418">
        <ele>493.774292</ele>
        <time>2010-11-07T07:57:05Z</time>
      </trkpt>
      <trkpt lat="47.58287" lon="7.71429">
        <ele>493.2935791</ele>
        <time>2010-11-07T07:57:14Z</time>
      </trkpt>
      <trkpt lat="47.58279" lon="7.71437">
        <ele>492.8129883</ele>
        <time>2010-11-07T07:57:21Z</time>
      </trkpt>
      <trkpt lat="47.5827" lon="7.7145">
        <ele>491.8516846</ele>
        <time>2010-11-07T07:57:29Z</time>
      </trkpt>
      <trkpt lat="47.58269" lon="7.71464">
        <ele>490.40979</ele>
        <time>2010-11-07T07:57:38Z</time>
      </trkpt>
      <trkpt lat="47.58269" lon="7.71469">
        <ele>489.4483643</ele>
        <time>2010-11-07T07:57:42Z</time>
      </trkpt>
      <trkpt lat="47.5826" lon="7.71483">
        <ele>488.4871826</ele>
        <time>2010-11-07T07:57:51Z</time>
      </trkpt>
      <trkpt lat="47.58252" lon="7.7149">
        <ele>488.0064697</ele>
        <time>2010-11-07T07:57:58Z</time>
      </trkpt>
      <trkpt lat="47.58245" lon="7.71498">
        <ele>487.0450439</ele>
        <time>2010-11-07T07:58:07Z</time>
      </trkpt>
      <trkpt lat="47.58238" lon="7.71508">
        <ele>486.0837402</ele>
        <time>2010-11-07T07:58:18Z</time>
      </trkpt>
      <trkpt lat="47.58229" lon="7.71516">
        <ele>485.1224365</ele>
        <time>2010-11-07T07:58:26Z</time>
      </trkpt>
      <trkpt lat="47.58221" lon="7.71522">
        <ele>484.1611328</ele>
        <time>2010-11-07T07:58:34Z</time>
      </trkpt>
      <trkpt lat="47.58216" lon="7.71531">
        <ele>484.1611328</ele>
        <time>2010-11-07T07:58:42Z</time>
      </trkpt>
      <trkpt lat="47.58213" lon="7.71538">
        <ele>483.1998291</ele>
        <time>2010-11-07T07:58:48Z</time>
      </trkpt>
      <trkpt lat="47.5821" lon="7.71545">
        <ele>483.1998291</ele>
        <time>2010-11-07T07:58:54Z</time>
      </trkpt>
      <trkpt lat="47.58211" lon="7.71553">
        <ele>483.1998291</ele>
        <time>2010-11-07T07:58:59Z</time>
      </trkpt>
      <trkpt lat="47.58212" lon="7.71558">
        <ele>483.1998291</ele>
        <time>2010-11-07T07:59:02Z</time>
      </trkpt>
      <trkpt lat="47.58209" lon="7.7157">
        <ele>482.7192383</ele>
        <time>2010-11-07T07:59:10Z</time>
      </trkpt>
      <trkpt lat="47.5821" lon="7.71574">
        <ele>482.7192383</ele>
        <time>2010-11-07T07:59:12Z</time>
      </trkpt>
      <trkpt lat="47.58213" lon="7.71587">
        <ele>481.2772217</ele>
        <time>2010-11-07T07:59:20Z</time>
      </trkpt>
      <trkpt lat="47.58213" lon="7.716">
        <ele>480.7966309</ele>
        <time>2010-11-07T07:59:28Z</time>
      </trkpt>
      <trkpt lat="47.58212" lon="7.71612">
        <ele>479.835083</ele>
        <time>2010-11-07T07:59:35Z</time>
      </trkpt>
      <trkpt lat="47.58212" lon="7.71618">
        <ele>479.835083</ele>
        <time>2010-11-07T07:59:39Z</time>
      </trkpt>
      <trkpt lat="47.58211" lon="7.71642">
        <ele>478.8739014</ele>
        <time>2010-11-07T07:59:52Z</time>
      </trkpt>
      <trkpt lat="47.58208" lon="7.71658">
        <ele>478.8739014</ele>
        <time>2010-11-07T08:00:01Z</time>
      </trkpt>
      <trkpt lat="47.58203" lon="7.71673">
        <ele>478.8739014</ele>
        <time>2010-11-07T08:00:09Z</time>
      </trkpt>
      <trkpt lat="47.582" lon="7.71685">
        <ele>478.8739014</ele>
        <time>2010-11-07T08:00:16Z</time>
      </trkpt>
      <trkpt lat="47.58195" lon="7.71697">
        <ele>478.8739014</ele>
        <time>2010-11-07T08:00:24Z</time>
      </trkpt>
      <trkpt lat="47.58191" lon="7.71708">
        <ele>479.3544922</ele>
        <time>2010-11-07T08:00:33Z</time>
      </trkpt>
      <trkpt lat="47.58191" lon="7.71702">
        <ele>478.8739014</ele>
        <time>2010-11-07T08:00:40Z</time>
      </trkpt>
      <trkpt lat="47.5819" lon="7.717">
        <ele>479.3544922</ele>
        <time>2010-11-07T08:00:49Z</time>
      </trkpt>
      <trkpt lat="47.58193" lon="7.71697">
        <ele>479.3544922</ele>
        <time>2010-11-07T08:01:00Z</time>
      </trkpt>
      <trkpt lat="47.58198" lon="7.71681">
        <ele>478.8739014</ele>
        <time>2010-11-07T08:01:10Z</time>
      </trkpt>
      <trkpt lat="47.58202" lon="7.71666">
        <ele>478.3931885</ele>
        <time>2010-11-07T08:01:22Z</time>
      </trkpt>
      <trkpt lat="47.58203" lon="7.71663">
        <ele>478.3931885</ele>
        <time>2010-11-07T08:01:24Z</time>
      </trkpt>
      <trkpt lat="47.5821" lon="7.71655">
        <ele>478.3931885</ele>
        <time>2010-11-07T08:01:35Z</time>
      </trkpt>
      <trkpt lat="47.58211" lon="7.71656">
        <ele>477.9124756</ele>
        <time>2010-11-07T08:01:39Z</time>
      </trkpt>
      <trkpt lat="47.58216" lon="7.71663">
        <ele>477.4318848</ele>
        <time>2010-11-07T08:01:49Z</time>
      </trkpt>
      <trkpt lat="47.58221" lon="7.71666">
        <ele>475.5092773</ele>
        <time>2010-11-07T08:01:57Z</time>
      </trkpt>
      <trkpt lat="47.5823" lon="7.71668">
        <ele>473.5866699</ele>
        <time>2010-11-07T08:02:05Z</time>
      </trkpt>
      <trkpt lat="47.5824" lon="7.71668">
        <ele>472.6253662</ele>
        <time>2010-11-07T08:02:15Z</time>
      </trkpt>
      <trkpt lat="47.58247" lon="7.71671">
        <ele>472.6253662</ele>
        <time>2010-11-07T08:02:24Z</time>
      </trkpt>
      <trkpt lat="47.58255" lon="7.71674">
        <ele>471.1833496</ele>
        <time>2010-11-07T08:02:31Z</time>
      </trkpt>
      <trkpt lat="47.58268" lon="7.7168">
        <ele>469.741333</ele>
        <time>2010-11-07T08:02:42Z</time>
      </trkpt>
      <trkpt lat="47.58277" lon="7.71686">
        <ele>468.7800293</ele>
        <time>2010-11-07T08:02:51Z</time>
      </trkpt>
      <trkpt lat="47.5828" lon="7.71691">
        <ele>468.2993164</ele>
        <time>2010-11-07T08:02:55Z</time>
      </trkpt>
      <trkpt lat="47.58288" lon="7.71709">
        <ele>468.2993164</ele>
        <time>2010-11-07T08:03:07Z</time>
      </trkpt>
      <trkpt lat="47.58296" lon="7.71722">
        <ele>467.3381348</ele>
        <time>2010-11-07T08:03:16Z</time>
      </trkpt>
      <trkpt lat="47.58299" lon="7.71737">
        <ele>466.376709</ele>
        <time>2010-11-07T08:03:25Z</time>
      </trkpt>
      <trkpt lat="47.58303" lon="7.7175">
        <ele>466.8574219</ele>
        <time>2010-11-07T08:03:33Z</time>
      </trkpt>
      <trkpt lat="47.58303" lon="7.71759">
        <ele>466.376709</ele>
        <time>2010-11-07T08:03:38Z</time>
      </trkpt>
      <trkpt lat="47.58303" lon="7.71768">
        <ele>466.376709</ele>
        <time>2010-11-07T08:03:44Z</time>
      </trkpt>
      <trkpt lat="47.58303" lon="7.71786">
        <ele>466.376709</ele>
        <time>2010-11-07T08:03:55Z</time>
      </trkpt>
      <trkpt lat="47.58303" lon="7.71789">
        <ele>466.8574219</ele>
        <time>2010-11-07T08:03:56Z</time>
      </trkpt>
      <trkpt lat="47.58309" lon="7.71805">
        <ele>466.376709</ele>
        <time>2010-11-07T08:04:04Z</time>
      </trkpt>
      <trkpt lat="47.5831" lon="7.71816">
        <ele>466.8574219</ele>
        <time>2010-11-07T08:04:11Z</time>
      </trkpt>
      <trkpt lat="47.58313" lon="7.7183">
        <ele>467.3381348</ele>
        <time>2010-11-07T08:04:19Z</time>
      </trkpt>
      <trkpt lat="47.58317" lon="7.71852">
        <ele>467.8187256</ele>
        <time>2010-11-07T08:04:29Z</time>
      </trkpt>
      <trkpt lat="47.58315" lon="7.71861">
        <ele>466.8574219</ele>
        <time>2010-11-07T08:04:35Z</time>
      </trkpt>
      <trkpt lat="47.5831" lon="7.71879">
        <ele>465.4155273</ele>
        <time>2010-11-07T08:04:45Z</time>
      </trkpt>
      <trkpt lat="47.58307" lon="7.7189">
        <ele>464.4541016</ele>
        <time>2010-11-07T08:04:52Z</time>
      </trkpt>
      <trkpt lat="47.58303" lon="7.719">
        <ele>463.4927979</ele>
        <time>2010-11-07T08:04:59Z</time>
      </trkpt>
      <trkpt lat="47.58304" lon="7.71908">
        <ele>462.0507813</ele>
        <time>2010-11-07T08:05:05Z</time>
      </trkpt>
      <trkpt lat="47.58308" lon="7.7192">
        <ele>460.1281738</ele>
        <time>2010-11-07T08:05:14Z</time>
      </trkpt>
      <trkpt lat="47.58303" lon="7.71929">
        <ele>458.2055664</ele>
        <time>2010-11-07T08:05:21Z</time>
      </trkpt>
      <trkpt lat="47.58299" lon="7.71944">
        <ele>457.7249756</ele>
        <time>2010-11-07T08:05:32Z</time>
      </trkpt>
      <trkpt lat="47.58295" lon="7.71954">
        <ele>456.7635498</ele>
        <time>2010-11-07T08:05:39Z</time>
      </trkpt>
      <trkpt lat="47.58291" lon="7.71962">
        <ele>455.8022461</ele>
        <time>2010-11-07T08:05:45Z</time>
      </trkpt>
      <trkpt lat="47.58293" lon="7.71973">
        <ele>454.8408203</ele>
        <time>2010-11-07T08:05:52Z</time>
      </trkpt>
      <trkpt lat="47.5829" lon="7.71986">
        <ele>453.8796387</ele>
        <time>2010-11-07T08:05:59Z</time>
      </trkpt>
      <trkpt lat="47.58282" lon="7.72">
        <ele>452.9182129</ele>
        <time>2010-11-07T08:06:08Z</time>
      </trkpt>
      <trkpt lat="47.58278" lon="7.72012">
        <ele>452.4376221</ele>
        <time>2010-11-07T08:06:16Z</time>
      </trkpt>
      <trkpt lat="47.58271" lon="7.72024">
        <ele>450.9956055</ele>
        <time>2010-11-07T08:06:24Z</time>
      </trkpt>
      <trkpt lat="47.58273" lon="7.72034">
        <ele>449.5537109</ele>
        <time>2010-11-07T08:06:30Z</time>
      </trkpt>
      <trkpt lat="47.58272" lon="7.72048">
        <ele>448.5924072</ele>
        <time>2010-11-07T08:06:38Z</time>
      </trkpt>
      <trkpt lat="47.58276" lon="7.72058">
        <ele>447.6309814</ele>
        <time>2010-11-07T08:06:46Z</time>
      </trkpt>
      <trkpt lat="47.58271" lon="7.72071">
        <ele>446.1890869</ele>
        <time>2010-11-07T08:06:53Z</time>
      </trkpt>
      <trkpt lat="47.58265" lon="7.72086">
        <ele>444.7470703</ele>
        <time>2010-11-07T08:07:03Z</time>
      </trkpt>
      <trkpt lat="47.5826" lon="7.72101">
        <ele>442.3438721</ele>
        <time>2010-11-07T08:07:14Z</time>
      </trkpt>
      <trkpt lat="47.58261" lon="7.72103">
        <ele>442.3438721</ele>
        <time>2010-11-07T08:07:16Z</time>
      </trkpt>
      <trkpt lat="47.58258" lon="7.7211">
        <ele>440.9018555</ele>
        <time>2010-11-07T08:07:23Z</time>
      </trkpt>
      <trkpt lat="47.58256" lon="7.7212">
        <ele>439.4597168</ele>
        <time>2010-11-07T08:07:31Z</time>
      </trkpt>
      <trkpt lat="47.5825" lon="7.72133">
        <ele>439.4597168</ele>
        <time>2010-11-07T08:07:38Z</time>
      </trkpt>
      <trkpt lat="47.58249" lon="7.72145">
        <ele>438.979126</ele>
        <time>2010-11-07T08:07:47Z</time>
      </trkpt>
      <trkpt lat="47.58249" lon="7.7216">
        <ele>437.5371094</ele>
        <time>2010-11-07T08:07:56Z</time>
      </trkpt>
      <trkpt lat="47.58243" lon="7.72168">
        <ele>437.0565186</ele>
        <time>2010-11-07T08:08:03Z</time>
      </trkpt>
      <trkpt lat="47.58238" lon="7.72178">
        <ele>435.614502</ele>
        <time>2010-11-07T08:08:08Z</time>
      </trkpt>
      <trkpt lat="47.58236" lon="7.72187">
        <ele>434.1726074</ele>
        <time>2010-11-07T08:08:16Z</time>
      </trkpt>
      <trkpt lat="47.58237" lon="7.72198">
        <ele>433.6918945</ele>
        <time>2010-11-07T08:08:23Z</time>
      </trkpt>
      <trkpt lat="47.58233" lon="7.72214">
        <ele>431.769165</ele>
        <time>2010-11-07T08:08:32Z</time>
      </trkpt>
      <trkpt lat="47.58236" lon="7.72221">
        <ele>431.2885742</ele>
        <time>2010-11-07T08:08:38Z</time>
      </trkpt>
      <trkpt lat="47.58239" lon="7.72235">
        <ele>430.8079834</ele>
        <time>2010-11-07T08:08:46Z</time>
      </trkpt>
      <trkpt lat="47.58238" lon="7.72242">
        <ele>429.8465576</ele>
        <time>2010-11-07T08:08:53Z</time>
      </trkpt>
      <trkpt lat="47.58246" lon="7.72246">
        <ele>428.4046631</ele>
        <time>2010-11-07T08:09:00Z</time>
      </trkpt>
      <trkpt lat="47.58254" lon="7.72241">
        <ele>426.0013428</ele>
        <time>2010-11-07T08:09:07Z</time>
      </trkpt>
      <trkpt lat="47.58256" lon="7.72237">
        <ele>426.0013428</ele>
        <time>2010-11-07T08:09:10Z</time>
      </trkpt>
      <trkpt lat="47.58263" lon="7.72229">
        <ele>425.520752</ele>
        <time>2010-11-07T08:09:17Z</time>
      </trkpt>
      <trkpt lat="47.58269" lon="7.72222">
        <ele>425.0401611</ele>
        <time>2010-11-07T08:09:24Z</time>
      </trkpt>
      <trkpt lat="47.58273" lon="7.72214">
        <ele>424.0787354</ele>
        <time>2010-11-07T08:09:30Z</time>
      </trkpt>
      <trkpt lat="47.58279" lon="7.722">
        <ele>423.5980225</ele>
        <time>2010-11-07T08:09:38Z</time>
      </trkpt>
      <trkpt lat="47.58285" lon="7.72192">
        <ele>423.1174316</ele>
        <time>2010-11-07T08:09:45Z</time>
      </trkpt>
      <trkpt lat="47.58288" lon="7.72187">
        <ele>422.6367188</ele>
        <time>2010-11-07T08:09:51Z</time>
      </trkpt>
      <trkpt lat="47.58293" lon="7.7218">
        <ele>422.1560059</ele>
        <time>2010-11-07T08:09:57Z</time>
      </trkpt>
      <trkpt lat="47.583" lon="7.72172">
        <ele>421.675415</ele>
        <time>2010-11-07T08:10:05Z</time>
      </trkpt>
      <trkpt lat="47.58304" lon="7.72168">
        <ele>421.675415</ele>
        <time>2010-11-07T08:10:09Z</time>
      </trkpt>
      <trkpt lat="47.58309" lon="7.72162">
        <ele>421.675415</ele>
        <time>2010-11-07T08:10:13Z</time>
      </trkpt>
      <trkpt lat="47.58317" lon="7.72155">
        <ele>419.7528076</ele>
        <time>2010-11-07T08:10:21Z</time>
      </trkpt>
      <trkpt lat="47.58321" lon="7.72149">
        <ele>419.2722168</ele>
        <time>2010-11-07T08:10:27Z</time>
      </trkpt>
      <trkpt lat="47.58327" lon="7.72141">
        <ele>418.7915039</ele>
        <time>2010-11-07T08:10:35Z</time>
      </trkpt>
      <trkpt lat="47.58332" lon="7.72137">
        <ele>418.7915039</ele>
        <time>2010-11-07T08:10:40Z</time>
      </trkpt>
      <trkpt lat="47.58342" lon="7.72127">
        <ele>418.7915039</ele>
        <time>2010-11-07T08:10:50Z</time>
      </trkpt>
      <trkpt lat="47.5835" lon="7.72122">
        <ele>417.3496094</ele>
        <time>2010-11-07T08:10:58Z</time>
      </trkpt>
      <trkpt lat="47.58355" lon="7.72123">
        <ele>414.946167</ele>
        <time>2010-11-07T08:11:06Z</time>
      </trkpt>
      <trkpt lat="47.58354" lon="7.72131">
        <ele>413.9848633</ele>
        <time>2010-11-07T08:11:13Z</time>
      </trkpt>
      <trkpt lat="47.58352" lon="7.72135">
        <ele>413.5042725</ele>
        <time>2010-11-07T08:11:15Z</time>
      </trkpt>
      <trkpt lat="47.58352" lon="7.72147">
        <ele>412.5428467</ele>
        <time>2010-11-07T08:11:22Z</time>
      </trkpt>
      <trkpt lat="47.58351" lon="7.72159">
        <ele>411.581665</ele>
        <time>2010-11-07T08:11:29Z</time>
      </trkpt>
      <trkpt lat="47.58349" lon="7.72174">
        <ele>409.6590576</ele>
        <time>2010-11-07T08:11:40Z</time>
      </trkpt>
      <trkpt lat="47.58345" lon="7.72187">
        <ele>409.1783447</ele>
        <time>2010-11-07T08:11:48Z</time>
      </trkpt>
      <trkpt lat="47.58346" lon="7.72199">
        <ele>408.6976318</ele>
        <time>2010-11-07T08:11:56Z</time>
      </trkpt>
      <trkpt lat="47.58346" lon="7.72206">
        <ele>407.7363281</ele>
        <time>2010-11-07T08:12:02Z</time>
      </trkpt>
      <trkpt lat="47.58347" lon="7.72214">
        <ele>407.7363281</ele>
        <time>2010-11-07T08:12:07Z</time>
      </trkpt>
      <trkpt lat="47.58345" lon="7.72227">
        <ele>405.3330078</ele>
        <time>2010-11-07T08:12:15Z</time>
      </trkpt>
      <trkpt lat="47.58343" lon="7.7224">
        <ele>405.3330078</ele>
        <time>2010-11-07T08:12:22Z</time>
      </trkpt>
      <trkpt lat="47.5834" lon="7.72247">
        <ele>404.3717041</ele>
        <time>2010-11-07T08:12:28Z</time>
      </trkpt>
      <trkpt lat="47.58339" lon="7.72257">
        <ele>403.4104004</ele>
        <time>2010-11-07T08:12:35Z</time>
      </trkpt>
      <trkpt lat="47.5835" lon="7.72268">
        <ele>402.4490967</ele>
        <time>2010-11-07T08:12:43Z</time>
      </trkpt>
      <trkpt lat="47.5835" lon="7.7228">
        <ele>401.9685059</ele>
        <time>2010-11-07T08:12:51Z</time>
      </trkpt>
      <trkpt lat="47.58349" lon="7.72293">
        <ele>400.5264893</ele>
        <time>2010-11-07T08:13:00Z</time>
      </trkpt>
      <trkpt lat="47.58355" lon="7.72302">
        <ele>399.5650635</ele>
        <time>2010-11-07T08:13:08Z</time>
      </trkpt>
      <trkpt lat="47.58356" lon="7.72314">
        <ele>398.6037598</ele>
        <time>2010-11-07T08:13:16Z</time>
      </trkpt>
      <trkpt lat="47.58359" lon="7.72328">
        <ele>396.6811523</ele>
        <time>2010-11-07T08:13:27Z</time>
      </trkpt>
      <trkpt lat="47.58365" lon="7.7234">
        <ele>395.2391357</ele>
        <time>2010-11-07T08:13:36Z</time>
      </trkpt>
      <trkpt lat="47.58377" lon="7.72354">
        <ele>392.8359375</ele>
        <time>2010-11-07T08:13:46Z</time>
      </trkpt>
      <trkpt lat="47.58387" lon="7.7236">
        <ele>391.3937988</ele>
        <time>2010-11-07T08:13:54Z</time>
      </trkpt>
      <trkpt lat="47.58395" lon="7.72366">
        <ele>390.4326172</ele>
        <time>2010-11-07T08:14:02Z</time>
      </trkpt>
      <trkpt lat="47.58408" lon="7.72373">
        <ele>388.9906006</ele>
        <time>2010-11-07T08:14:15Z</time>
      </trkpt>
      <trkpt lat="47.58409" lon="7.72374">
        <ele>388.5100098</ele>
        <time>2010-11-07T08:14:17Z</time>
      </trkpt>
      <trkpt lat="47.58425" lon="7.72383">
        <ele>388.0292969</ele>
        <time>2010-11-07T08:14:30Z</time>
      </trkpt>
      <trkpt lat="47.58439" lon="7.72392">
        <ele>387.548584</ele>
        <time>2010-11-07T08:14:42Z</time>
      </trkpt>
      <trkpt lat="47.58453" lon="7.72405">
        <ele>388.0292969</ele>
        <time>2010-11-07T08:14:54Z</time>
      </trkpt>
      <trkpt lat="47.58459" lon="7.72421">
        <ele>388.0292969</ele>
        <time>2010-11-07T08:15:04Z</time>
      </trkpt>
      <trkpt lat="47.58466" lon="7.72438">
        <ele>388.0292969</ele>
        <time>2010-11-07T08:15:15Z</time>
      </trkpt>
      <trkpt lat="47.58473" lon="7.72456">
        <ele>388.9906006</ele>
        <time>2010-11-07T08:15:27Z</time>
      </trkpt>
      <trkpt lat="47.5848" lon="7.72476">
        <ele>388.9906006</ele>
        <time>2010-11-07T08:15:39Z</time>
      </trkpt>
      <trkpt lat="47.58485" lon="7.72496">
        <ele>388.9906006</ele>
        <time>2010-11-07T08:15:51Z</time>
      </trkpt>
      <trkpt lat="47.58488" lon="7.72516">
        <ele>388.9906006</ele>
        <time>2010-11-07T08:16:03Z</time>
      </trkpt>
      <trkpt lat="47.58491" lon="7.72543">
        <ele>388.9906006</ele>
        <time>2010-11-07T08:16:18Z</time>
      </trkpt>
      <trkpt lat="47.58496" lon="7.72567">
        <ele>389.4711914</ele>
        <time>2010-11-07T08:16:32Z</time>
      </trkpt>
      <trkpt lat="47.58501" lon="7.72586">
        <ele>388.9906006</ele>
        <time>2010-11-07T08:16:44Z</time>
      </trkpt>
      <trkpt lat="47.58508" lon="7.72602">
        <ele>388.5100098</ele>
        <time>2010-11-07T08:16:56Z</time>
      </trkpt>
      <trkpt lat="47.5852" lon="7.72612">
        <ele>388.0292969</ele>
        <time>2010-11-07T08:17:07Z</time>
      </trkpt>
      <trkpt lat="47.58539" lon="7.72615">
        <ele>385.1453857</ele>
        <time>2010-11-07T08:17:21Z</time>
      </trkpt>
      <trkpt lat="47.58541" lon="7.72614">
        <ele>384.6647949</ele>
        <time>2010-11-07T08:17:23Z</time>
      </trkpt>
      <trkpt lat="47.58546" lon="7.72613">
        <ele>386.1066895</ele>
        <time>2010-11-07T08:17:27Z</time>
      </trkpt>
      <trkpt lat="47.58559" lon="7.72609">
        <ele>384.6647949</ele>
        <time>2010-11-07T08:17:38Z</time>
      </trkpt>
      <trkpt lat="47.58573" lon="7.72604">
        <ele>382.2613525</ele>
        <time>2010-11-07T08:17:50Z</time>
      </trkpt>
      <trkpt lat="47.58589" lon="7.72599">
        <ele>381.3000488</ele>
        <time>2010-11-07T08:18:03Z</time>
      </trkpt>
      <trkpt lat="47.58603" lon="7.72596">
        <ele>379.8580322</ele>
        <time>2010-11-07T08:18:15Z</time>
      </trkpt>
      <trkpt lat="47.58617" lon="7.72592">
        <ele>378.4161377</ele>
        <time>2010-11-07T08:18:27Z</time>
      </trkpt>
      <trkpt lat="47.58619" lon="7.72591">
        <ele>377.9354248</ele>
        <time>2010-11-07T08:18:29Z</time>
      </trkpt>
      <trkpt lat="47.58633" lon="7.72587">
        <ele>376.4935303</ele>
        <time>2010-11-07T08:18:42Z</time>
      </trkpt>
      <trkpt lat="47.5865" lon="7.72581">
        <ele>375.0515137</ele>
        <time>2010-11-07T08:18:57Z</time>
      </trkpt>
      <trkpt lat="47.58664" lon="7.72577">
        <ele>373.6094971</ele>
        <time>2010-11-07T08:19:09Z</time>
      </trkpt>
      <trkpt lat="47.58678" lon="7.72583">
        <ele>372.6481934</ele>
        <time>2010-11-07T08:19:22Z</time>
      </trkpt>
      <trkpt lat="47.58681" lon="7.72601">
        <ele>371.2062988</ele>
        <time>2010-11-07T08:19:33Z</time>
      </trkpt>
      <trkpt lat="47.58679" lon="7.72621">
        <ele>369.2836914</ele>
        <time>2010-11-07T08:19:45Z</time>
      </trkpt>
      <trkpt lat="47.58676" lon="7.72643">
        <ele>368.3222656</ele>
        <time>2010-11-07T08:19:58Z</time>
      </trkpt>
      <trkpt lat="47.58673" lon="7.72667">
        <ele>366.3995361</ele>
        <time>2010-11-07T08:20:12Z</time>
      </trkpt>
      <trkpt lat="47.5867" lon="7.72689">
        <ele>364.4769287</ele>
        <time>2010-11-07T08:20:25Z</time>
      </trkpt>
      <trkpt lat="47.58669" lon="7.72702">
        <ele>363.9963379</ele>
        <time>2010-11-07T08:20:33Z</time>
      </trkpt>
      <trkpt lat="47.58666" lon="7.72727">
        <ele>363.5157471</ele>
        <time>2010-11-07T08:20:48Z</time>
      </trkpt>
      <trkpt lat="47.58663" lon="7.72749">
        <ele>362.5543213</ele>
        <time>2010-11-07T08:21:01Z</time>
      </trkpt>
      <trkpt lat="47.58662" lon="7.72771">
        <ele>359.6704102</ele>
        <time>2010-11-07T08:21:14Z</time>
      </trkpt>
      <trkpt lat="47.58662" lon="7.72795">
        <ele>357.7478027</ele>
        <time>2010-11-07T08:21:29Z</time>
      </trkpt>
      <trkpt lat="47.58662" lon="7.72806">
        <ele>355.8251953</ele>
        <time>2010-11-07T08:21:36Z</time>
      </trkpt>
      <trkpt lat="47.58664" lon="7.72824">
        <ele>354.3831787</ele>
        <time>2010-11-07T08:21:48Z</time>
      </trkpt>
      <trkpt lat="47.58665" lon="7.72833">
        <ele>352.9411621</ele>
        <time>2010-11-07T08:21:54Z</time>
      </trkpt>
      <trkpt lat="47.58669" lon="7.72845">
        <ele>351.9798584</ele>
        <time>2010-11-07T08:22:04Z</time>
      </trkpt>
      <trkpt lat="47.58673" lon="7.72848">
        <ele>351.4991455</ele>
        <time>2010-11-07T08:22:12Z</time>
      </trkpt>
      <trkpt lat="47.58673" lon="7.72848">
        <ele>351.4991455</ele>
        <time>2010-11-07T08:22:50Z</time>
      </trkpt>
      <trkpt lat="47.58674" lon="7.72847">
        <ele>351.0184326</ele>
        <time>2010-11-07T08:23:04Z</time>
      </trkpt>
      <trkpt lat="47.58673" lon="7.72843">
        <ele>351.4991455</ele>
        <time>2010-11-07T08:24:12Z</time>
      </trkpt>
      <trkpt lat="47.58673" lon="7.72845">
        <ele>350.5378418</ele>
        <time>2010-11-07T08:24:26Z</time>
      </trkpt>
      <trkpt lat="47.58673" lon="7.72846">
        <ele>351.4991455</ele>
        <time>2010-11-07T08:24:43Z</time>
      </trkpt>
      <trkpt lat="47.58674" lon="7.72848">
        <ele>351.9798584</ele>
        <time>2010-11-07T08:25:17Z</time>
      </trkpt>
      <trkpt lat="47.58676" lon="7.72849">
        <ele>352.4605713</ele>
        <time>2010-11-07T08:26:43Z</time>
      </trkpt>
      <trkpt lat="47.58674" lon="7.72849">
        <ele>351.9798584</ele>
        <time>2010-11-07T08:27:28Z</time>
      </trkpt>
      <trkpt lat="47.58674" lon="7.72849">
        <ele>352.4605713</ele>
        <time>2010-11-07T08:27:58Z</time>
      </trkpt>
      <trkpt lat="47.58673" lon="7.7285">
        <ele>351.9798584</ele>
        <time>2010-11-07T08:28:06Z</time>
      </trkpt>
      <trkpt lat="47.58674" lon="7.72849">
        <ele>351.4991455</ele>
        <time>2010-11-07T08:28:33Z</time>
      </trkpt>
      <trkpt lat="47.58674" lon="7.72849">
        <ele>350.5378418</ele>
        <time>2010-11-07T08:28:52Z</time>
      </trkpt>
      <trkpt lat="47.58674" lon="7.72849">
        <ele>351.9798584</ele>
        <time>2010-11-07T08:28:54Z</time>
      </trkpt>
      <trkpt lat="47.58672" lon="7.72846">
        <ele>351.9798584</ele>
        <time>2010-11-07T08:29:07Z</time>
      </trkpt>
      <trkpt lat="47.58671" lon="7.72845">
        <ele>351.9798584</ele>
        <time>2010-11-07T08:29:18Z</time>
      </trkpt>
      <trkpt lat="47.5867" lon="7.72845">
        <ele>351.9798584</ele>
        <time>2010-11-07T08:29:27Z</time>
      </trkpt>
      <trkpt lat="47.58671" lon="7.72846">
        <ele>352.4605713</ele>
        <time>2010-11-07T08:29:40Z</time>
      </trkpt>
      <trkpt lat="47.58673" lon="7.7285">
        <ele>351.9798584</ele>
        <time>2010-11-07T08:29:51Z</time>
      </trkpt>
      <trkpt lat="47.58673" lon="7.72851">
        <ele>352.4605713</ele>
        <time>2010-11-07T08:30:02Z</time>
      </trkpt>
      <trkpt lat="47.58674" lon="7.72852">
        <ele>351.4991455</ele>
        <time>2010-11-07T08:30:10Z</time>
      </trkpt>
      <trkpt lat="47.58674" lon="7.72851">
        <ele>351.9798584</ele>
        <time>2010-11-07T08:32:33Z</time>
      </trkpt>
      <trkpt lat="47.58674" lon="7.72851">
        <ele>351.9798584</ele>
        <time>2010-11-07T08:32:45Z</time>
      </trkpt>
      <trkpt lat="47.58675" lon="7.7285">
        <ele>351.4991455</ele>
        <time>2010-11-07T08:32:59Z</time>
      </trkpt>
      <trkpt lat="47.58676" lon="7.72857">
        <ele>351.4991455</ele>
        <time>2010-11-07T08:33:10Z</time>
      </trkpt>
      <trkpt lat="47.58675" lon="7.72863">
        <ele>350.5378418</ele>
        <time>2010-11-07T08:33:21Z</time>
      </trkpt>
      <trkpt lat="47.58676" lon="7.72867">
        <ele>350.057251</ele>
        <time>2010-11-07T08:33:30Z</time>
      </trkpt>
      <trkpt lat="47.58677" lon="7.72877">
        <ele>349.0958252</ele>
        <time>2010-11-07T08:33:38Z</time>
      </trkpt>
      <trkpt lat="47.58679" lon="7.72883">
        <ele>347.6539307</ele>
        <time>2010-11-07T08:33:43Z</time>
      </trkpt>
      <trkpt lat="47.58685" lon="7.72899">
        <ele>345.7313232</ele>
        <time>2010-11-07T08:33:55Z</time>
      </trkpt>
      <trkpt lat="47.58689" lon="7.72912">
        <ele>344.2894287</ele>
        <time>2010-11-07T08:34:05Z</time>
      </trkpt>
      <trkpt lat="47.58694" lon="7.72927">
        <ele>343.8085938</ele>
        <time>2010-11-07T08:34:16Z</time>
      </trkpt>
      <trkpt lat="47.58702" lon="7.72942">
        <ele>342.84729</ele>
        <time>2010-11-07T08:34:28Z</time>
      </trkpt>
      <trkpt lat="47.58712" lon="7.72954">
        <ele>341.4052734</ele>
        <time>2010-11-07T08:34:39Z</time>
      </trkpt>
      <trkpt lat="47.58721" lon="7.72964">
        <ele>340.4440918</ele>
        <time>2010-11-07T08:34:49Z</time>
      </trkpt>
      <trkpt lat="47.5873" lon="7.7297">
        <ele>339.9633789</ele>
        <time>2010-11-07T08:34:58Z</time>
      </trkpt>
      <trkpt lat="47.58739" lon="7.72978">
        <ele>339.482666</ele>
        <time>2010-11-07T08:35:07Z</time>
      </trkpt>
      <trkpt lat="47.58744" lon="7.72981">
        <ele>338.5214844</ele>
        <time>2010-11-07T08:35:12Z</time>
      </trkpt>
      <trkpt lat="47.58755" lon="7.72981">
        <ele>337.5600586</ele>
        <time>2010-11-07T08:35:23Z</time>
      </trkpt>
      <trkpt lat="47.58768" lon="7.72971">
        <ele>337.0794678</ele>
        <time>2010-11-07T08:35:37Z</time>
      </trkpt>
      <trkpt lat="47.58775" lon="7.72962">
        <ele>336.598877</ele>
        <time>2010-11-07T08:35:47Z</time>
      </trkpt>
      <trkpt lat="47.58781" lon="7.72955">
        <ele>336.598877</ele>
        <time>2010-11-07T08:35:59Z</time>
      </trkpt>
      <trkpt lat="47.58782" lon="7.72953">
        <ele>335.1567383</ele>
        <time>2010-11-07T08:36:12Z</time>
      </trkpt>
      <trkpt lat="47.58784" lon="7.72954">
        <ele>336.598877</ele>
        <time>2010-11-07T08:36:38Z</time>
      </trkpt>
      <trkpt lat="47.58788" lon="7.72949">
        <ele>335.1567383</ele>
        <time>2010-11-07T08:36:45Z</time>
      </trkpt>
      <trkpt lat="47.58787" lon="7.72947">
        <ele>335.6373291</ele>
        <time>2010-11-07T08:36:46Z</time>
      </trkpt>
      <trkpt lat="47.58789" lon="7.72936">
        <ele>335.6373291</ele>
        <time>2010-11-07T08:36:55Z</time>
      </trkpt>
      <trkpt lat="47.58788" lon="7.72928">
        <ele>336.1181641</ele>
        <time>2010-11-07T08:37:03Z</time>
      </trkpt>
      <trkpt lat="47.58786" lon="7.72923">
        <ele>336.1181641</ele>
        <time>2010-11-07T08:37:10Z</time>
      </trkpt>
      <trkpt lat="47.58786" lon="7.72919">
        <ele>336.1181641</ele>
        <time>2010-11-07T08:37:25Z</time>
      </trkpt>
      <trkpt lat="47.58787" lon="7.72928">
        <ele>336.598877</ele>
        <time>2010-11-07T08:38:41Z</time>
      </trkpt>
      <trkpt lat="47.5879" lon="7.72942">
        <ele>335.6373291</ele>
        <time>2010-11-07T08:38:51Z</time>
      </trkpt>
      <trkpt lat="47.58791" lon="7.72945">
        <ele>336.1181641</ele>
        <time>2010-11-07T08:38:53Z</time>
      </trkpt>
      <trkpt lat="47.58793" lon="7.72963">
        <ele>335.6373291</ele>
        <time>2010-11-07T08:39:05Z</time>
      </trkpt>
      <trkpt lat="47.58797" lon="7.72977">
        <ele>334.1954346</ele>
        <time>2010-11-07T08:39:16Z</time>
      </trkpt>
      <trkpt lat="47.58802" lon="7.7299">
        <ele>332.2728271</ele>
        <time>2010-11-07T08:39:27Z</time>
      </trkpt>
      <trkpt lat="47.58807" lon="7.73001">
        <ele>333.2341309</ele>
        <time>2010-11-07T08:39:36Z</time>
      </trkpt>
      <trkpt lat="47.58808" lon="7.73003">
        <ele>333.2341309</ele>
        <time>2010-11-07T08:39:40Z</time>
      </trkpt>
      <trkpt lat="47.5882" lon="7.73014">
        <ele>332.75354</ele>
        <time>2010-11-07T08:39:47Z</time>
      </trkpt>
      <trkpt lat="47.58821" lon="7.73022">
        <ele>332.75354</ele>
        <time>2010-11-07T08:39:55Z</time>
      </trkpt>
      <trkpt lat="47.58823" lon="7.7303">
        <ele>332.75354</ele>
        <time>2010-11-07T08:40:03Z</time>
      </trkpt>
      <trkpt lat="47.58831" lon="7.73037">
        <ele>333.2341309</ele>
        <time>2010-11-07T08:40:11Z</time>
      </trkpt>
      <trkpt lat="47.58832" lon="7.73037">
        <ele>333.2341309</ele>
        <time>2010-11-07T08:40:12Z</time>
      </trkpt>
      <trkpt lat="47.58846" lon="7.73039">
        <ele>334.1954346</ele>
        <time>2010-11-07T08:40:23Z</time>
      </trkpt>
      <trkpt lat="47.58848" lon="7.73038">
        <ele>334.6761475</ele>
        <time>2010-11-07T08:40:25Z</time>
      </trkpt>
      <trkpt lat="47.58854" lon="7.73035">
        <ele>335.1567383</ele>
        <time>2010-11-07T08:40:30Z</time>
      </trkpt>
      <trkpt lat="47.58862" lon="7.73038">
        <ele>336.598877</ele>
        <time>2010-11-07T08:40:39Z</time>
      </trkpt>
      <trkpt lat="47.58864" lon="7.7304">
        <ele>336.598877</ele>
        <time>2010-11-07T08:40:41Z</time>
      </trkpt>
      <trkpt lat="47.58868" lon="7.73053">
        <ele>336.1181641</ele>
        <time>2010-11-07T08:40:50Z</time>
      </trkpt>
      <trkpt lat="47.58872" lon="7.73066">
        <ele>336.1181641</ele>
        <time>2010-11-07T08:40:59Z</time>
      </trkpt>
      <trkpt lat="47.58874" lon="7.73081">
        <ele>336.598877</ele>
        <time>2010-11-07T08:41:09Z</time>
      </trkpt>
      <trkpt lat="47.58878" lon="7.73097">
        <ele>337.5600586</ele>
        <time>2010-11-07T08:41:19Z</time>
      </trkpt>
      <trkpt lat="47.58883" lon="7.73114">
        <ele>338.0407715</ele>
        <time>2010-11-07T08:41:29Z</time>
      </trkpt>
      <trkpt lat="47.58889" lon="7.73132">
        <ele>340.4440918</ele>
        <time>2010-11-07T08:41:41Z</time>
      </trkpt>
      <trkpt lat="47.58893" lon="7.73149">
        <ele>340.9246826</ele>
        <time>2010-11-07T08:41:52Z</time>
      </trkpt>
      <trkpt lat="47.58897" lon="7.73161">
        <ele>341.4052734</ele>
        <time>2010-11-07T08:42:00Z</time>
      </trkpt>
      <trkpt lat="47.58902" lon="7.73176">
        <ele>341.8859863</ele>
        <time>2010-11-07T08:42:10Z</time>
      </trkpt>
      <trkpt lat="47.58907" lon="7.73192">
        <ele>343.3278809</ele>
        <time>2010-11-07T08:42:21Z</time>
      </trkpt>
      <trkpt lat="47.58909" lon="7.73203">
        <ele>344.2894287</ele>
        <time>2010-11-07T08:42:29Z</time>
      </trkpt>
      <trkpt lat="47.58913" lon="7.73217">
        <ele>347.1732178</ele>
        <time>2010-11-07T08:42:39Z</time>
      </trkpt>
      <trkpt lat="47.58916" lon="7.73232">
        <ele>347.1732178</ele>
        <time>2010-11-07T08:42:49Z</time>
      </trkpt>
      <trkpt lat="47.58916" lon="7.73242">
        <ele>348.1346436</ele>
        <time>2010-11-07T08:42:57Z</time>
      </trkpt>
      <trkpt lat="47.58913" lon="7.7326">
        <ele>348.1346436</ele>
        <time>2010-11-07T08:43:08Z</time>
      </trkpt>
      <trkpt lat="47.58907" lon="7.73277">
        <ele>348.6152344</ele>
        <time>2010-11-07T08:43:18Z</time>
      </trkpt>
      <trkpt lat="47.589" lon="7.73295">
        <ele>348.6152344</ele>
        <time>2010-11-07T08:43:28Z</time>
      </trkpt>
      <trkpt lat="47.58893" lon="7.73316">
        <ele>347.6539307</ele>
        <time>2010-11-07T08:43:40Z</time>
      </trkpt>
      <trkpt lat="47.58887" lon="7.73336">
        <ele>348.1346436</ele>
        <time>2010-11-07T08:43:52Z</time>
      </trkpt>
      <trkpt lat="47.58883" lon="7.73349">
        <ele>348.6152344</ele>
        <time>2010-11-07T08:44:00Z</time>
      </trkpt>
      <trkpt lat="47.58875" lon="7.73372">
        <ele>348.1346436</ele>
        <time>2010-11-07T08:44:14Z</time>
      </trkpt>
      <trkpt lat="47.58868" lon="7.73395">
        <ele>349.0958252</ele>
        <time>2010-11-07T08:44:28Z</time>
      </trkpt>
      <trkpt lat="47.58863" lon="7.73412">
        <ele>349.0958252</ele>
        <time>2010-11-07T08:44:39Z</time>
      </trkpt>
      <trkpt lat="47.58858" lon="7.73427">
        <ele>349.0958252</ele>
        <time>2010-11-07T08:44:49Z</time>
      </trkpt>
      <trkpt lat="47.58852" lon="7.73444">
        <ele>349.0958252</ele>
        <time>2010-11-07T08:45:00Z</time>
      </trkpt>
      <trkpt lat="47.58847" lon="7.73457">
        <ele>349.5765381</ele>
        <time>2010-11-07T08:45:09Z</time>
      </trkpt>
      <trkpt lat="47.58842" lon="7.7347">
        <ele>350.057251</ele>
        <time>2010-11-07T08:45:18Z</time>
      </trkpt>
      <trkpt lat="47.58837" lon="7.73482">
        <ele>349.5765381</ele>
        <time>2010-11-07T08:45:27Z</time>
      </trkpt>
      <trkpt lat="47.58832" lon="7.73495">
        <ele>350.5378418</ele>
        <time>2010-11-07T08:45:35Z</time>
      </trkpt>
      <trkpt lat="47.58828" lon="7.73515">
        <ele>350.5378418</ele>
        <time>2010-11-07T08:45:46Z</time>
      </trkpt>
      <trkpt lat="47.58824" lon="7.73526">
        <ele>350.5378418</ele>
        <time>2010-11-07T08:45:52Z</time>
      </trkpt>
      <trkpt lat="47.58823" lon="7.73541">
        <ele>351.0184326</ele>
        <time>2010-11-07T08:46:01Z</time>
      </trkpt>
      <trkpt lat="47.5882" lon="7.73558">
        <ele>351.4991455</ele>
        <time>2010-11-07T08:46:12Z</time>
      </trkpt>
      <trkpt lat="47.58818" lon="7.73572">
        <ele>352.4605713</ele>
        <time>2010-11-07T08:46:20Z</time>
      </trkpt>
      <trkpt lat="47.58813" lon="7.73587">
        <ele>352.4605713</ele>
        <time>2010-11-07T08:46:28Z</time>
      </trkpt>
      <trkpt lat="47.58812" lon="7.73604">
        <ele>353.9025879</ele>
        <time>2010-11-07T08:46:39Z</time>
      </trkpt>
      <trkpt lat="47.58811" lon="7.73614">
        <ele>355.3444824</ele>
        <time>2010-11-07T08:46:46Z</time>
      </trkpt>
      <trkpt lat="47.5881" lon="7.73629">
        <ele>355.8251953</ele>
        <time>2010-11-07T08:46:56Z</time>
      </trkpt>
      <trkpt lat="47.5881" lon="7.73633">
        <ele>355.8251953</ele>
        <time>2010-11-07T08:46:59Z</time>
      </trkpt>
      <trkpt lat="47.5881" lon="7.73644">
        <ele>357.2670898</ele>
        <time>2010-11-07T08:47:07Z</time>
      </trkpt>
      <trkpt lat="47.58813" lon="7.73657">
        <ele>358.7089844</ele>
        <time>2010-11-07T08:47:17Z</time>
      </trkpt>
      <trkpt lat="47.58815" lon="7.73668">
        <ele>359.1896973</ele>
        <time>2010-11-07T08:47:27Z</time>
      </trkpt>
      <trkpt lat="47.58819" lon="7.73683">
        <ele>360.151123</ele>
        <time>2010-11-07T08:47:38Z</time>
      </trkpt>
      <trkpt lat="47.5882" lon="7.73695">
        <ele>360.6317139</ele>
        <time>2010-11-07T08:47:46Z</time>
      </trkpt>
      <trkpt lat="47.58822" lon="7.73707">
        <ele>360.6317139</ele>
        <time>2010-11-07T08:47:56Z</time>
      </trkpt>
      <trkpt lat="47.58827" lon="7.73718">
        <ele>360.6317139</ele>
        <time>2010-11-07T08:48:04Z</time>
      </trkpt>
      <trkpt lat="47.58832" lon="7.7373">
        <ele>362.0737305</ele>
        <time>2010-11-07T08:48:13Z</time>
      </trkpt>
      <trkpt lat="47.58836" lon="7.73741">
        <ele>364.4769287</ele>
        <time>2010-11-07T08:48:23Z</time>
      </trkpt>
      <trkpt lat="47.58844" lon="7.73753">
        <ele>365.4383545</ele>
        <time>2010-11-07T08:48:34Z</time>
      </trkpt>
      <trkpt lat="47.5885" lon="7.73762">
        <ele>366.3995361</ele>
        <time>2010-11-07T08:48:45Z</time>
      </trkpt>
      <trkpt lat="47.58854" lon="7.73776">
        <ele>367.3609619</ele>
        <time>2010-11-07T08:48:55Z</time>
      </trkpt>
      <trkpt lat="47.58853" lon="7.73798">
        <ele>367.8415527</ele>
        <time>2010-11-07T08:49:08Z</time>
      </trkpt>
      <trkpt lat="47.58849" lon="7.73815">
        <ele>366.880249</ele>
        <time>2010-11-07T08:49:21Z</time>
      </trkpt>
      <trkpt lat="47.58844" lon="7.73825">
        <ele>365.9189453</ele>
        <time>2010-11-07T08:49:28Z</time>
      </trkpt>
      <trkpt lat="47.58836" lon="7.73833">
        <ele>363.5157471</ele>
        <time>2010-11-07T08:49:38Z</time>
      </trkpt>
      <trkpt lat="47.58828" lon="7.73836">
        <ele>361.1124268</ele>
        <time>2010-11-07T08:49:47Z</time>
      </trkpt>
      <trkpt lat="47.58821" lon="7.73836">
        <ele>359.6704102</ele>
        <time>2010-11-07T08:49:57Z</time>
      </trkpt>
      <trkpt lat="47.58817" lon="7.73836">
        <ele>359.6704102</ele>
        <time>2010-11-07T08:50:01Z</time>
      </trkpt>
      <trkpt lat="47.58802" lon="7.73838">
        <ele>359.1896973</ele>
        <time>2010-11-07T08:50:12Z</time>
      </trkpt>
      <trkpt lat="47.58795" lon="7.73841">
        <ele>359.6704102</ele>
        <time>2010-11-07T08:50:18Z</time>
      </trkpt>
      <trkpt lat="47.58789" lon="7.73841">
        <ele>360.151123</ele>
        <time>2010-11-07T08:50:24Z</time>
      </trkpt>
      <trkpt lat="47.5878" lon="7.73841">
        <ele>360.151123</ele>
        <time>2010-11-07T08:50:31Z</time>
      </trkpt>
      <trkpt lat="47.58778" lon="7.7384">
        <ele>360.6317139</ele>
        <time>2010-11-07T08:50:33Z</time>
      </trkpt>
      <trkpt lat="47.58769" lon="7.73832">
        <ele>360.151123</ele>
        <time>2010-11-07T08:50:40Z</time>
      </trkpt>
      <trkpt lat="47.58758" lon="7.73816">
        <ele>360.151123</ele>
        <time>2010-11-07T08:50:53Z</time>
      </trkpt>
      <trkpt lat="47.5875" lon="7.73801">
        <ele>360.151123</ele>
        <time>2010-11-07T08:51:05Z</time>
      </trkpt>
      <trkpt lat="47.58747" lon="7.73785">
        <ele>358.7089844</ele>
        <time>2010-11-07T08:51:16Z</time>
      </trkpt>
      <trkpt lat="47.58744" lon="7.73766">
        <ele>357.2670898</ele>
        <time>2010-11-07T08:51:28Z</time>
      </trkpt>
      <trkpt lat="47.58737" lon="7.73748">
        <ele>356.786377</ele>
        <time>2010-11-07T08:51:40Z</time>
      </trkpt>
      <trkpt lat="47.58733" lon="7.73732">
        <ele>356.3057861</ele>
        <time>2010-11-07T08:51:50Z</time>
      </trkpt>
      <trkpt lat="47.58729" lon="7.73715">
        <ele>356.3057861</ele>
        <time>2010-11-07T08:52:01Z</time>
      </trkpt>
      <trkpt lat="47.58724" lon="7.73695">
        <ele>355.8251953</ele>
        <time>2010-11-07T08:52:13Z</time>
      </trkpt>
      <trkpt lat="47.5872" lon="7.73679">
        <ele>355.3444824</ele>
        <time>2010-11-07T08:52:23Z</time>
      </trkpt>
      <trkpt lat="47.58714" lon="7.73661">
        <ele>355.3444824</ele>
        <time>2010-11-07T08:52:34Z</time>
      </trkpt>
      <trkpt lat="47.58706" lon="7.73653">
        <ele>356.3057861</ele>
        <time>2010-11-07T08:52:44Z</time>
      </trkpt>
      <trkpt lat="47.58698" lon="7.73644">
        <ele>357.2670898</ele>
        <time>2010-11-07T08:52:55Z</time>
      </trkpt>
      <trkpt lat="47.58692" lon="7.73637">
        <ele>358.7089844</ele>
        <time>2010-11-07T08:53:05Z</time>
      </trkpt>
      <trkpt lat="47.58685" lon="7.73628">
        <ele>360.6317139</ele>
        <time>2010-11-07T08:53:16Z</time>
      </trkpt>
      <trkpt lat="47.58672" lon="7.73622">
        <ele>362.0737305</ele>
        <time>2010-11-07T08:53:28Z</time>
      </trkpt>
      <trkpt lat="47.58667" lon="7.73616">
        <ele>363.0350342</ele>
        <time>2010-11-07T08:53:37Z</time>
      </trkpt>
      <trkpt lat="47.5866" lon="7.7361">
        <ele>365.4383545</ele>
        <time>2010-11-07T08:53:47Z</time>
      </trkpt>
      <trkpt lat="47.58652" lon="7.73604">
        <ele>366.880249</ele>
        <time>2010-11-07T08:53:56Z</time>
      </trkpt>
      <trkpt lat="47.58648" lon="7.73597">
        <ele>368.8029785</ele>
        <time>2010-11-07T08:54:05Z</time>
      </trkpt>
      <trkpt lat="47.5864" lon="7.73589">
        <ele>370.244873</ele>
        <time>2010-11-07T08:54:15Z</time>
      </trkpt>
      <trkpt lat="47.58635" lon="7.73583">
        <ele>371.2062988</ele>
        <time>2010-11-07T08:54:25Z</time>
      </trkpt>
      <trkpt lat="47.58631" lon="7.73577">
        <ele>372.1674805</ele>
        <time>2010-11-07T08:54:33Z</time>
      </trkpt>
      <trkpt lat="47.58627" lon="7.73573">
        <ele>372.6481934</ele>
        <time>2010-11-07T08:54:40Z</time>
      </trkpt>
      <trkpt lat="47.58621" lon="7.73566">
        <ele>374.5708008</ele>
        <time>2010-11-07T08:54:50Z</time>
      </trkpt>
      <trkpt lat="47.58616" lon="7.73562">
        <ele>374.5708008</ele>
        <time>2010-11-07T08:54:57Z</time>
      </trkpt>
      <trkpt lat="47.58607" lon="7.73556">
        <ele>376.0128174</ele>
        <time>2010-11-07T08:55:06Z</time>
      </trkpt>
      <trkpt lat="47.58599" lon="7.73551">
        <ele>377.9354248</ele>
        <time>2010-11-07T08:55:15Z</time>
      </trkpt>
      <trkpt lat="47.58592" lon="7.73545">
        <ele>380.3387451</ele>
        <time>2010-11-07T08:55:24Z</time>
      </trkpt>
      <trkpt lat="47.58587" lon="7.73539">
        <ele>381.3000488</ele>
        <time>2010-11-07T08:55:33Z</time>
      </trkpt>
      <trkpt lat="47.5858" lon="7.73535">
        <ele>382.2613525</ele>
        <time>2010-11-07T08:55:43Z</time>
      </trkpt>
      <trkpt lat="47.58575" lon="7.73528">
        <ele>384.184082</ele>
        <time>2010-11-07T08:55:53Z</time>
      </trkpt>
      <trkpt lat="47.5857" lon="7.73523">
        <ele>385.6259766</ele>
        <time>2010-11-07T08:56:02Z</time>
      </trkpt>
      <trkpt lat="47.58562" lon="7.73518">
        <ele>386.5874023</ele>
        <time>2010-11-07T08:56:12Z</time>
      </trkpt>
      <trkpt lat="47.58555" lon="7.73513">
        <ele>388.0292969</ele>
        <time>2010-11-07T08:56:23Z</time>
      </trkpt>
      <trkpt lat="47.58547" lon="7.7351">
        <ele>389.4711914</ele>
        <time>2010-11-07T08:56:34Z</time>
      </trkpt>
      <trkpt lat="47.58542" lon="7.73508">
        <ele>389.4711914</ele>
        <time>2010-11-07T08:56:42Z</time>
      </trkpt>
      <trkpt lat="47.58536" lon="7.73505">
        <ele>389.9519043</ele>
        <time>2010-11-07T08:56:49Z</time>
      </trkpt>
      <trkpt lat="47.58531" lon="7.73502">
        <ele>390.913208</ele>
        <time>2010-11-07T08:56:57Z</time>
      </trkpt>
      <trkpt lat="47.58525" lon="7.735">
        <ele>391.8745117</ele>
        <time>2010-11-07T08:57:04Z</time>
      </trkpt>
      <trkpt lat="47.58522" lon="7.73497">
        <ele>392.3553467</ele>
        <time>2010-11-07T08:57:10Z</time>
      </trkpt>
      <trkpt lat="47.58517" lon="7.73492">
        <ele>393.3165283</ele>
        <time>2010-11-07T08:57:19Z</time>
      </trkpt>
      <trkpt lat="47.58515" lon="7.73492">
        <ele>393.7972412</ele>
        <time>2010-11-07T08:57:22Z</time>
      </trkpt>
      <trkpt lat="47.58511" lon="7.73489">
        <ele>394.7585449</ele>
        <time>2010-11-07T08:57:27Z</time>
      </trkpt>
      <trkpt lat="47.58509" lon="7.73487">
        <ele>396.2005615</ele>
        <time>2010-11-07T08:57:33Z</time>
      </trkpt>
      <trkpt lat="47.58501" lon="7.73484">
        <ele>397.1617432</ele>
        <time>2010-11-07T08:57:42Z</time>
      </trkpt>
      <trkpt lat="47.58495" lon="7.73478">
        <ele>399.0843506</ele>
        <time>2010-11-07T08:57:51Z</time>
      </trkpt>
      <trkpt lat="47.58488" lon="7.73472">
        <ele>400.0458984</ele>
        <time>2010-11-07T08:58:00Z</time>
      </trkpt>
      <trkpt lat="47.58482" lon="7.73467">
        <ele>401.0070801</ele>
        <time>2010-11-07T08:58:09Z</time>
      </trkpt>
      <trkpt lat="47.58475" lon="7.73467">
        <ele>401.487793</ele>
        <time>2010-11-07T08:58:19Z</time>
      </trkpt>
      <trkpt lat="47.5847" lon="7.73471">
        <ele>401.487793</ele>
        <time>2010-11-07T08:58:28Z</time>
      </trkpt>
      <trkpt lat="47.58465" lon="7.73474">
        <ele>399.0843506</ele>
        <time>2010-11-07T08:58:40Z</time>
      </trkpt>
      <trkpt lat="47.58465" lon="7.73473">
        <ele>400.0458984</ele>
        <time>2010-11-07T08:58:48Z</time>
      </trkpt>
      <trkpt lat="47.58466" lon="7.7347">
        <ele>403.4104004</ele>
        <time>2010-11-07T08:59:02Z</time>
      </trkpt>
      <trkpt lat="47.58467" lon="7.7347">
        <ele>402.9296875</ele>
        <time>2010-11-07T08:59:03Z</time>
      </trkpt>
      <trkpt lat="47.58468" lon="7.73469">
        <ele>402.9296875</ele>
        <time>2010-11-07T08:59:04Z</time>
      </trkpt>
      <trkpt lat="47.58467" lon="7.73469">
        <ele>398.6037598</ele>
        <time>2010-11-07T08:59:09Z</time>
      </trkpt>
      <trkpt lat="47.58467" lon="7.73469">
        <ele>401.9685059</ele>
        <time>2010-11-07T08:59:10Z</time>
      </trkpt>
      <trkpt lat="47.58469" lon="7.7347">
        <ele>401.487793</ele>
        <time>2010-11-07T08:59:22Z</time>
      </trkpt>
      <trkpt lat="47.58467" lon="7.73468">
        <ele>401.9685059</ele>
        <time>2010-11-07T08:59:31Z</time>
      </trkpt>
      <trkpt lat="47.58468" lon="7.73467">
        <ele>401.9685059</ele>
        <time>2010-11-07T08:59:32Z</time>
      </trkpt>
      <trkpt lat="47.5847" lon="7.73473">
        <ele>401.0070801</ele>
        <time>2010-11-07T08:59:38Z</time>
      </trkpt>
      <trkpt lat="47.58472" lon="7.73473">
        <ele>400.0458984</ele>
        <time>2010-11-07T08:59:40Z</time>
      </trkpt>
      <trkpt lat="47.58476" lon="7.73475">
        <ele>396.2005615</ele>
        <time>2010-11-07T08:59:43Z</time>
      </trkpt>
      <trkpt lat="47.58476" lon="7.73475">
        <ele>400.5264893</ele>
        <time>2010-11-07T08:59:44Z</time>
      </trkpt>
      <trkpt lat="47.58476" lon="7.73476">
        <ele>396.2005615</ele>
        <time>2010-11-07T08:59:46Z</time>
      </trkpt>
      <trkpt lat="47.58475" lon="7.73472">
        <ele>401.487793</ele>
        <time>2010-11-07T08:59:52Z</time>
      </trkpt>
      <trkpt lat="47.58473" lon="7.73467">
        <ele>401.487793</ele>
        <time>2010-11-07T08:59:54Z</time>
      </trkpt>
      <trkpt lat="47.58461" lon="7.73458">
        <ele>401.487793</ele>
        <time>2010-11-07T09:00:09Z</time>
      </trkpt>
      <trkpt lat="47.58463" lon="7.73463">
        <ele>401.0070801</ele>
        <time>2010-11-07T09:00:21Z</time>
      </trkpt>
      <trkpt lat="47.58463" lon="7.73463">
        <ele>397.6424561</ele>
        <time>2010-11-07T09:00:22Z</time>
      </trkpt>
      <trkpt lat="47.58464" lon="7.73462">
        <ele>401.0070801</ele>
        <time>2010-11-07T09:00:24Z</time>
      </trkpt>
      <trkpt lat="47.58464" lon="7.73462">
        <ele>404.8522949</ele>
        <time>2010-11-07T09:00:27Z</time>
      </trkpt>
      <trkpt lat="47.58465" lon="7.73462">
        <ele>403.4104004</ele>
        <time>2010-11-07T09:00:28Z</time>
      </trkpt>
      <trkpt lat="47.58466" lon="7.73463">
        <ele>401.0070801</ele>
        <time>2010-11-07T09:00:31Z</time>
      </trkpt>
      <trkpt lat="47.58466" lon="7.73464">
        <ele>400.5264893</ele>
        <time>2010-11-07T09:00:41Z</time>
      </trkpt>
      <trkpt lat="47.58474" lon="7.73462">
        <ele>401.0070801</ele>
        <time>2010-11-07T09:00:47Z</time>
      </trkpt>
      <trkpt lat="47.58475" lon="7.73464">
        <ele>400.5264893</ele>
        <time>2010-11-07T09:00:53Z</time>
      </trkpt>
      <trkpt lat="47.58476" lon="7.73474">
        <ele>401.0070801</ele>
        <time>2010-11-07T09:01:04Z</time>
      </trkpt>
      <trkpt lat="47.58476" lon="7.73472">
        <ele>401.0070801</ele>
        <time>2010-11-07T09:01:20Z</time>
      </trkpt>
      <trkpt lat="47.58477" lon="7.73475">
        <ele>397.6424561</ele>
        <time>2010-11-07T09:01:23Z</time>
      </trkpt>
      <trkpt lat="47.58478" lon="7.73476">
        <ele>399.5650635</ele>
        <time>2010-11-07T09:01:24Z</time>
      </trkpt>
      <trkpt lat="47.58474" lon="7.73473">
        <ele>400.0458984</ele>
        <time>2010-11-07T09:01:35Z</time>
      </trkpt>
      <trkpt lat="47.5847" lon="7.73469">
        <ele>401.0070801</ele>
        <time>2010-11-07T09:01:42Z</time>
      </trkpt>
      <trkpt lat="47.5847" lon="7.73466">
        <ele>401.487793</ele>
        <time>2010-11-07T09:01:48Z</time>
      </trkpt>
      <trkpt lat="47.58468" lon="7.73462">
        <ele>401.0070801</ele>
        <time>2010-11-07T09:01:57Z</time>
      </trkpt>
      <trkpt lat="47.58464" lon="7.73462">
        <ele>401.487793</ele>
        <time>2010-11-07T09:02:07Z</time>
      </trkpt>
      <trkpt lat="47.58464" lon="7.73462">
        <ele>397.6424561</ele>
        <time>2010-11-07T09:02:08Z</time>
      </trkpt>
      <trkpt lat="47.58464" lon="7.73462">
        <ele>399.5650635</ele>
        <time>2010-11-07T09:02:09Z</time>
      </trkpt>
      <trkpt lat="47.58465" lon="7.73462">
        <ele>401.487793</ele>
        <time>2010-11-07T09:02:12Z</time>
      </trkpt>
      <trkpt lat="47.58463" lon="7.73461">
        <ele>401.487793</ele>
        <time>2010-11-07T09:02:32Z</time>
      </trkpt>
      <trkpt lat="47.58469" lon="7.7346">
        <ele>400.0458984</ele>
        <time>2010-11-07T09:02:40Z</time>
      </trkpt>
      <trkpt lat="47.58472" lon="7.73451">
        <ele>401.487793</ele>
        <time>2010-11-07T09:02:56Z</time>
      </trkpt>
      <trkpt lat="47.58473" lon="7.7344">
        <ele>401.487793</ele>
        <time>2010-11-07T09:03:25Z</time>
      </trkpt>
      <trkpt lat="47.58476" lon="7.73445">
        <ele>401.9685059</ele>
        <time>2010-11-07T09:03:43Z</time>
      </trkpt>
      <trkpt lat="47.58479" lon="7.73444">
        <ele>402.4490967</ele>
        <time>2010-11-07T09:04:10Z</time>
      </trkpt>
      <trkpt lat="47.58483" lon="7.73446">
        <ele>401.9685059</ele>
        <time>2010-11-07T09:04:27Z</time>
      </trkpt>
      <trkpt lat="47.58483" lon="7.73446">
        <ele>401.9685059</ele>
        <time>2010-11-07T09:04:40Z</time>
      </trkpt>
      <trkpt lat="47.58481" lon="7.73448">
        <ele>401.9685059</ele>
        <time>2010-11-07T09:04:54Z</time>
      </trkpt>
      <trkpt lat="47.58477" lon="7.73444">
        <ele>402.4490967</ele>
        <time>2010-11-07T09:05:18Z</time>
      </trkpt>
      <trkpt lat="47.58475" lon="7.73445">
        <ele>402.4490967</ele>
        <time>2010-11-07T09:05:29Z</time>
      </trkpt>
      <trkpt lat="47.58477" lon="7.73449">
        <ele>402.9296875</ele>
        <time>2010-11-07T09:05:55Z</time>
      </trkpt>
      <trkpt lat="47.58483" lon="7.73449">
        <ele>402.4490967</ele>
        <time>2010-11-07T09:06:05Z</time>
      </trkpt>
      <trkpt lat="47.58484" lon="7.73447">
        <ele>402.4490967</ele>
        <time>2010-11-07T09:06:30Z</time>
      </trkpt>
      <trkpt lat="47.58481" lon="7.73442">
        <ele>402.9296875</ele>
        <time>2010-11-07T09:06:45Z</time>
      </trkpt>
      <trkpt lat="47.58478" lon="7.73436">
        <ele>403.4104004</ele>
        <time>2010-11-07T09:07:01Z</time>
      </trkpt>
      <trkpt lat="47.58487" lon="7.73437">
        <ele>404.8522949</ele>
        <time>2010-11-07T09:07:52Z</time>
      </trkpt>
      <trkpt lat="47.58488" lon="7.73432">
        <ele>405.3330078</ele>
        <time>2010-11-07T09:08:17Z</time>
      </trkpt>
      <trkpt lat="47.5849" lon="7.73429">
        <ele>404.8522949</ele>
        <time>2010-11-07T09:08:26Z</time>
      </trkpt>
      <trkpt lat="47.58494" lon="7.73444">
        <ele>405.8137207</ele>
        <time>2010-11-07T09:08:51Z</time>
      </trkpt>
      <trkpt lat="47.58492" lon="7.73442">
        <ele>405.3330078</ele>
        <time>2010-11-07T09:09:09Z</time>
      </trkpt>
      <trkpt lat="47.58484" lon="7.73436">
        <ele>405.3330078</ele>
        <time>2010-11-07T09:09:16Z</time>
      </trkpt>
      <trkpt lat="47.58476" lon="7.73428">
        <ele>405.3330078</ele>
        <time>2010-11-07T09:09:28Z</time>
      </trkpt>
      <trkpt lat="47.58464" lon="7.7342">
        <ele>405.3330078</ele>
        <time>2010-11-07T09:09:36Z</time>
      </trkpt>
      <trkpt lat="47.58457" lon="7.73413">
        <ele>405.3330078</ele>
        <time>2010-11-07T09:09:44Z</time>
      </trkpt>
      <trkpt lat="47.58451" lon="7.73409">
        <ele>404.3717041</ele>
        <time>2010-11-07T09:09:52Z</time>
      </trkpt>
      <trkpt lat="47.58439" lon="7.73409">
        <ele>405.3330078</ele>
        <time>2010-11-07T09:10:09Z</time>
      </trkpt>
      <trkpt lat="47.58431" lon="7.73411">
        <ele>405.3330078</ele>
        <time>2010-11-07T09:10:16Z</time>
      </trkpt>
      <trkpt lat="47.5842" lon="7.73414">
        <ele>404.8522949</ele>
        <time>2010-11-07T09:10:24Z</time>
      </trkpt>
      <trkpt lat="47.58412" lon="7.73417">
        <ele>405.3330078</ele>
        <time>2010-11-07T09:10:31Z</time>
      </trkpt>
      <trkpt lat="47.58403" lon="7.7342">
        <ele>404.3717041</ele>
        <time>2010-11-07T09:10:38Z</time>
      </trkpt>
      <trkpt lat="47.58396" lon="7.73415">
        <ele>404.8522949</ele>
        <time>2010-11-07T09:10:43Z</time>
      </trkpt>
      <trkpt lat="47.58388" lon="7.73408">
        <ele>404.3717041</ele>
        <time>2010-11-07T09:10:49Z</time>
      </trkpt>
      <trkpt lat="47.58373" lon="7.73407">
        <ele>404.3717041</ele>
        <time>2010-11-07T09:10:59Z</time>
      </trkpt>
      <trkpt lat="47.58365" lon="7.73406">
        <ele>404.8522949</ele>
        <time>2010-11-07T09:11:06Z</time>
      </trkpt>
      <trkpt lat="47.58355" lon="7.73402">
        <ele>404.8522949</ele>
        <time>2010-11-07T09:11:13Z</time>
      </trkpt>
      <trkpt lat="47.58347" lon="7.73401">
        <ele>404.8522949</ele>
        <time>2010-11-07T09:11:18Z</time>
      </trkpt>
      <trkpt lat="47.58335" lon="7.73402">
        <ele>404.3717041</ele>
        <time>2010-11-07T09:11:24Z</time>
      </trkpt>
      <trkpt lat="47.58322" lon="7.73401">
        <ele>403.8911133</ele>
        <time>2010-11-07T09:11:30Z</time>
      </trkpt>
      <trkpt lat="47.58307" lon="7.73399">
        <ele>404.3717041</ele>
        <time>2010-11-07T09:11:36Z</time>
      </trkpt>
      <trkpt lat="47.58301" lon="7.73394">
        <ele>404.8522949</ele>
        <time>2010-11-07T09:11:39Z</time>
      </trkpt>
      <trkpt lat="47.58284" lon="7.73395">
        <ele>404.3717041</ele>
        <time>2010-11-07T09:11:48Z</time>
      </trkpt>
      <trkpt lat="47.5828" lon="7.73397">
        <ele>404.8522949</ele>
        <time>2010-11-07T09:11:54Z</time>
      </trkpt>
      <trkpt lat="47.58277" lon="7.734">
        <ele>404.3717041</ele>
        <time>2010-11-07T09:12:01Z</time>
      </trkpt>
      <trkpt lat="47.58244" lon="7.73385">
        <ele>404.3717041</ele>
        <time>2010-11-07T09:12:30Z</time>
      </trkpt>
      <trkpt lat="47.5823" lon="7.73375">
        <ele>405.3330078</ele>
        <time>2010-11-07T09:12:50Z</time>
      </trkpt>
      <trkpt lat="47.58223" lon="7.73371">
        <ele>405.3330078</ele>
        <time>2010-11-07T09:12:56Z</time>
      </trkpt>
      <trkpt lat="47.58215" lon="7.73365">
        <ele>405.3330078</ele>
        <time>2010-11-07T09:13:05Z</time>
      </trkpt>
      <trkpt lat="47.5821" lon="7.73358">
        <ele>405.3330078</ele>
        <time>2010-11-07T09:13:13Z</time>
      </trkpt>
      <trkpt lat="47.5821" lon="7.73336">
        <ele>405.3330078</ele>
        <time>2010-11-07T09:13:35Z</time>
      </trkpt>
      <trkpt lat="47.58203" lon="7.73318">
        <ele>404.8522949</ele>
        <time>2010-11-07T09:13:48Z</time>
      </trkpt>
      <trkpt lat="47.58205" lon="7.73307">
        <ele>405.3330078</ele>
        <time>2010-11-07T09:13:55Z</time>
      </trkpt>
      <trkpt lat="47.58198" lon="7.73299">
        <ele>404.8522949</ele>
        <time>2010-11-07T09:14:01Z</time>
      </trkpt>
      <trkpt lat="47.58185" lon="7.73287">
        <ele>405.3330078</ele>
        <time>2010-11-07T09:14:13Z</time>
      </trkpt>
      <trkpt lat="47.58175" lon="7.73289">
        <ele>404.8522949</ele>
        <time>2010-11-07T09:14:20Z</time>
      </trkpt>
      <trkpt lat="47.5816" lon="7.7329">
        <ele>403.8911133</ele>
        <time>2010-11-07T09:14:30Z</time>
      </trkpt>
      <trkpt lat="47.58149" lon="7.73292">
        <ele>403.4104004</ele>
        <time>2010-11-07T09:14:35Z</time>
      </trkpt>
      <trkpt lat="47.58118" lon="7.73302">
        <ele>403.4104004</ele>
        <time>2010-11-07T09:14:48Z</time>
      </trkpt>
      <trkpt lat="47.58098" lon="7.73314">
        <ele>402.4490967</ele>
        <time>2010-11-07T09:14:58Z</time>
      </trkpt>
      <trkpt lat="47.58082" lon="7.73321">
        <ele>402.9296875</ele>
        <time>2010-11-07T09:15:08Z</time>
      </trkpt>
      <trkpt lat="47.58063" lon="7.73327">
        <ele>403.4104004</ele>
        <time>2010-11-07T09:15:18Z</time>
      </trkpt>
      <trkpt lat="47.5804" lon="7.73336">
        <ele>402.4490967</ele>
        <time>2010-11-07T09:15:25Z</time>
      </trkpt>
      <trkpt lat="47.58034" lon="7.73335">
        <ele>402.9296875</ele>
        <time>2010-11-07T09:15:33Z</time>
      </trkpt>
      <trkpt lat="47.58025" lon="7.73329">
        <ele>403.8911133</ele>
        <time>2010-11-07T09:15:42Z</time>
      </trkpt>
      <trkpt lat="47.58024" lon="7.73324">
        <ele>403.8911133</ele>
        <time>2010-11-07T09:15:47Z</time>
      </trkpt>
      <trkpt lat="47.58021" lon="7.7332">
        <ele>404.3717041</ele>
        <time>2010-11-07T09:15:55Z</time>
      </trkpt>
      <trkpt lat="47.58016" lon="7.73318">
        <ele>403.8911133</ele>
        <time>2010-11-07T09:16:01Z</time>
      </trkpt>
      <trkpt lat="47.58009" lon="7.73319">
        <ele>402.9296875</ele>
        <time>2010-11-07T09:16:07Z</time>
      </trkpt>
      <trkpt lat="47.58004" lon="7.73317">
        <ele>402.4490967</ele>
        <time>2010-11-07T09:16:12Z</time>
      </trkpt>
      <trkpt lat="47.57998" lon="7.73315">
        <ele>401.9685059</ele>
        <time>2010-11-07T09:16:17Z</time>
      </trkpt>
      <trkpt lat="47.57988" lon="7.73315">
        <ele>401.9685059</ele>
        <time>2010-11-07T09:16:25Z</time>
      </trkpt>
      <trkpt lat="47.57976" lon="7.73311">
        <ele>401.487793</ele>
        <time>2010-11-07T09:16:33Z</time>
      </trkpt>
      <trkpt lat="47.57975" lon="7.73313">
        <ele>401.0070801</ele>
        <time>2010-11-07T09:16:38Z</time>
      </trkpt>
      <trkpt lat="47.57971" lon="7.73312">
        <ele>401.0070801</ele>
        <time>2010-11-07T09:16:43Z</time>
      </trkpt>
      <trkpt lat="47.57934" lon="7.73308">
        <ele>398.1231689</ele>
        <time>2010-11-07T09:17:11Z</time>
      </trkpt>
      <trkpt lat="47.57904" lon="7.73313">
        <ele>392.8359375</ele>
        <time>2010-11-07T09:17:47Z</time>
      </trkpt>
      <trkpt lat="47.57878" lon="7.73314">
        <ele>386.5874023</ele>
        <time>2010-11-07T09:18:51Z</time>
      </trkpt>
      <trkpt lat="47.57877" lon="7.73305">
        <ele>385.6259766</ele>
        <time>2010-11-07T09:18:55Z</time>
      </trkpt>
      <trkpt lat="47.57875" lon="7.73288">
        <ele>384.6647949</ele>
        <time>2010-11-07T09:19:02Z</time>
      </trkpt>
      <trkpt lat="47.57868" lon="7.73261">
        <ele>384.184082</ele>
        <time>2010-11-07T09:19:12Z</time>
      </trkpt>
      <trkpt lat="47.57912" lon="7.73222">
        <ele>377.9354248</ele>
        <time>2010-11-07T09:20:01Z</time>
      </trkpt>
      <trkpt lat="47.5792" lon="7.73212">
        <ele>376.9742432</ele>
        <time>2010-11-07T09:20:10Z</time>
      </trkpt>
      <trkpt lat="47.57972" lon="7.73172">
        <ele>369.2836914</ele>
        <time>2010-11-07T09:21:06Z</time>
      </trkpt>
      <trkpt lat="47.58078" lon="7.73049">
        <ele>356.3057861</ele>
        <time>2010-11-07T09:23:11Z</time>
      </trkpt>
      <trkpt lat="47.58067" lon="7.73032">
        <ele>354.8637695</ele>
        <time>2010-11-07T09:23:21Z</time>
      </trkpt>
      <trkpt lat="47.58029" lon="7.73045">
        <ele>351.4991455</ele>
        <time>2010-11-07T09:23:48Z</time>
      </trkpt>
      <trkpt lat="47.58009" lon="7.73042">
        <ele>349.5765381</ele>
        <time>2010-11-07T09:24:10Z</time>
      </trkpt>
      <trkpt lat="47.58" lon="7.7304">
        <ele>349.0958252</ele>
        <time>2010-11-07T09:24:16Z</time>
      </trkpt>
      <trkpt lat="47.57971" lon="7.73036">
        <ele>346.692627</ele>
        <time>2010-11-07T09:24:45Z</time>
      </trkpt>
      <trkpt lat="47.57968" lon="7.73036">
        <ele>344.7700195</ele>
        <time>2010-11-07T09:24:53Z</time>
      </trkpt>
      <trkpt lat="47.57963" lon="7.73034">
        <ele>345.7313232</ele>
        <time>2010-11-07T09:24:58Z</time>
      </trkpt>
      <trkpt lat="47.57953" lon="7.73035">
        <ele>343.3278809</ele>
        <time>2010-11-07T09:25:11Z</time>
      </trkpt>
      <trkpt lat="47.57943" lon="7.73034">
        <ele>343.3278809</ele>
        <time>2010-11-07T09:25:18Z</time>
      </trkpt>
      <trkpt lat="47.57936" lon="7.73029">
        <ele>342.84729</ele>
        <time>2010-11-07T09:25:25Z</time>
      </trkpt>
      <trkpt lat="47.57916" lon="7.7302">
        <ele>341.8859863</ele>
        <time>2010-11-07T09:25:37Z</time>
      </trkpt>
      <trkpt lat="47.57908" lon="7.73022">
        <ele>340.9246826</ele>
        <time>2010-11-07T09:25:44Z</time>
      </trkpt>
      <trkpt lat="47.57897" lon="7.73025">
        <ele>340.4440918</ele>
        <time>2010-11-07T09:25:52Z</time>
      </trkpt>
      <trkpt lat="47.57886" lon="7.73027">
        <ele>340.4440918</ele>
        <time>2010-11-07T09:26:01Z</time>
      </trkpt>
      <trkpt lat="47.57875" lon="7.73031">
        <ele>339.482666</ele>
        <time>2010-11-07T09:26:11Z</time>
      </trkpt>
      <trkpt lat="47.57861" lon="7.7304">
        <ele>338.5214844</ele>
        <time>2010-11-07T09:26:22Z</time>
      </trkpt>
      <trkpt lat="47.5785" lon="7.73051">
        <ele>338.0407715</ele>
        <time>2010-11-07T09:26:33Z</time>
      </trkpt>
      <trkpt lat="47.5784" lon="7.73064">
        <ele>336.598877</ele>
        <time>2010-11-07T09:26:44Z</time>
      </trkpt>
      <trkpt lat="47.57834" lon="7.73073">
        <ele>336.598877</ele>
        <time>2010-11-07T09:26:52Z</time>
      </trkpt>
      <trkpt lat="47.57826" lon="7.73083">
        <ele>335.6373291</ele>
        <time>2010-11-07T09:27:01Z</time>
      </trkpt>
      <trkpt lat="47.5782" lon="7.73093">
        <ele>335.1567383</ele>
        <time>2010-11-07T09:27:09Z</time>
      </trkpt>
      <trkpt lat="47.57814" lon="7.73101">
        <ele>334.6761475</ele>
        <time>2010-11-07T09:27:17Z</time>
      </trkpt>
      <trkpt lat="47.57801" lon="7.73123">
        <ele>337.5600586</ele>
        <time>2010-11-07T09:31:54Z</time>
      </trkpt>
      <trkpt lat="47.57781" lon="7.73154">
        <ele>336.1181641</ele>
        <time>2010-11-07T09:32:25Z</time>
      </trkpt>
      <trkpt lat="47.57739" lon="7.73182">
        <ele>335.6373291</ele>
        <time>2010-11-07T09:33:06Z</time>
      </trkpt>
      <trkpt lat="47.57723" lon="7.73192">
        <ele>335.6373291</ele>
        <time>2010-11-07T09:33:23Z</time>
      </trkpt>
      <trkpt lat="47.57675" lon="7.73228">
        <ele>336.1181641</ele>
        <time>2010-11-07T09:34:13Z</time>
      </trkpt>
      <trkpt lat="47.57669" lon="7.73235">
        <ele>336.1181641</ele>
        <time>2010-11-07T09:34:21Z</time>
      </trkpt>
      <trkpt lat="47.57657" lon="7.73253">
        <ele>336.598877</ele>
        <time>2010-11-07T09:34:42Z</time>
      </trkpt>
      <trkpt lat="47.5765" lon="7.73262">
        <ele>336.1181641</ele>
        <time>2010-11-07T09:34:49Z</time>
      </trkpt>
      <trkpt lat="47.57635" lon="7.73282">
        <ele>335.6373291</ele>
        <time>2010-11-07T09:35:06Z</time>
      </trkpt>
      <trkpt lat="47.57629" lon="7.73293">
        <ele>335.1567383</ele>
        <time>2010-11-07T09:35:14Z</time>
      </trkpt>
      <trkpt lat="47.5762" lon="7.73304">
        <ele>335.6373291</ele>
        <time>2010-11-07T09:35:24Z</time>
      </trkpt>
      <trkpt lat="47.57616" lon="7.73309">
        <ele>335.6373291</ele>
        <time>2010-11-07T09:35:29Z</time>
      </trkpt>
      <trkpt lat="47.5761" lon="7.73316">
        <ele>335.1567383</ele>
        <time>2010-11-07T09:35:36Z</time>
      </trkpt>
      <trkpt lat="47.57606" lon="7.73321">
        <ele>335.1567383</ele>
        <time>2010-11-07T09:35:40Z</time>
      </trkpt>
      <trkpt lat="47.576" lon="7.7333">
        <ele>335.6373291</ele>
        <time>2010-11-07T09:35:46Z</time>
      </trkpt>
      <trkpt lat="47.57594" lon="7.73337">
        <ele>335.1567383</ele>
        <time>2010-11-07T09:35:51Z</time>
      </trkpt>
      <trkpt lat="47.5759" lon="7.73347">
        <ele>335.1567383</ele>
        <time>2010-11-07T09:35:58Z</time>
      </trkpt>
      <trkpt lat="47.57587" lon="7.73354">
        <ele>335.1567383</ele>
        <time>2010-11-07T09:36:03Z</time>
      </trkpt>
      <trkpt lat="47.57584" lon="7.73361">
        <ele>335.1567383</ele>
        <time>2010-11-07T09:36:08Z</time>
      </trkpt>
      <trkpt lat="47.57581" lon="7.73371">
        <ele>334.6761475</ele>
        <time>2010-11-07T09:36:16Z</time>
      </trkpt>
      <trkpt lat="47.57579" lon="7.73379">
        <ele>334.6761475</ele>
        <time>2010-11-07T09:36:22Z</time>
      </trkpt>
      <trkpt lat="47.57571" lon="7.73387">
        <ele>334.6761475</ele>
        <time>2010-11-07T09:36:31Z</time>
      </trkpt>
      <trkpt lat="47.57568" lon="7.73398">
        <ele>334.6761475</ele>
        <time>2010-11-07T09:36:36Z</time>
      </trkpt>
      <trkpt lat="47.5756" lon="7.73407">
        <ele>334.6761475</ele>
        <time>2010-11-07T09:36:44Z</time>
      </trkpt>
      <trkpt lat="47.57556" lon="7.73416">
        <ele>334.6761475</ele>
        <time>2010-11-07T09:36:50Z</time>
      </trkpt>
      <trkpt lat="47.57554" lon="7.73424">
        <ele>334.1954346</ele>
        <time>2010-11-07T09:36:56Z</time>
      </trkpt>
      <trkpt lat="47.57551" lon="7.73434">
        <ele>334.6761475</ele>
        <time>2010-11-07T09:37:02Z</time>
      </trkpt>
      <trkpt lat="47.5755" lon="7.73442">
        <ele>334.6761475</ele>
        <time>2010-11-07T09:37:07Z</time>
      </trkpt>
      <trkpt lat="47.57542" lon="7.7346">
        <ele>333.7147217</ele>
        <time>2010-11-07T09:37:18Z</time>
      </trkpt>
      <trkpt lat="47.57541" lon="7.73461">
        <ele>333.7147217</ele>
        <time>2010-11-07T09:37:19Z</time>
      </trkpt>
      <trkpt lat="47.57536" lon="7.7347">
        <ele>333.7147217</ele>
        <time>2010-11-07T09:37:27Z</time>
      </trkpt>
      <trkpt lat="47.57532" lon="7.73478">
        <ele>334.1954346</ele>
        <time>2010-11-07T09:37:34Z</time>
      </trkpt>
      <trkpt lat="47.57525" lon="7.73497">
        <ele>333.2341309</ele>
        <time>2010-11-07T09:37:45Z</time>
      </trkpt>
      <trkpt lat="47.57519" lon="7.73506">
        <ele>333.2341309</ele>
        <time>2010-11-07T09:37:54Z</time>
      </trkpt>
      <trkpt lat="47.57513" lon="7.7352">
        <ele>332.75354</ele>
        <time>2010-11-07T09:38:03Z</time>
      </trkpt>
      <trkpt lat="47.5751" lon="7.73528">
        <ele>332.75354</ele>
        <time>2010-11-07T09:38:10Z</time>
      </trkpt>
      <trkpt lat="47.57509" lon="7.7353">
        <ele>332.75354</ele>
        <time>2010-11-07T09:38:11Z</time>
      </trkpt>
      <trkpt lat="47.57507" lon="7.73541">
        <ele>332.2728271</ele>
        <time>2010-11-07T09:38:20Z</time>
      </trkpt>
      <trkpt lat="47.57505" lon="7.73556">
        <ele>332.2728271</ele>
        <time>2010-11-07T09:38:31Z</time>
      </trkpt>
      <trkpt lat="47.575" lon="7.73577">
        <ele>332.2728271</ele>
        <time>2010-11-07T09:38:43Z</time>
      </trkpt>
      <trkpt lat="47.57494" lon="7.73597">
        <ele>331.7921143</ele>
        <time>2010-11-07T09:38:54Z</time>
      </trkpt>
      <trkpt lat="47.57487" lon="7.7362">
        <ele>330.8309326</ele>
        <time>2010-11-07T09:39:07Z</time>
      </trkpt>
      <trkpt lat="47.57482" lon="7.73639">
        <ele>330.8309326</ele>
        <time>2010-11-07T09:39:19Z</time>
      </trkpt>
      <trkpt lat="47.57478" lon="7.73657">
        <ele>330.3502197</ele>
        <time>2010-11-07T09:39:30Z</time>
      </trkpt>
      <trkpt lat="47.57475" lon="7.73672">
        <ele>330.8309326</ele>
        <time>2010-11-07T09:39:40Z</time>
      </trkpt>
      <trkpt lat="47.57471" lon="7.7369">
        <ele>329.8695068</ele>
        <time>2010-11-07T09:39:51Z</time>
      </trkpt>
      <trkpt lat="47.57468" lon="7.73705">
        <ele>329.388916</ele>
        <time>2010-11-07T09:40:00Z</time>
      </trkpt>
      <trkpt lat="47.57466" lon="7.73719">
        <ele>328.9083252</ele>
        <time>2010-11-07T09:40:09Z</time>
      </trkpt>
      <trkpt lat="47.57462" lon="7.73736">
        <ele>328.4276123</ele>
        <time>2010-11-07T09:40:19Z</time>
      </trkpt>
      <trkpt lat="47.57458" lon="7.73757">
        <ele>327.4661865</ele>
        <time>2010-11-07T09:40:32Z</time>
      </trkpt>
      <trkpt lat="47.57456" lon="7.73768">
        <ele>327.4661865</ele>
        <time>2010-11-07T09:40:41Z</time>
      </trkpt>
      <trkpt lat="47.5745" lon="7.73792">
        <ele>326.9855957</ele>
        <time>2010-11-07T09:40:55Z</time>
      </trkpt>
      <trkpt lat="47.57444" lon="7.73816">
        <ele>325.5435791</ele>
        <time>2010-11-07T09:41:08Z</time>
      </trkpt>
      <trkpt lat="47.5744" lon="7.73835">
        <ele>325.5435791</ele>
        <time>2010-11-07T09:41:19Z</time>
      </trkpt>
      <trkpt lat="47.57436" lon="7.73852">
        <ele>325.0629883</ele>
        <time>2010-11-07T09:41:31Z</time>
      </trkpt>
      <trkpt lat="47.57431" lon="7.73871">
        <ele>324.1015625</ele>
        <time>2010-11-07T09:41:41Z</time>
      </trkpt>
      <trkpt lat="47.57429" lon="7.73881">
        <ele>324.1015625</ele>
        <time>2010-11-07T09:41:49Z</time>
      </trkpt>
      <trkpt lat="47.57427" lon="7.73902">
        <ele>322.659668</ele>
        <time>2010-11-07T09:42:03Z</time>
      </trkpt>
      <trkpt lat="47.57422" lon="7.73923">
        <ele>321.2177734</ele>
        <time>2010-11-07T09:42:16Z</time>
      </trkpt>
      <trkpt lat="47.57419" lon="7.7394">
        <ele>320.7370605</ele>
        <time>2010-11-07T09:42:27Z</time>
      </trkpt>
      <trkpt lat="47.57413" lon="7.73964">
        <ele>319.2950439</ele>
        <time>2010-11-07T09:42:40Z</time>
      </trkpt>
      <trkpt lat="47.57408" lon="7.73987">
        <ele>318.3336182</ele>
        <time>2010-11-07T09:42:54Z</time>
      </trkpt>
      <trkpt lat="47.57405" lon="7.74007">
        <ele>317.8530273</ele>
        <time>2010-11-07T09:43:08Z</time>
      </trkpt>
      <trkpt lat="47.57401" lon="7.74026">
        <ele>316.4110107</ele>
        <time>2010-11-07T09:43:18Z</time>
      </trkpt>
      <trkpt lat="47.57398" lon="7.74044">
        <ele>316.4110107</ele>
        <time>2010-11-07T09:43:30Z</time>
      </trkpt>
      <trkpt lat="47.57393" lon="7.74064">
        <ele>314.9691162</ele>
        <time>2010-11-07T09:43:41Z</time>
      </trkpt>
      <trkpt lat="47.57391" lon="7.74083">
        <ele>315.4498291</ele>
        <time>2010-11-07T09:43:54Z</time>
      </trkpt>
      <trkpt lat="47.57388" lon="7.741">
        <ele>314.0078125</ele>
        <time>2010-11-07T09:44:04Z</time>
      </trkpt>
      <trkpt lat="47.57387" lon="7.74121">
        <ele>314.0078125</ele>
        <time>2010-11-07T09:44:17Z</time>
      </trkpt>
      <trkpt lat="47.57384" lon="7.74141">
        <ele>314.0078125</ele>
        <time>2010-11-07T09:44:29Z</time>
      </trkpt>
      <trkpt lat="47.57381" lon="7.74159">
        <ele>313.5272217</ele>
        <time>2010-11-07T09:44:40Z</time>
      </trkpt>
      <trkpt lat="47.57381" lon="7.74179">
        <ele>312.5657959</ele>
        <time>2010-11-07T09:44:52Z</time>
      </trkpt>
      <trkpt lat="47.57378" lon="7.74197">
        <ele>312.5657959</ele>
        <time>2010-11-07T09:45:03Z</time>
      </trkpt>
      <trkpt lat="47.57377" lon="7.74212">
        <ele>312.5657959</ele>
        <time>2010-11-07T09:45:12Z</time>
      </trkpt>
      <trkpt lat="47.57376" lon="7.74223">
        <ele>312.0852051</ele>
        <time>2010-11-07T09:45:23Z</time>
      </trkpt>
      <trkpt lat="47.57376" lon="7.74224">
        <ele>312.0852051</ele>
        <time>2010-11-07T09:45:34Z</time>
      </trkpt>
      <trkpt lat="47.57375" lon="7.74225">
        <ele>312.0852051</ele>
        <time>2010-11-07T09:45:35Z</time>
      </trkpt>
      <trkpt lat="47.57366" lon="7.74233">
        <ele>312.0852051</ele>
        <time>2010-11-07T09:45:45Z</time>
      </trkpt>
      <trkpt lat="47.57365" lon="7.7424">
        <ele>311.6044922</ele>
        <time>2010-11-07T09:45:54Z</time>
      </trkpt>
      <trkpt lat="47.5736" lon="7.74251">
        <ele>311.6044922</ele>
        <time>2010-11-07T09:46:03Z</time>
      </trkpt>
      <trkpt lat="47.57359" lon="7.74252">
        <ele>311.6044922</ele>
        <time>2010-11-07T09:46:04Z</time>
      </trkpt>
      <trkpt lat="47.57356" lon="7.7425">
        <ele>311.6044922</ele>
        <time>2010-11-07T09:46:14Z</time>
      </trkpt>
      <trkpt lat="47.57346" lon="7.74248">
        <ele>310.6430664</ele>
        <time>2010-11-07T09:46:26Z</time>
      </trkpt>
      <trkpt lat="47.57335" lon="7.7425">
        <ele>310.6430664</ele>
        <time>2010-11-07T09:46:38Z</time>
      </trkpt>
      <trkpt lat="47.57332" lon="7.74257">
        <ele>310.6430664</ele>
        <time>2010-11-07T09:46:44Z</time>
      </trkpt>
      <trkpt lat="47.57297" lon="7.74393">
        <ele>307.7592773</ele>
        <time>2010-11-07T09:48:25Z</time>
      </trkpt>
      <trkpt lat="47.57294" lon="7.74411">
        <ele>307.7592773</ele>
        <time>2010-11-07T09:48:36Z</time>
      </trkpt>
      <trkpt lat="47.57284" lon="7.74434">
        <ele>307.7592773</ele>
        <time>2010-11-07T09:48:51Z</time>
      </trkpt>
      <trkpt lat="47.57279" lon="7.74443">
        <ele>307.2785645</ele>
        <time>2010-11-07T09:48:59Z</time>
      </trkpt>
      <trkpt lat="47.57276" lon="7.74448">
        <ele>307.7592773</ele>
        <time>2010-11-07T09:49:08Z</time>
      </trkpt>
      <trkpt lat="47.5725" lon="7.74481">
        <ele>306.3172607</ele>
        <time>2010-11-07T09:49:52Z</time>
      </trkpt>
      <trkpt lat="47.57241" lon="7.74491">
        <ele>306.7978516</ele>
        <time>2010-11-07T09:50:01Z</time>
      </trkpt>
      <trkpt lat="47.57228" lon="7.74499">
        <ele>306.7978516</ele>
        <time>2010-11-07T09:50:13Z</time>
      </trkpt>
      <trkpt lat="47.5722" lon="7.74503">
        <ele>306.3172607</ele>
        <time>2010-11-07T09:50:22Z</time>
      </trkpt>
      <trkpt lat="47.57209" lon="7.74509">
        <ele>305.8366699</ele>
        <time>2010-11-07T09:50:33Z</time>
      </trkpt>
      <trkpt lat="47.57207" lon="7.74509">
        <ele>307.2785645</ele>
        <time>2010-11-07T09:50:36Z</time>
      </trkpt>
      <trkpt lat="47.572" lon="7.74513">
        <ele>306.3172607</ele>
        <time>2010-11-07T09:50:45Z</time>
      </trkpt>
      <trkpt lat="47.57194" lon="7.7451">
        <ele>305.8366699</ele>
        <time>2010-11-07T09:50:54Z</time>
      </trkpt>
      <trkpt lat="47.57183" lon="7.74517">
        <ele>306.3172607</ele>
        <time>2010-11-07T09:51:23Z</time>
      </trkpt>
      <trkpt lat="47.57171" lon="7.74519">
        <ele>305.355957</ele>
        <time>2010-11-07T09:51:35Z</time>
      </trkpt>
      <trkpt lat="47.57164" lon="7.74522">
        <ele>305.355957</ele>
        <time>2010-11-07T09:51:44Z</time>
      </trkpt>
      <trkpt lat="47.57153" lon="7.74525">
        <ele>305.355957</ele>
        <time>2010-11-07T09:52:13Z</time>
      </trkpt>
      <trkpt lat="47.57142" lon="7.74534">
        <ele>304.8752441</ele>
        <time>2010-11-07T09:59:44Z</time>
      </trkpt>
      <trkpt lat="47.57127" lon="7.74559">
        <ele>303.4332275</ele>
        <time>2010-11-07T10:00:05Z</time>
      </trkpt>
      <trkpt lat="47.5712" lon="7.74572">
        <ele>304.3946533</ele>
        <time>2010-11-07T10:00:16Z</time>
      </trkpt>
      <trkpt lat="47.57111" lon="7.74585">
        <ele>303.9139404</ele>
        <time>2010-11-07T10:00:27Z</time>
      </trkpt>
      <trkpt lat="47.57102" lon="7.74599">
        <ele>303.9139404</ele>
        <time>2010-11-07T10:00:37Z</time>
      </trkpt>
      <trkpt lat="47.57095" lon="7.74607">
        <ele>304.3946533</ele>
        <time>2010-11-07T10:00:43Z</time>
      </trkpt>
      <trkpt lat="47.57092" lon="7.74621">
        <ele>303.9139404</ele>
        <time>2010-11-07T10:00:53Z</time>
      </trkpt>
      <trkpt lat="47.57091" lon="7.74636">
        <ele>304.3946533</ele>
        <time>2010-11-07T10:01:04Z</time>
      </trkpt>
      <trkpt lat="47.5709" lon="7.74646">
        <ele>303.9139404</ele>
        <time>2010-11-07T10:01:10Z</time>
      </trkpt>
      <trkpt lat="47.57087" lon="7.74728">
        <ele>303.4332275</ele>
        <time>2010-11-07T10:02:01Z</time>
      </trkpt>
      <trkpt lat="47.57087" lon="7.74754">
        <ele>304.8752441</ele>
        <time>2010-11-07T10:02:55Z</time>
      </trkpt>
      <trkpt lat="47.57088" lon="7.74673">
        <ele>302.9525146</ele>
        <time>2010-11-07T10:06:39Z</time>
      </trkpt>
      <trkpt lat="47.57086" lon="7.74647">
        <ele>303.9139404</ele>
        <time>2010-11-07T10:07:03Z</time>
      </trkpt>
      <trkpt lat="47.57084" lon="7.74649">
        <ele>303.4332275</ele>
        <time>2010-11-07T10:07:11Z</time>
      </trkpt>
      <trkpt lat="47.57081" lon="7.74651">
        <ele>303.4332275</ele>
        <time>2010-11-07T10:07:16Z</time>
      </trkpt>
      <trkpt lat="47.57072" lon="7.74655">
        <ele>303.4332275</ele>
        <time>2010-11-07T10:07:26Z</time>
      </trkpt>
      <trkpt lat="47.57029" lon="7.74637">
        <ele>302.4719238</ele>
        <time>2010-11-07T10:08:04Z</time>
      </trkpt>
      <trkpt lat="47.57019" lon="7.7463">
        <ele>302.4719238</ele>
        <time>2010-11-07T10:08:13Z</time>
      </trkpt>
      <trkpt lat="47.56997" lon="7.746">
        <ele>301.991333</ele>
        <time>2010-11-07T10:08:39Z</time>
      </trkpt>
      <trkpt lat="47.56988" lon="7.74591">
        <ele>302.4719238</ele>
        <time>2010-11-07T10:08:55Z</time>
      </trkpt>
      <trkpt lat="47.56996" lon="7.74586">
        <ele>302.9525146</ele>
        <time>2010-11-07T10:09:42Z</time>
      </trkpt>
      <trkpt lat="47.57013" lon="7.74585">
        <ele>303.9139404</ele>
        <time>2010-11-07T10:10:02Z</time>
      </trkpt>
      <trkpt lat="47.57028" lon="7.74587">
        <ele>304.3946533</ele>
        <time>2010-11-07T10:10:22Z</time>
      </trkpt>
      <trkpt lat="47.57037" lon="7.74587">
        <ele>303.9139404</ele>
        <time>2010-11-07T10:10:31Z</time>
      </trkpt>
      <trkpt lat="47.57048" lon="7.74589">
        <ele>305.355957</ele>
        <time>2010-11-07T10:11:33Z</time>
      </trkpt>
      <trkpt lat="47.57055" lon="7.74589">
        <ele>305.355957</ele>
        <time>2010-11-07T10:11:40Z</time>
      </trkpt>
      <trkpt lat="47.57061" lon="7.7459">
        <ele>305.355957</ele>
        <time>2010-11-07T10:11:46Z</time>
      </trkpt>
      <trkpt lat="47.57073" lon="7.74587">
        <ele>305.8366699</ele>
        <time>2010-11-07T10:11:57Z</time>
      </trkpt>
      <trkpt lat="47.57083" lon="7.74586">
        <ele>305.355957</ele>
        <time>2010-11-07T10:12:05Z</time>
      </trkpt>
      <trkpt lat="47.57093" lon="7.74578">
        <ele>305.355957</ele>
        <time>2010-11-07T10:12:13Z</time>
      </trkpt>
      <trkpt lat="47.57098" lon="7.74571">
        <ele>305.355957</ele>
        <time>2010-11-07T10:12:22Z</time>
      </trkpt>
      <trkpt lat="47.57103" lon="7.74563">
        <ele>305.8366699</ele>
        <time>2010-11-07T10:12:31Z</time>
      </trkpt>
      <trkpt lat="47.57111" lon="7.7455">
        <ele>305.355957</ele>
        <time>2010-11-07T10:12:45Z</time>
      </trkpt>
      <trkpt lat="47.57122" lon="7.74533">
        <ele>305.8366699</ele>
        <time>2010-11-07T10:12:58Z</time>
      </trkpt>
      <trkpt lat="47.5713" lon="7.74522">
        <ele>306.3172607</ele>
        <time>2010-11-07T10:13:09Z</time>
      </trkpt>
      <trkpt lat="47.57136" lon="7.74515">
        <ele>304.8752441</ele>
        <time>2010-11-07T10:13:16Z</time>
      </trkpt>
      <trkpt lat="47.57165" lon="7.74478">
        <ele>306.7978516</ele>
        <time>2010-11-07T10:14:03Z</time>
      </trkpt>
      <trkpt lat="47.57166" lon="7.74461">
        <ele>308.720459</ele>
        <time>2010-11-07T10:14:13Z</time>
      </trkpt>
      <trkpt lat="47.57171" lon="7.74445">
        <ele>309.6818848</ele>
        <time>2010-11-07T10:14:25Z</time>
      </trkpt>
      <trkpt lat="47.57173" lon="7.74438">
        <ele>311.1237793</ele>
        <time>2010-11-07T10:14:31Z</time>
      </trkpt>
      <trkpt lat="47.57175" lon="7.74433">
        <ele>311.1237793</ele>
        <time>2010-11-07T10:14:36Z</time>
      </trkpt>
      <trkpt lat="47.57178" lon="7.74421">
        <ele>312.5657959</ele>
        <time>2010-11-07T10:14:45Z</time>
      </trkpt>
      <trkpt lat="47.57181" lon="7.7437">
        <ele>318.3336182</ele>
        <time>2010-11-07T10:15:29Z</time>
      </trkpt>
      <trkpt lat="47.57181" lon="7.74353">
        <ele>320.2563477</ele>
        <time>2010-11-07T10:15:44Z</time>
      </trkpt>
      <trkpt lat="47.57184" lon="7.74336">
        <ele>320.7370605</ele>
        <time>2010-11-07T10:15:56Z</time>
      </trkpt>
      <trkpt lat="47.57185" lon="7.74326">
        <ele>322.1789551</ele>
        <time>2010-11-07T10:16:06Z</time>
      </trkpt>
      <trkpt lat="47.57183" lon="7.74319">
        <ele>323.1403809</ele>
        <time>2010-11-07T10:16:13Z</time>
      </trkpt>
      <trkpt lat="47.5718" lon="7.74323">
        <ele>323.1403809</ele>
        <time>2010-11-07T10:16:19Z</time>
      </trkpt>
      <trkpt lat="47.57171" lon="7.74331">
        <ele>324.5822754</ele>
        <time>2010-11-07T10:16:30Z</time>
      </trkpt>
      <trkpt lat="47.57169" lon="7.74334">
        <ele>325.0629883</ele>
        <time>2010-11-07T10:16:36Z</time>
      </trkpt>
      <trkpt lat="47.57156" lon="7.74356">
        <ele>329.388916</ele>
        <time>2010-11-07T10:17:05Z</time>
      </trkpt>
      <trkpt lat="47.57135" lon="7.74351">
        <ele>338.5214844</ele>
        <time>2010-11-07T10:18:04Z</time>
      </trkpt>
      <trkpt lat="47.5711" lon="7.74313">
        <ele>349.0958252</ele>
        <time>2010-11-07T10:19:40Z</time>
      </trkpt>
      <trkpt lat="47.57099" lon="7.74294">
        <ele>354.8637695</ele>
        <time>2010-11-07T10:20:11Z</time>
      </trkpt>
      <trkpt lat="47.57087" lon="7.74277">
        <ele>360.151123</ele>
        <time>2010-11-07T10:20:53Z</time>
      </trkpt>
      <trkpt lat="47.57057" lon="7.74326">
        <ele>367.8415527</ele>
        <time>2010-11-07T10:22:03Z</time>
      </trkpt>
      <trkpt lat="47.57056" lon="7.74313">
        <ele>370.244873</ele>
        <time>2010-11-07T10:22:17Z</time>
      </trkpt>
      <trkpt lat="47.57055" lon="7.74271">
        <ele>379.3774414</ele>
        <time>2010-11-07T10:23:02Z</time>
      </trkpt>
      <trkpt lat="47.57053" lon="7.74265">
        <ele>380.3387451</ele>
        <time>2010-11-07T10:23:10Z</time>
      </trkpt>
      <trkpt lat="47.57042" lon="7.74218">
        <ele>388.9906006</ele>
        <time>2010-11-07T10:24:17Z</time>
      </trkpt>
      <trkpt lat="47.57042" lon="7.74209">
        <ele>389.9519043</ele>
        <time>2010-11-07T10:24:29Z</time>
      </trkpt>
      <trkpt lat="47.57039" lon="7.74187">
        <ele>395.2391357</ele>
        <time>2010-11-07T10:24:54Z</time>
      </trkpt>
      <trkpt lat="47.57029" lon="7.74122">
        <ele>406.7749023</ele>
        <time>2010-11-07T10:26:18Z</time>
      </trkpt>
      <trkpt lat="47.57028" lon="7.7411">
        <ele>407.7363281</ele>
        <time>2010-11-07T10:26:28Z</time>
      </trkpt>
      <trkpt lat="47.56973" lon="7.74068">
        <ele>424.5594482</ele>
        <time>2010-11-07T10:31:35Z</time>
      </trkpt>
      <trkpt lat="47.56979" lon="7.74052">
        <ele>424.5594482</ele>
        <time>2010-11-07T10:33:09Z</time>
      </trkpt>
      <trkpt lat="47.56985" lon="7.74042">
        <ele>423.5980225</ele>
        <time>2010-11-07T10:33:16Z</time>
      </trkpt>
      <trkpt lat="47.56989" lon="7.74033">
        <ele>424.0787354</ele>
        <time>2010-11-07T10:33:22Z</time>
      </trkpt>
      <trkpt lat="47.56992" lon="7.74022">
        <ele>424.0787354</ele>
        <time>2010-11-07T10:33:30Z</time>
      </trkpt>
      <trkpt lat="47.56993" lon="7.74014">
        <ele>423.1174316</ele>
        <time>2010-11-07T10:33:36Z</time>
      </trkpt>
      <trkpt lat="47.56995" lon="7.74008">
        <ele>423.5980225</ele>
        <time>2010-11-07T10:33:41Z</time>
      </trkpt>
      <trkpt lat="47.56995" lon="7.74">
        <ele>423.5980225</ele>
        <time>2010-11-07T10:33:48Z</time>
      </trkpt>
      <trkpt lat="47.56999" lon="7.73985">
        <ele>423.1174316</ele>
        <time>2010-11-07T10:33:59Z</time>
      </trkpt>
      <trkpt lat="47.57002" lon="7.73981">
        <ele>423.1174316</ele>
        <time>2010-11-07T10:34:03Z</time>
      </trkpt>
      <trkpt lat="47.57007" lon="7.73957">
        <ele>423.1174316</ele>
        <time>2010-11-07T10:34:14Z</time>
      </trkpt>
      <trkpt lat="47.57012" lon="7.73945">
        <ele>423.1174316</ele>
        <time>2010-11-07T10:34:22Z</time>
      </trkpt>
      <trkpt lat="47.57015" lon="7.73931">
        <ele>423.1174316</ele>
        <time>2010-11-07T10:34:30Z</time>
      </trkpt>
      <trkpt lat="47.5702" lon="7.73914">
        <ele>423.5980225</ele>
        <time>2010-11-07T10:34:40Z</time>
      </trkpt>
      <trkpt lat="47.57023" lon="7.73901">
        <ele>423.5980225</ele>
        <time>2010-11-07T10:34:49Z</time>
      </trkpt>
      <trkpt lat="47.57026" lon="7.73886">
        <ele>423.5980225</ele>
        <time>2010-11-07T10:34:59Z</time>
      </trkpt>
      <trkpt lat="47.57029" lon="7.73869">
        <ele>424.0787354</ele>
        <time>2010-11-07T10:35:11Z</time>
      </trkpt>
      <trkpt lat="47.57031" lon="7.73854">
        <ele>424.5594482</ele>
        <time>2010-11-07T10:35:19Z</time>
      </trkpt>
      <trkpt lat="47.57038" lon="7.73805">
        <ele>425.520752</ele>
        <time>2010-11-07T10:35:50Z</time>
      </trkpt>
      <trkpt lat="47.57051" lon="7.73706">
        <ele>427.4433594</ele>
        <time>2010-11-07T10:36:52Z</time>
      </trkpt>
      <trkpt lat="47.5705" lon="7.73687">
        <ele>427.9239502</ele>
        <time>2010-11-07T10:37:01Z</time>
      </trkpt>
      <trkpt lat="47.5705" lon="7.73673">
        <ele>428.4046631</ele>
        <time>2010-11-07T10:37:10Z</time>
      </trkpt>
      <trkpt lat="47.5705" lon="7.73658">
        <ele>428.885376</ele>
        <time>2010-11-07T10:37:19Z</time>
      </trkpt>
      <trkpt lat="47.5705" lon="7.73649">
        <ele>428.885376</ele>
        <time>2010-11-07T10:37:26Z</time>
      </trkpt>
      <trkpt lat="47.57049" lon="7.73637">
        <ele>428.885376</ele>
        <time>2010-11-07T10:37:33Z</time>
      </trkpt>
      <trkpt lat="47.57048" lon="7.73623">
        <ele>429.3659668</ele>
        <time>2010-11-07T10:37:41Z</time>
      </trkpt>
      <trkpt lat="47.57053" lon="7.73592">
        <ele>430.3272705</ele>
        <time>2010-11-07T10:38:00Z</time>
      </trkpt>
      <trkpt lat="47.57054" lon="7.73562">
        <ele>431.2885742</ele>
        <time>2010-11-07T10:38:20Z</time>
      </trkpt>
      <trkpt lat="47.57055" lon="7.73535">
        <ele>431.769165</ele>
        <time>2010-11-07T10:38:36Z</time>
      </trkpt>
      <trkpt lat="47.57059" lon="7.73496">
        <ele>432.25</ele>
        <time>2010-11-07T10:38:57Z</time>
      </trkpt>
      <trkpt lat="47.57059" lon="7.73479">
        <ele>433.2113037</ele>
        <time>2010-11-07T10:39:06Z</time>
      </trkpt>
      <trkpt lat="47.57058" lon="7.73466">
        <ele>433.2113037</ele>
        <time>2010-11-07T10:39:13Z</time>
      </trkpt>
      <trkpt lat="47.5706" lon="7.73429">
        <ele>433.6918945</ele>
        <time>2010-11-07T10:39:37Z</time>
      </trkpt>
      <trkpt lat="47.57072" lon="7.7336">
        <ele>433.6918945</ele>
        <time>2010-11-07T10:40:15Z</time>
      </trkpt>
      <trkpt lat="47.57075" lon="7.73347">
        <ele>433.6918945</ele>
        <time>2010-11-07T10:40:21Z</time>
      </trkpt>
      <trkpt lat="47.57075" lon="7.7333">
        <ele>433.2113037</ele>
        <time>2010-11-07T10:40:30Z</time>
      </trkpt>
      <trkpt lat="47.57078" lon="7.73306">
        <ele>432.7307129</ele>
        <time>2010-11-07T10:40:45Z</time>
      </trkpt>
      <trkpt lat="47.57081" lon="7.73292">
        <ele>432.7307129</ele>
        <time>2010-11-07T10:40:54Z</time>
      </trkpt>
      <trkpt lat="47.57088" lon="7.73231">
        <ele>430.8079834</ele>
        <time>2010-11-07T10:41:31Z</time>
      </trkpt>
      <trkpt lat="47.57091" lon="7.73214">
        <ele>430.3272705</ele>
        <time>2010-11-07T10:41:39Z</time>
      </trkpt>
      <trkpt lat="47.57098" lon="7.73199">
        <ele>430.3272705</ele>
        <time>2010-11-07T10:41:47Z</time>
      </trkpt>
      <trkpt lat="47.57103" lon="7.73187">
        <ele>428.885376</ele>
        <time>2010-11-07T10:41:54Z</time>
      </trkpt>
      <trkpt lat="47.57105" lon="7.73184">
        <ele>428.885376</ele>
        <time>2010-11-07T10:41:56Z</time>
      </trkpt>
      <trkpt lat="47.57115" lon="7.73172">
        <ele>427.9239502</ele>
        <time>2010-11-07T10:42:06Z</time>
      </trkpt>
      <trkpt lat="47.57123" lon="7.73167">
        <ele>427.4433594</ele>
        <time>2010-11-07T10:42:13Z</time>
      </trkpt>
      <trkpt lat="47.57135" lon="7.73163">
        <ele>427.4433594</ele>
        <time>2010-11-07T10:42:21Z</time>
      </trkpt>
      <trkpt lat="47.57149" lon="7.73162">
        <ele>427.9239502</ele>
        <time>2010-11-07T10:42:31Z</time>
      </trkpt>
      <trkpt lat="47.57159" lon="7.7316">
        <ele>426.9627686</ele>
        <time>2010-11-07T10:42:41Z</time>
      </trkpt>
      <trkpt lat="47.57178" lon="7.73145">
        <ele>426.4820557</ele>
        <time>2010-11-07T10:43:02Z</time>
      </trkpt>
      <trkpt lat="47.57197" lon="7.73126">
        <ele>425.520752</ele>
        <time>2010-11-07T10:43:21Z</time>
      </trkpt>
      <trkpt lat="47.57203" lon="7.73122">
        <ele>425.520752</ele>
        <time>2010-11-07T10:43:28Z</time>
      </trkpt>
      <trkpt lat="47.57214" lon="7.73118">
        <ele>424.5594482</ele>
        <time>2010-11-07T10:43:39Z</time>
      </trkpt>
      <trkpt lat="47.57223" lon="7.73112">
        <ele>424.0787354</ele>
        <time>2010-11-07T10:43:45Z</time>
      </trkpt>
      <trkpt lat="47.57231" lon="7.73106">
        <ele>423.5980225</ele>
        <time>2010-11-07T10:43:53Z</time>
      </trkpt>
      <trkpt lat="47.57241" lon="7.73098">
        <ele>423.1174316</ele>
        <time>2010-11-07T10:44:02Z</time>
      </trkpt>
      <trkpt lat="47.57251" lon="7.73088">
        <ele>421.1948242</ele>
        <time>2010-11-07T10:44:14Z</time>
      </trkpt>
      <trkpt lat="47.57262" lon="7.73077">
        <ele>420.7141113</ele>
        <time>2010-11-07T10:44:24Z</time>
      </trkpt>
      <trkpt lat="47.57271" lon="7.73067">
        <ele>420.7141113</ele>
        <time>2010-11-07T10:44:33Z</time>
      </trkpt>
      <trkpt lat="47.57278" lon="7.73061">
        <ele>420.2333984</ele>
        <time>2010-11-07T10:44:39Z</time>
      </trkpt>
      <trkpt lat="47.5733" lon="7.73013">
        <ele>417.8302002</ele>
        <time>2010-11-07T10:45:24Z</time>
      </trkpt>
      <trkpt lat="47.57338" lon="7.73008">
        <ele>417.3496094</ele>
        <time>2010-11-07T10:45:31Z</time>
      </trkpt>
      <trkpt lat="47.57345" lon="7.72998">
        <ele>416.3881836</ele>
        <time>2010-11-07T10:45:39Z</time>
      </trkpt>
      <trkpt lat="47.57354" lon="7.7299">
        <ele>416.3881836</ele>
        <time>2010-11-07T10:45:48Z</time>
      </trkpt>
      <trkpt lat="47.57381" lon="7.72964">
        <ele>415.4268799</ele>
        <time>2010-11-07T10:46:14Z</time>
      </trkpt>
      <trkpt lat="47.5739" lon="7.72956">
        <ele>413.9848633</ele>
        <time>2010-11-07T10:46:22Z</time>
      </trkpt>
      <trkpt lat="47.57406" lon="7.72939">
        <ele>413.5042725</ele>
        <time>2010-11-07T10:46:38Z</time>
      </trkpt>
      <trkpt lat="47.57414" lon="7.72931">
        <ele>413.0235596</ele>
        <time>2010-11-07T10:46:46Z</time>
      </trkpt>
      <trkpt lat="47.57459" lon="7.72878">
        <ele>408.6976318</ele>
        <time>2010-11-07T10:47:35Z</time>
      </trkpt>
      <trkpt lat="47.57466" lon="7.72869">
        <ele>408.217041</ele>
        <time>2010-11-07T10:47:41Z</time>
      </trkpt>
      <trkpt lat="47.57474" lon="7.72862">
        <ele>408.6976318</ele>
        <time>2010-11-07T10:47:50Z</time>
      </trkpt>
      <trkpt lat="47.57482" lon="7.72849">
        <ele>409.1783447</ele>
        <time>2010-11-07T10:48:00Z</time>
      </trkpt>
      <trkpt lat="47.57489" lon="7.72841">
        <ele>410.1396484</ele>
        <time>2010-11-07T10:48:08Z</time>
      </trkpt>
      <trkpt lat="47.57497" lon="7.72829">
        <ele>410.6202393</ele>
        <time>2010-11-07T10:48:19Z</time>
      </trkpt>
      <trkpt lat="47.57501" lon="7.72824">
        <ele>411.581665</ele>
        <time>2010-11-07T10:48:25Z</time>
      </trkpt>
      <trkpt lat="47.5752" lon="7.72791">
        <ele>412.0622559</ele>
        <time>2010-11-07T10:48:54Z</time>
      </trkpt>
      <trkpt lat="47.57533" lon="7.72755">
        <ele>413.5042725</ele>
        <time>2010-11-07T10:49:19Z</time>
      </trkpt>
      <trkpt lat="47.57544" lon="7.7271">
        <ele>415.9074707</ele>
        <time>2010-11-07T10:49:54Z</time>
      </trkpt>
      <trkpt lat="47.5756" lon="7.72629">
        <ele>415.9074707</ele>
        <time>2010-11-07T10:50:41Z</time>
      </trkpt>
      <trkpt lat="47.57561" lon="7.72623">
        <ele>415.9074707</ele>
        <time>2010-11-07T10:50:44Z</time>
      </trkpt>
      <trkpt lat="47.57562" lon="7.72613">
        <ele>416.3881836</ele>
        <time>2010-11-07T10:50:50Z</time>
      </trkpt>
      <trkpt lat="47.57565" lon="7.72601">
        <ele>416.8688965</ele>
        <time>2010-11-07T10:50:58Z</time>
      </trkpt>
      <trkpt lat="47.57564" lon="7.72587">
        <ele>416.3881836</ele>
        <time>2010-11-07T10:51:07Z</time>
      </trkpt>
      <trkpt lat="47.57563" lon="7.72583">
        <ele>416.8688965</ele>
        <time>2010-11-07T10:51:10Z</time>
      </trkpt>
      <trkpt lat="47.57562" lon="7.72574">
        <ele>417.3496094</ele>
        <time>2010-11-07T10:51:17Z</time>
      </trkpt>
      <trkpt lat="47.57558" lon="7.72559">
        <ele>417.8302002</ele>
        <time>2010-11-07T10:51:26Z</time>
      </trkpt>
      <trkpt lat="47.57553" lon="7.72541">
        <ele>418.7915039</ele>
        <time>2010-11-07T10:51:38Z</time>
      </trkpt>
      <trkpt lat="47.5755" lon="7.72529">
        <ele>419.2722168</ele>
        <time>2010-11-07T10:51:48Z</time>
      </trkpt>
      <trkpt lat="47.57549" lon="7.72521">
        <ele>420.7141113</ele>
        <time>2010-11-07T10:51:56Z</time>
      </trkpt>
      <trkpt lat="47.57544" lon="7.7251">
        <ele>421.1948242</ele>
        <time>2010-11-07T10:52:02Z</time>
      </trkpt>
      <trkpt lat="47.57537" lon="7.72501">
        <ele>421.675415</ele>
        <time>2010-11-07T10:52:07Z</time>
      </trkpt>
      <trkpt lat="47.57535" lon="7.72495">
        <ele>422.1560059</ele>
        <time>2010-11-07T10:52:10Z</time>
      </trkpt>
      <trkpt lat="47.57528" lon="7.72483">
        <ele>423.1174316</ele>
        <time>2010-11-07T10:52:19Z</time>
      </trkpt>
      <trkpt lat="47.57523" lon="7.72474">
        <ele>424.0787354</ele>
        <time>2010-11-07T10:52:27Z</time>
      </trkpt>
      <trkpt lat="47.57518" lon="7.72465">
        <ele>424.5594482</ele>
        <time>2010-11-07T10:52:34Z</time>
      </trkpt>
      <trkpt lat="47.57516" lon="7.72458">
        <ele>425.520752</ele>
        <time>2010-11-07T10:52:41Z</time>
      </trkpt>
      <trkpt lat="47.57515" lon="7.72456">
        <ele>426.4820557</ele>
        <time>2010-11-07T10:52:44Z</time>
      </trkpt>
      <trkpt lat="47.57513" lon="7.7245">
        <ele>426.9627686</ele>
        <time>2010-11-07T10:52:50Z</time>
      </trkpt>
      <trkpt lat="47.57507" lon="7.72443">
        <ele>428.4046631</ele>
        <time>2010-11-07T10:52:56Z</time>
      </trkpt>
      <trkpt lat="47.57504" lon="7.7244">
        <ele>428.4046631</ele>
        <time>2010-11-07T10:53:02Z</time>
      </trkpt>
      <trkpt lat="47.575" lon="7.72432">
        <ele>428.4046631</ele>
        <time>2010-11-07T10:53:08Z</time>
      </trkpt>
      <trkpt lat="47.57497" lon="7.72422">
        <ele>428.4046631</ele>
        <time>2010-11-07T10:53:16Z</time>
      </trkpt>
      <trkpt lat="47.57497" lon="7.7242">
        <ele>428.4046631</ele>
        <time>2010-11-07T10:53:18Z</time>
      </trkpt>
      <trkpt lat="47.57478" lon="7.7237">
        <ele>433.6918945</ele>
        <time>2010-11-07T10:54:04Z</time>
      </trkpt>
      <trkpt lat="47.57473" lon="7.72367">
        <ele>435.614502</ele>
        <time>2010-11-07T10:54:16Z</time>
      </trkpt>
      <trkpt lat="47.5746" lon="7.72357">
        <ele>439.4597168</ele>
        <time>2010-11-07T10:54:40Z</time>
      </trkpt>
      <trkpt lat="47.57457" lon="7.72352">
        <ele>439.9404297</ele>
        <time>2010-11-07T10:54:46Z</time>
      </trkpt>
      <trkpt lat="47.57456" lon="7.72352">
        <ele>440.4212646</ele>
        <time>2010-11-07T10:54:47Z</time>
      </trkpt>
      <trkpt lat="47.57452" lon="7.72345">
        <ele>441.3824463</ele>
        <time>2010-11-07T10:54:54Z</time>
      </trkpt>
      <trkpt lat="47.57449" lon="7.72342">
        <ele>441.8631592</ele>
        <time>2010-11-07T10:55:00Z</time>
      </trkpt>
      <trkpt lat="47.57445" lon="7.72335">
        <ele>442.8244629</ele>
        <time>2010-11-07T10:55:07Z</time>
      </trkpt>
      <trkpt lat="47.5744" lon="7.72327">
        <ele>444.2664795</ele>
        <time>2010-11-07T10:55:16Z</time>
      </trkpt>
      <trkpt lat="47.57437" lon="7.72322">
        <ele>444.7470703</ele>
        <time>2010-11-07T10:55:21Z</time>
      </trkpt>
      <trkpt lat="47.57433" lon="7.72319">
        <ele>445.708374</ele>
        <time>2010-11-07T10:55:28Z</time>
      </trkpt>
      <trkpt lat="47.57428" lon="7.72317">
        <ele>445.708374</ele>
        <time>2010-11-07T10:55:34Z</time>
      </trkpt>
      <trkpt lat="47.57413" lon="7.72313">
        <ele>447.6309814</ele>
        <time>2010-11-07T10:55:56Z</time>
      </trkpt>
      <trkpt lat="47.5741" lon="7.72309">
        <ele>448.1118164</ele>
        <time>2010-11-07T10:56:01Z</time>
      </trkpt>
      <trkpt lat="47.57403" lon="7.72298">
        <ele>450.5150146</ele>
        <time>2010-11-07T10:56:12Z</time>
      </trkpt>
      <trkpt lat="47.57398" lon="7.72293">
        <ele>450.5150146</ele>
        <time>2010-11-07T10:56:21Z</time>
      </trkpt>
      <trkpt lat="47.57394" lon="7.72289">
        <ele>451.4763184</ele>
        <time>2010-11-07T10:56:28Z</time>
      </trkpt>
      <trkpt lat="47.57389" lon="7.72285">
        <ele>451.9570313</ele>
        <time>2010-11-07T10:56:34Z</time>
      </trkpt>
      <trkpt lat="47.57386" lon="7.72277">
        <ele>452.9182129</ele>
        <time>2010-11-07T10:56:41Z</time>
      </trkpt>
      <trkpt lat="47.57372" lon="7.72263">
        <ele>455.3215332</ele>
        <time>2010-11-07T10:57:04Z</time>
      </trkpt>
      <trkpt lat="47.57369" lon="7.72254">
        <ele>456.282959</ele>
        <time>2010-11-07T10:57:12Z</time>
      </trkpt>
      <trkpt lat="47.57359" lon="7.72245">
        <ele>458.2055664</ele>
        <time>2010-11-07T10:57:26Z</time>
      </trkpt>
      <trkpt lat="47.57356" lon="7.72241">
        <ele>459.1668701</ele>
        <time>2010-11-07T10:57:32Z</time>
      </trkpt>
      <trkpt lat="47.57351" lon="7.72236">
        <ele>460.1281738</ele>
        <time>2010-11-07T10:57:39Z</time>
      </trkpt>
      <trkpt lat="47.57324" lon="7.72202">
        <ele>466.376709</ele>
        <time>2010-11-07T10:58:28Z</time>
      </trkpt>
      <trkpt lat="47.57326" lon="7.72183">
        <ele>466.8574219</ele>
        <time>2010-11-07T10:58:42Z</time>
      </trkpt>
      <trkpt lat="47.57337" lon="7.7217">
        <ele>468.2993164</ele>
        <time>2010-11-07T10:59:01Z</time>
      </trkpt>
      <trkpt lat="47.57348" lon="7.72172">
        <ele>468.2993164</ele>
        <time>2010-11-07T10:59:07Z</time>
      </trkpt>
      <trkpt lat="47.57358" lon="7.7217">
        <ele>468.2993164</ele>
        <time>2010-11-07T10:59:14Z</time>
      </trkpt>
      <trkpt lat="47.5736" lon="7.7217">
        <ele>468.2993164</ele>
        <time>2010-11-07T10:59:15Z</time>
      </trkpt>
      <trkpt lat="47.57371" lon="7.72174">
        <ele>469.2607422</ele>
        <time>2010-11-07T10:59:21Z</time>
      </trkpt>
      <trkpt lat="47.57373" lon="7.72176">
        <ele>468.7800293</ele>
        <time>2010-11-07T10:59:29Z</time>
      </trkpt>
      <trkpt lat="47.57384" lon="7.72179">
        <ele>469.2607422</ele>
        <time>2010-11-07T10:59:40Z</time>
      </trkpt>
      <trkpt lat="47.57391" lon="7.72185">
        <ele>468.7800293</ele>
        <time>2010-11-07T10:59:46Z</time>
      </trkpt>
      <trkpt lat="47.574" lon="7.72191">
        <ele>469.2607422</ele>
        <time>2010-11-07T10:59:57Z</time>
      </trkpt>
      <trkpt lat="47.57423" lon="7.72205">
        <ele>470.2219238</ele>
        <time>2010-11-07T11:00:12Z</time>
      </trkpt>
      <trkpt lat="47.57438" lon="7.7221">
        <ele>472.6253662</ele>
        <time>2010-11-07T11:00:42Z</time>
      </trkpt>
      <trkpt lat="47.57458" lon="7.72222">
        <ele>474.0672607</ele>
        <time>2010-11-07T11:01:01Z</time>
      </trkpt>
      <trkpt lat="47.5746" lon="7.72216">
        <ele>475.0286865</ele>
        <time>2010-11-07T11:01:13Z</time>
      </trkpt>
      <trkpt lat="47.57469" lon="7.72211">
        <ele>475.0286865</ele>
        <time>2010-11-07T11:01:21Z</time>
      </trkpt>
      <trkpt lat="47.57471" lon="7.7221">
        <ele>476.9512939</ele>
        <time>2010-11-07T11:01:30Z</time>
      </trkpt>
      <trkpt lat="47.57474" lon="7.72203">
        <ele>476.9512939</ele>
        <time>2010-11-07T11:01:40Z</time>
      </trkpt>
      <trkpt lat="47.57474" lon="7.72199">
        <ele>477.4318848</ele>
        <time>2010-11-07T11:01:46Z</time>
      </trkpt>
      <trkpt lat="47.57479" lon="7.72196">
        <ele>477.9124756</ele>
        <time>2010-11-07T11:01:55Z</time>
      </trkpt>
      <trkpt lat="47.57483" lon="7.72191">
        <ele>478.8739014</ele>
        <time>2010-11-07T11:02:02Z</time>
      </trkpt>
      <trkpt lat="47.57487" lon="7.72185">
        <ele>480.315918</ele>
        <time>2010-11-07T11:02:10Z</time>
      </trkpt>
      <trkpt lat="47.57489" lon="7.72177">
        <ele>482.2385254</ele>
        <time>2010-11-07T11:02:18Z</time>
      </trkpt>
      <trkpt lat="47.57493" lon="7.72173">
        <ele>482.2385254</ele>
        <time>2010-11-07T11:02:25Z</time>
      </trkpt>
      <trkpt lat="47.57495" lon="7.72161">
        <ele>483.6804199</ele>
        <time>2010-11-07T11:02:35Z</time>
      </trkpt>
      <trkpt lat="47.57498" lon="7.72155">
        <ele>484.1611328</ele>
        <time>2010-11-07T11:02:42Z</time>
      </trkpt>
      <trkpt lat="47.57502" lon="7.7215">
        <ele>484.1611328</ele>
        <time>2010-11-07T11:02:49Z</time>
      </trkpt>
      <trkpt lat="47.57507" lon="7.72143">
        <ele>485.1224365</ele>
        <time>2010-11-07T11:02:57Z</time>
      </trkpt>
      <trkpt lat="47.57518" lon="7.72133">
        <ele>487.0450439</ele>
        <time>2010-11-07T11:03:12Z</time>
      </trkpt>
      <trkpt lat="47.57518" lon="7.72125">
        <ele>488.0064697</ele>
        <time>2010-11-07T11:03:19Z</time>
      </trkpt>
      <trkpt lat="47.57518" lon="7.72116">
        <ele>488.4871826</ele>
        <time>2010-11-07T11:03:29Z</time>
      </trkpt>
      <trkpt lat="47.57516" lon="7.72107">
        <ele>489.4483643</ele>
        <time>2010-11-07T11:03:37Z</time>
      </trkpt>
      <trkpt lat="47.57515" lon="7.72101">
        <ele>489.9290771</ele>
        <time>2010-11-07T11:03:43Z</time>
      </trkpt>
      <trkpt lat="47.57514" lon="7.72091">
        <ele>490.40979</ele>
        <time>2010-11-07T11:03:51Z</time>
      </trkpt>
      <trkpt lat="47.57512" lon="7.7208">
        <ele>490.8903809</ele>
        <time>2010-11-07T11:04:02Z</time>
      </trkpt>
      <trkpt lat="47.57509" lon="7.72076">
        <ele>490.40979</ele>
        <time>2010-11-07T11:04:08Z</time>
      </trkpt>
      <trkpt lat="47.57505" lon="7.72068">
        <ele>490.8903809</ele>
        <time>2010-11-07T11:04:15Z</time>
      </trkpt>
      <trkpt lat="47.57499" lon="7.72065">
        <ele>491.3709717</ele>
        <time>2010-11-07T11:04:20Z</time>
      </trkpt>
      <trkpt lat="47.57491" lon="7.72062">
        <ele>491.8516846</ele>
        <time>2010-11-07T11:04:26Z</time>
      </trkpt>
      <trkpt lat="47.57485" lon="7.7206">
        <ele>492.3323975</ele>
        <time>2010-11-07T11:04:32Z</time>
      </trkpt>
      <trkpt lat="47.57482" lon="7.7206">
        <ele>492.3323975</ele>
        <time>2010-11-07T11:04:39Z</time>
      </trkpt>
      <trkpt lat="47.5748" lon="7.72057">
        <ele>492.3323975</ele>
        <time>2010-11-07T11:04:44Z</time>
      </trkpt>
      <trkpt lat="47.57477" lon="7.72052">
        <ele>492.3323975</ele>
        <time>2010-11-07T11:04:49Z</time>
      </trkpt>
      <trkpt lat="47.57467" lon="7.72049">
        <ele>491.8516846</ele>
        <time>2010-11-07T11:05:00Z</time>
      </trkpt>
      <trkpt lat="47.57462" lon="7.72042">
        <ele>493.2935791</ele>
        <time>2010-11-07T11:05:23Z</time>
      </trkpt>
      <trkpt lat="47.57453" lon="7.72034">
        <ele>492.8129883</ele>
        <time>2010-11-07T11:08:15Z</time>
      </trkpt>
      <trkpt lat="47.57443" lon="7.72035">
        <ele>492.8129883</ele>
        <time>2010-11-07T11:08:23Z</time>
      </trkpt>
      <trkpt lat="47.57431" lon="7.72028">
        <ele>492.8129883</ele>
        <time>2010-11-07T11:08:34Z</time>
      </trkpt>
      <trkpt lat="47.57425" lon="7.72025">
        <ele>492.8129883</ele>
        <time>2010-11-07T11:08:41Z</time>
      </trkpt>
      <trkpt lat="47.57419" lon="7.72023">
        <ele>493.2935791</ele>
        <time>2010-11-07T11:08:47Z</time>
      </trkpt>
      <trkpt lat="47.57409" lon="7.72016">
        <ele>493.2935791</ele>
        <time>2010-11-07T11:09:02Z</time>
      </trkpt>
      <trkpt lat="47.57395" lon="7.72">
        <ele>493.2935791</ele>
        <time>2010-11-07T11:09:13Z</time>
      </trkpt>
      <trkpt lat="47.57385" lon="7.71997">
        <ele>494.2550049</ele>
        <time>2010-11-07T11:09:20Z</time>
      </trkpt>
      <trkpt lat="47.5738" lon="7.71993">
        <ele>493.2935791</ele>
        <time>2010-11-07T11:09:26Z</time>
      </trkpt>
      <trkpt lat="47.57375" lon="7.7199">
        <ele>494.2550049</ele>
        <time>2010-11-07T11:09:32Z</time>
      </trkpt>
      <trkpt lat="47.57371" lon="7.71988">
        <ele>494.2550049</ele>
        <time>2010-11-07T11:09:37Z</time>
      </trkpt>
      <trkpt lat="47.57363" lon="7.7198">
        <ele>494.2550049</ele>
        <time>2010-11-07T11:09:45Z</time>
      </trkpt>
      <trkpt lat="47.57353" lon="7.71978">
        <ele>494.7355957</ele>
        <time>2010-11-07T11:09:51Z</time>
      </trkpt>
      <trkpt lat="47.57353" lon="7.71977">
        <ele>494.2550049</ele>
        <time>2010-11-07T11:09:52Z</time>
      </trkpt>
      <trkpt lat="47.57344" lon="7.71981">
        <ele>494.2550049</ele>
        <time>2010-11-07T11:09:58Z</time>
      </trkpt>
      <trkpt lat="47.57342" lon="7.71981">
        <ele>494.7355957</ele>
        <time>2010-11-07T11:10:02Z</time>
      </trkpt>
      <trkpt lat="47.57331" lon="7.71983">
        <ele>495.6968994</ele>
        <time>2010-11-07T11:10:11Z</time>
      </trkpt>
      <trkpt lat="47.57324" lon="7.71977">
        <ele>495.6968994</ele>
        <time>2010-11-07T11:10:20Z</time>
      </trkpt>
      <trkpt lat="47.57321" lon="7.71976">
        <ele>496.6583252</ele>
        <time>2010-11-07T11:10:26Z</time>
      </trkpt>
      <trkpt lat="47.57316" lon="7.71976">
        <ele>496.1777344</ele>
        <time>2010-11-07T11:10:30Z</time>
      </trkpt>
      <trkpt lat="47.57307" lon="7.71974">
        <ele>497.138916</ele>
        <time>2010-11-07T11:10:38Z</time>
      </trkpt>
      <trkpt lat="47.573" lon="7.71975">
        <ele>497.6196289</ele>
        <time>2010-11-07T11:10:45Z</time>
      </trkpt>
      <trkpt lat="47.57294" lon="7.71974">
        <ele>498.1003418</ele>
        <time>2010-11-07T11:10:51Z</time>
      </trkpt>
      <trkpt lat="47.57288" lon="7.7197">
        <ele>498.5809326</ele>
        <time>2010-11-07T11:11:00Z</time>
      </trkpt>
      <trkpt lat="47.57283" lon="7.71967">
        <ele>499.5422363</ele>
        <time>2010-11-07T11:11:04Z</time>
      </trkpt>
      <trkpt lat="47.57265" lon="7.71955">
        <ele>500.50354</ele>
        <time>2010-11-07T11:11:14Z</time>
      </trkpt>
      <trkpt lat="47.57258" lon="7.7195">
        <ele>500.9841309</ele>
        <time>2010-11-07T11:11:20Z</time>
      </trkpt>
      <trkpt lat="47.57255" lon="7.71939">
        <ele>501.9455566</ele>
        <time>2010-11-07T11:11:30Z</time>
      </trkpt>
      <trkpt lat="47.57253" lon="7.71922">
        <ele>501.9455566</ele>
        <time>2010-11-07T11:11:38Z</time>
      </trkpt>
      <trkpt lat="47.5725" lon="7.71913">
        <ele>502.4261475</ele>
        <time>2010-11-07T11:11:43Z</time>
      </trkpt>
      <trkpt lat="47.57248" lon="7.71908">
        <ele>502.4261475</ele>
        <time>2010-11-07T11:11:49Z</time>
      </trkpt>
      <trkpt lat="47.57248" lon="7.71902">
        <ele>502.9067383</ele>
        <time>2010-11-07T11:11:52Z</time>
      </trkpt>
      <trkpt lat="47.57244" lon="7.71892">
        <ele>502.9067383</ele>
        <time>2010-11-07T11:11:58Z</time>
      </trkpt>
      <trkpt lat="47.5724" lon="7.71882">
        <ele>503.3874512</ele>
        <time>2010-11-07T11:12:06Z</time>
      </trkpt>
      <trkpt lat="47.57238" lon="7.71875">
        <ele>503.8681641</ele>
        <time>2010-11-07T11:12:10Z</time>
      </trkpt>
      <trkpt lat="47.57236" lon="7.71864">
        <ele>504.8294678</ele>
        <time>2010-11-07T11:12:17Z</time>
      </trkpt>
      <trkpt lat="47.57236" lon="7.71857">
        <ele>503.8681641</ele>
        <time>2010-11-07T11:12:22Z</time>
      </trkpt>
      <trkpt lat="47.57228" lon="7.7185">
        <ele>504.348877</ele>
        <time>2010-11-07T11:12:29Z</time>
      </trkpt>
      <trkpt lat="47.57223" lon="7.71843">
        <ele>504.348877</ele>
        <time>2010-11-07T11:12:35Z</time>
      </trkpt>
      <trkpt lat="47.5722" lon="7.71839">
        <ele>504.8294678</ele>
        <time>2010-11-07T11:12:40Z</time>
      </trkpt>
      <trkpt lat="47.5722" lon="7.71834">
        <ele>505.3101807</ele>
        <time>2010-11-07T11:12:43Z</time>
      </trkpt>
      <trkpt lat="47.57223" lon="7.71814">
        <ele>505.3101807</ele>
        <time>2010-11-07T11:12:52Z</time>
      </trkpt>
      <trkpt lat="47.57217" lon="7.71802">
        <ele>506.2714844</ele>
        <time>2010-11-07T11:13:00Z</time>
      </trkpt>
      <trkpt lat="47.57212" lon="7.71785">
        <ele>507.2327881</ele>
        <time>2010-11-07T11:13:10Z</time>
      </trkpt>
      <trkpt lat="47.57213" lon="7.71775">
        <ele>507.2327881</ele>
        <time>2010-11-07T11:13:17Z</time>
      </trkpt>
      <trkpt lat="47.57212" lon="7.71761">
        <ele>508.1940918</ele>
        <time>2010-11-07T11:13:27Z</time>
      </trkpt>
      <trkpt lat="47.57215" lon="7.71753">
        <ele>508.6746826</ele>
        <time>2010-11-07T11:13:34Z</time>
      </trkpt>
      <trkpt lat="47.57217" lon="7.71746">
        <ele>509.6361084</ele>
        <time>2010-11-07T11:13:40Z</time>
      </trkpt>
      <trkpt lat="47.57215" lon="7.71736">
        <ele>511.5587158</ele>
        <time>2010-11-07T11:13:49Z</time>
      </trkpt>
      <trkpt lat="47.57206" lon="7.7172">
        <ele>512.0394287</ele>
        <time>2010-11-07T11:14:01Z</time>
      </trkpt>
      <trkpt lat="47.57205" lon="7.71718">
        <ele>512.5200195</ele>
        <time>2010-11-07T11:14:02Z</time>
      </trkpt>
      <trkpt lat="47.57204" lon="7.71706">
        <ele>513.4814453</ele>
        <time>2010-11-07T11:14:10Z</time>
      </trkpt>
      <trkpt lat="47.57202" lon="7.71697">
        <ele>513.9620361</ele>
        <time>2010-11-07T11:14:16Z</time>
      </trkpt>
      <trkpt lat="47.57199" lon="7.71693">
        <ele>515.4040527</ele>
        <time>2010-11-07T11:14:24Z</time>
      </trkpt>
      <trkpt lat="47.572" lon="7.71676">
        <ele>515.8846436</ele>
        <time>2010-11-07T11:14:38Z</time>
      </trkpt>
      <trkpt lat="47.572" lon="7.71666">
        <ele>516.3652344</ele>
        <time>2010-11-07T11:14:44Z</time>
      </trkpt>
      <trkpt lat="47.57189" lon="7.71641">
        <ele>517.3266602</ele>
        <time>2010-11-07T11:15:01Z</time>
      </trkpt>
      <trkpt lat="47.57188" lon="7.71621">
        <ele>518.2878418</ele>
        <time>2010-11-07T11:15:14Z</time>
      </trkpt>
      <trkpt lat="47.57182" lon="7.71611">
        <ele>518.7685547</ele>
        <time>2010-11-07T11:15:21Z</time>
      </trkpt>
      <trkpt lat="47.5718" lon="7.71604">
        <ele>519.2492676</ele>
        <time>2010-11-07T11:15:25Z</time>
      </trkpt>
      <trkpt lat="47.57183" lon="7.71591">
        <ele>519.7298584</ele>
        <time>2010-11-07T11:15:33Z</time>
      </trkpt>
      <trkpt lat="47.57183" lon="7.71577">
        <ele>520.6912842</ele>
        <time>2010-11-07T11:15:42Z</time>
      </trkpt>
      <trkpt lat="47.57181" lon="7.71566">
        <ele>520.6912842</ele>
        <time>2010-11-07T11:15:50Z</time>
      </trkpt>
      <trkpt lat="47.5718" lon="7.71556">
        <ele>521.6525879</ele>
        <time>2010-11-07T11:15:56Z</time>
      </trkpt>
      <trkpt lat="47.57182" lon="7.71544">
        <ele>522.1331787</ele>
        <time>2010-11-07T11:16:04Z</time>
      </trkpt>
      <trkpt lat="47.57181" lon="7.71536">
        <ele>522.6138916</ele>
        <time>2010-11-07T11:16:11Z</time>
      </trkpt>
      <trkpt lat="47.57177" lon="7.71519">
        <ele>523.0946045</ele>
        <time>2010-11-07T11:16:21Z</time>
      </trkpt>
      <trkpt lat="47.57178" lon="7.71508">
        <ele>524.0557861</ele>
        <time>2010-11-07T11:16:29Z</time>
      </trkpt>
      <trkpt lat="47.57173" lon="7.71484">
        <ele>524.0557861</ele>
        <time>2010-11-07T11:16:44Z</time>
      </trkpt>
      <trkpt lat="47.57175" lon="7.71482">
        <ele>523.0946045</ele>
        <time>2010-11-07T11:16:50Z</time>
      </trkpt>
      <trkpt lat="47.57177" lon="7.71469">
        <ele>525.0172119</ele>
        <time>2010-11-07T11:17:03Z</time>
      </trkpt>
      <trkpt lat="47.57176" lon="7.71455">
        <ele>525.0172119</ele>
        <time>2010-11-07T11:17:11Z</time>
      </trkpt>
      <trkpt lat="47.57171" lon="7.71444">
        <ele>525.0172119</ele>
        <time>2010-11-07T11:17:18Z</time>
      </trkpt>
      <trkpt lat="47.57165" lon="7.7143">
        <ele>525.0172119</ele>
        <time>2010-11-07T11:17:26Z</time>
      </trkpt>
      <trkpt lat="47.57167" lon="7.71427">
        <ele>525.0172119</ele>
        <time>2010-11-07T11:17:31Z</time>
      </trkpt>
      <trkpt lat="47.57169" lon="7.71416">
        <ele>526.4591064</ele>
        <time>2010-11-07T11:17:39Z</time>
      </trkpt>
      <trkpt lat="47.57168" lon="7.71408">
        <ele>525.9783936</ele>
        <time>2010-11-07T11:17:45Z</time>
      </trkpt>
      <trkpt lat="47.57165" lon="7.71396">
        <ele>525.9783936</ele>
        <time>2010-11-07T11:17:51Z</time>
      </trkpt>
      <trkpt lat="47.57162" lon="7.71375">
        <ele>527.4204102</ele>
        <time>2010-11-07T11:18:06Z</time>
      </trkpt>
      <trkpt lat="47.57162" lon="7.71363">
        <ele>527.4204102</ele>
        <time>2010-11-07T11:18:13Z</time>
      </trkpt>
      <trkpt lat="47.5716" lon="7.71355">
        <ele>528.3818359</ele>
        <time>2010-11-07T11:18:18Z</time>
      </trkpt>
      <trkpt lat="47.57157" lon="7.71347">
        <ele>529.3431396</ele>
        <time>2010-11-07T11:18:24Z</time>
      </trkpt>
      <trkpt lat="47.57156" lon="7.71338">
        <ele>529.8237305</ele>
        <time>2010-11-07T11:18:29Z</time>
      </trkpt>
      <trkpt lat="47.57156" lon="7.7133">
        <ele>529.8237305</ele>
        <time>2010-11-07T11:18:36Z</time>
      </trkpt>
      <trkpt lat="47.57156" lon="7.71323">
        <ele>529.8237305</ele>
        <time>2010-11-07T11:18:42Z</time>
      </trkpt>
      <trkpt lat="47.57156" lon="7.71316">
        <ele>530.3044434</ele>
        <time>2010-11-07T11:18:48Z</time>
      </trkpt>
      <trkpt lat="47.57157" lon="7.713">
        <ele>530.7851563</ele>
        <time>2010-11-07T11:18:58Z</time>
      </trkpt>
      <trkpt lat="47.57157" lon="7.71289">
        <ele>530.7851563</ele>
        <time>2010-11-07T11:19:03Z</time>
      </trkpt>
      <trkpt lat="47.57157" lon="7.71279">
        <ele>531.2657471</ele>
        <time>2010-11-07T11:19:08Z</time>
      </trkpt>
      <trkpt lat="47.57154" lon="7.71261">
        <ele>531.2657471</ele>
        <time>2010-11-07T11:19:16Z</time>
      </trkpt>
      <trkpt lat="47.57152" lon="7.71256">
        <ele>531.2657471</ele>
        <time>2010-11-07T11:19:18Z</time>
      </trkpt>
      <trkpt lat="47.57145" lon="7.7124">
        <ele>532.2270508</ele>
        <time>2010-11-07T11:19:34Z</time>
      </trkpt>
      <trkpt lat="47.57135" lon="7.71198">
        <ele>533.1883545</ele>
        <time>2010-11-07T11:20:00Z</time>
      </trkpt>
      <trkpt lat="47.57133" lon="7.71173">
        <ele>533.6689453</ele>
        <time>2010-11-07T11:20:20Z</time>
      </trkpt>
      <trkpt lat="47.5713" lon="7.71157">
        <ele>534.1496582</ele>
        <time>2010-11-07T11:20:30Z</time>
      </trkpt>
      <trkpt lat="47.57123" lon="7.71138">
        <ele>533.1883545</ele>
        <time>2010-11-07T11:20:43Z</time>
      </trkpt>
      <trkpt lat="47.57117" lon="7.71123">
        <ele>533.6689453</ele>
        <time>2010-11-07T11:20:54Z</time>
      </trkpt>
      <trkpt lat="47.5711" lon="7.71107">
        <ele>533.6689453</ele>
        <time>2010-11-07T11:21:07Z</time>
      </trkpt>
      <trkpt lat="47.57082" lon="7.70977">
        <ele>515.8846436</ele>
        <time>2010-11-07T12:45:55Z</time>
      </trkpt>
      <trkpt lat="47.57087" lon="7.70925">
        <ele>514.442627</ele>
        <time>2010-11-07T12:46:26Z</time>
      </trkpt>
      <trkpt lat="47.5709" lon="7.70905">
        <ele>513.9620361</ele>
        <time>2010-11-07T12:46:37Z</time>
      </trkpt>
      <trkpt lat="47.57092" lon="7.70884">
        <ele>514.442627</ele>
        <time>2010-11-07T12:46:48Z</time>
      </trkpt>
      <trkpt lat="47.57093" lon="7.70862">
        <ele>513.9620361</ele>
        <time>2010-11-07T12:47:00Z</time>
      </trkpt>
      <trkpt lat="47.57093" lon="7.70839">
        <ele>513.9620361</ele>
        <time>2010-11-07T12:47:13Z</time>
      </trkpt>
      <trkpt lat="47.57091" lon="7.70817">
        <ele>513.9620361</ele>
        <time>2010-11-07T12:47:25Z</time>
      </trkpt>
      <trkpt lat="47.57073" lon="7.7071">
        <ele>514.9233398</ele>
        <time>2010-11-07T12:49:00Z</time>
      </trkpt>
      <trkpt lat="47.57073" lon="7.70706">
        <ele>515.8846436</ele>
        <time>2010-11-07T12:49:23Z</time>
      </trkpt>
      <trkpt lat="47.57072" lon="7.70706">
        <ele>516.3652344</ele>
        <time>2010-11-07T12:50:16Z</time>
      </trkpt>
      <trkpt lat="47.57073" lon="7.70706">
        <ele>515.8846436</ele>
        <time>2010-11-07T12:50:27Z</time>
      </trkpt>
      <trkpt lat="47.57071" lon="7.70705">
        <ele>515.8846436</ele>
        <time>2010-11-07T12:50:29Z</time>
      </trkpt>
      <trkpt lat="47.57061" lon="7.70698">
        <ele>513.9620361</ele>
        <time>2010-11-07T12:50:40Z</time>
      </trkpt>
      <trkpt lat="47.5705" lon="7.7069">
        <ele>514.442627</ele>
        <time>2010-11-07T12:50:51Z</time>
      </trkpt>
      <trkpt lat="47.57038" lon="7.70683">
        <ele>513.4814453</ele>
        <time>2010-11-07T12:51:02Z</time>
      </trkpt>
      <trkpt lat="47.57023" lon="7.70673">
        <ele>512.0394287</ele>
        <time>2010-11-07T12:51:16Z</time>
      </trkpt>
      <trkpt lat="47.5701" lon="7.70665">
        <ele>511.0780029</ele>
        <time>2010-11-07T12:51:28Z</time>
      </trkpt>
      <trkpt lat="47.56991" lon="7.70656">
        <ele>509.6361084</ele>
        <time>2010-11-07T12:51:43Z</time>
      </trkpt>
      <trkpt lat="47.56976" lon="7.7065">
        <ele>507.2327881</ele>
        <time>2010-11-07T12:51:55Z</time>
      </trkpt>
      <trkpt lat="47.56962" lon="7.7064">
        <ele>505.7908936</ele>
        <time>2010-11-07T12:52:07Z</time>
      </trkpt>
      <trkpt lat="47.56948" lon="7.70629">
        <ele>505.7908936</ele>
        <time>2010-11-07T12:52:19Z</time>
      </trkpt>
      <trkpt lat="47.56937" lon="7.70617">
        <ele>505.7908936</ele>
        <time>2010-11-07T12:52:29Z</time>
      </trkpt>
      <trkpt lat="47.56926" lon="7.70607">
        <ele>506.2714844</ele>
        <time>2010-11-07T12:52:39Z</time>
      </trkpt>
      <trkpt lat="47.5692" lon="7.70601">
        <ele>505.3101807</ele>
        <time>2010-11-07T12:52:45Z</time>
      </trkpt>
      <trkpt lat="47.56914" lon="7.70592">
        <ele>503.3874512</ele>
        <time>2010-11-07T12:52:51Z</time>
      </trkpt>
      <trkpt lat="47.56907" lon="7.70579">
        <ele>504.8294678</ele>
        <time>2010-11-07T12:53:00Z</time>
      </trkpt>
      <trkpt lat="47.56906" lon="7.70575">
        <ele>503.3874512</ele>
        <time>2010-11-07T12:53:09Z</time>
      </trkpt>
      <trkpt lat="47.56906" lon="7.70572">
        <ele>502.9067383</ele>
        <time>2010-11-07T12:53:11Z</time>
      </trkpt>
      <trkpt lat="47.56908" lon="7.70552">
        <ele>501.4648438</ele>
        <time>2010-11-07T12:53:23Z</time>
      </trkpt>
      <trkpt lat="47.56902" lon="7.7054">
        <ele>502.4261475</ele>
        <time>2010-11-07T12:53:32Z</time>
      </trkpt>
      <trkpt lat="47.56891" lon="7.70531">
        <ele>501.9455566</ele>
        <time>2010-11-07T12:53:42Z</time>
      </trkpt>
      <trkpt lat="47.5689" lon="7.70513">
        <ele>501.9455566</ele>
        <time>2010-11-07T12:53:51Z</time>
      </trkpt>
      <trkpt lat="47.56892" lon="7.7049">
        <ele>502.9067383</ele>
        <time>2010-11-07T12:54:02Z</time>
      </trkpt>
      <trkpt lat="47.56895" lon="7.70469">
        <ele>502.9067383</ele>
        <time>2010-11-07T12:54:14Z</time>
      </trkpt>
      <trkpt lat="47.56895" lon="7.70467">
        <ele>502.9067383</ele>
        <time>2010-11-07T12:54:15Z</time>
      </trkpt>
      <trkpt lat="47.56901" lon="7.70449">
        <ele>502.9067383</ele>
        <time>2010-11-07T12:54:26Z</time>
      </trkpt>
      <trkpt lat="47.56903" lon="7.70436">
        <ele>501.4648438</ele>
        <time>2010-11-07T12:54:33Z</time>
      </trkpt>
      <trkpt lat="47.56907" lon="7.70415">
        <ele>502.9067383</ele>
        <time>2010-11-07T12:54:44Z</time>
      </trkpt>
      <trkpt lat="47.5691" lon="7.70391">
        <ele>501.9455566</ele>
        <time>2010-11-07T12:54:57Z</time>
      </trkpt>
      <trkpt lat="47.56913" lon="7.70369">
        <ele>501.4648438</ele>
        <time>2010-11-07T12:55:09Z</time>
      </trkpt>
      <trkpt lat="47.56916" lon="7.7035">
        <ele>501.4648438</ele>
        <time>2010-11-07T12:55:20Z</time>
      </trkpt>
      <trkpt lat="47.56917" lon="7.70329">
        <ele>500.9841309</ele>
        <time>2010-11-07T12:55:32Z</time>
      </trkpt>
      <trkpt lat="47.56919" lon="7.70304">
        <ele>500.9841309</ele>
        <time>2010-11-07T12:55:46Z</time>
      </trkpt>
      <trkpt lat="47.56919" lon="7.70277">
        <ele>500.0229492</ele>
        <time>2010-11-07T12:56:00Z</time>
      </trkpt>
      <trkpt lat="47.56919" lon="7.70251">
        <ele>500.50354</ele>
        <time>2010-11-07T12:56:13Z</time>
      </trkpt>
      <trkpt lat="47.56917" lon="7.7023">
        <ele>500.9841309</ele>
        <time>2010-11-07T12:56:25Z</time>
      </trkpt>
      <trkpt lat="47.56917" lon="7.70213">
        <ele>500.50354</ele>
        <time>2010-11-07T12:56:34Z</time>
      </trkpt>
      <trkpt lat="47.56917" lon="7.70192">
        <ele>500.9841309</ele>
        <time>2010-11-07T12:56:46Z</time>
      </trkpt>
      <trkpt lat="47.56917" lon="7.70173">
        <ele>500.50354</ele>
        <time>2010-11-07T12:56:57Z</time>
      </trkpt>
      <trkpt lat="47.56917" lon="7.70149">
        <ele>501.4648438</ele>
        <time>2010-11-07T12:57:10Z</time>
      </trkpt>
      <trkpt lat="47.56917" lon="7.7014">
        <ele>501.9455566</ele>
        <time>2010-11-07T12:57:15Z</time>
      </trkpt>
      <trkpt lat="47.56919" lon="7.70128">
        <ele>500.9841309</ele>
        <time>2010-11-07T12:57:22Z</time>
      </trkpt>
      <trkpt lat="47.5692" lon="7.70112">
        <ele>501.9455566</ele>
        <time>2010-11-07T12:57:31Z</time>
      </trkpt>
      <trkpt lat="47.56921" lon="7.70098">
        <ele>501.4648438</ele>
        <time>2010-11-07T12:57:39Z</time>
      </trkpt>
      <trkpt lat="47.56921" lon="7.70081">
        <ele>501.4648438</ele>
        <time>2010-11-07T12:57:50Z</time>
      </trkpt>
      <trkpt lat="47.56922" lon="7.70067">
        <ele>502.4261475</ele>
        <time>2010-11-07T12:57:58Z</time>
      </trkpt>
      <trkpt lat="47.56923" lon="7.70047">
        <ele>502.4261475</ele>
        <time>2010-11-07T12:58:09Z</time>
      </trkpt>
      <trkpt lat="47.56925" lon="7.70027">
        <ele>502.9067383</ele>
        <time>2010-11-07T12:58:20Z</time>
      </trkpt>
      <trkpt lat="47.56926" lon="7.70007">
        <ele>503.3874512</ele>
        <time>2010-11-07T12:58:31Z</time>
      </trkpt>
      <trkpt lat="47.56928" lon="7.69989">
        <ele>503.3874512</ele>
        <time>2010-11-07T12:58:41Z</time>
      </trkpt>
      <trkpt lat="47.5693" lon="7.69975">
        <ele>503.8681641</ele>
        <time>2010-11-07T12:58:48Z</time>
      </trkpt>
      <trkpt lat="47.56934" lon="7.69963">
        <ele>502.4261475</ele>
        <time>2010-11-07T12:58:56Z</time>
      </trkpt>
      <trkpt lat="47.56937" lon="7.69951">
        <ele>503.3874512</ele>
        <time>2010-11-07T12:59:04Z</time>
      </trkpt>
      <trkpt lat="47.56937" lon="7.69949">
        <ele>502.9067383</ele>
        <time>2010-11-07T12:59:05Z</time>
      </trkpt>
      <trkpt lat="47.56944" lon="7.69939">
        <ele>503.3874512</ele>
        <time>2010-11-07T12:59:13Z</time>
      </trkpt>
      <trkpt lat="47.56951" lon="7.69935">
        <ele>504.348877</ele>
        <time>2010-11-07T12:59:22Z</time>
      </trkpt>
      <trkpt lat="47.56962" lon="7.69936">
        <ele>504.8294678</ele>
        <time>2010-11-07T12:59:33Z</time>
      </trkpt>
      <trkpt lat="47.56972" lon="7.69937">
        <ele>505.3101807</ele>
        <time>2010-11-07T12:59:41Z</time>
      </trkpt>
      <trkpt lat="47.56978" lon="7.6994">
        <ele>505.7908936</ele>
        <time>2010-11-07T12:59:48Z</time>
      </trkpt>
      <trkpt lat="47.56994" lon="7.69952">
        <ele>506.2714844</ele>
        <time>2010-11-07T12:59:59Z</time>
      </trkpt>
      <trkpt lat="47.5701" lon="7.69964">
        <ele>507.2327881</ele>
        <time>2010-11-07T13:00:11Z</time>
      </trkpt>
      <trkpt lat="47.57018" lon="7.69965">
        <ele>507.2327881</ele>
        <time>2010-11-07T13:00:20Z</time>
      </trkpt>
      <trkpt lat="47.57019" lon="7.69965">
        <ele>506.7520752</ele>
        <time>2010-11-07T13:00:21Z</time>
      </trkpt>
      <trkpt lat="47.57024" lon="7.69963">
        <ele>506.2714844</ele>
        <time>2010-11-07T13:00:26Z</time>
      </trkpt>
      <trkpt lat="47.57035" lon="7.69959">
        <ele>506.7520752</ele>
        <time>2010-11-07T13:00:36Z</time>
      </trkpt>
      <trkpt lat="47.57039" lon="7.69952">
        <ele>506.7520752</ele>
        <time>2010-11-07T13:00:42Z</time>
      </trkpt>
      <trkpt lat="47.57046" lon="7.6994">
        <ele>506.2714844</ele>
        <time>2010-11-07T13:00:51Z</time>
      </trkpt>
      <trkpt lat="47.57048" lon="7.69934">
        <ele>507.2327881</ele>
        <time>2010-11-07T13:00:55Z</time>
      </trkpt>
      <trkpt lat="47.57053" lon="7.69917">
        <ele>506.7520752</ele>
        <time>2010-11-07T13:01:06Z</time>
      </trkpt>
      <trkpt lat="47.57056" lon="7.69909">
        <ele>506.7520752</ele>
        <time>2010-11-07T13:01:12Z</time>
      </trkpt>
      <trkpt lat="47.57063" lon="7.699">
        <ele>506.7520752</ele>
        <time>2010-11-07T13:01:18Z</time>
      </trkpt>
      <trkpt lat="47.57068" lon="7.69892">
        <ele>507.2327881</ele>
        <time>2010-11-07T13:01:25Z</time>
      </trkpt>
      <trkpt lat="47.57072" lon="7.69884">
        <ele>506.7520752</ele>
        <time>2010-11-07T13:01:33Z</time>
      </trkpt>
      <trkpt lat="47.57081" lon="7.69804">
        <ele>504.8294678</ele>
        <time>2010-11-07T13:02:25Z</time>
      </trkpt>
      <trkpt lat="47.57086" lon="7.69758">
        <ele>506.2714844</ele>
        <time>2010-11-07T13:06:23Z</time>
      </trkpt>
      <trkpt lat="47.57087" lon="7.69744">
        <ele>506.7520752</ele>
        <time>2010-11-07T13:06:32Z</time>
      </trkpt>
      <trkpt lat="47.57087" lon="7.69736">
        <ele>505.7908936</ele>
        <time>2010-11-07T13:06:37Z</time>
      </trkpt>
      <trkpt lat="47.57092" lon="7.69602">
        <ele>505.7908936</ele>
        <time>2010-11-07T13:08:03Z</time>
      </trkpt>
      <trkpt lat="47.57095" lon="7.69551">
        <ele>508.1940918</ele>
        <time>2010-11-07T13:08:31Z</time>
      </trkpt>
      <trkpt lat="47.57098" lon="7.69462">
        <ele>510.1166992</ele>
        <time>2010-11-07T13:09:25Z</time>
      </trkpt>
      <trkpt lat="47.57117" lon="7.69242">
        <ele>510.1166992</ele>
        <time>2010-11-07T13:11:30Z</time>
      </trkpt>
      <trkpt lat="47.57116" lon="7.69229">
        <ele>509.6361084</ele>
        <time>2010-11-07T13:11:37Z</time>
      </trkpt>
      <trkpt lat="47.57116" lon="7.6922">
        <ele>510.1166992</ele>
        <time>2010-11-07T13:11:41Z</time>
      </trkpt>
      <trkpt lat="47.5712" lon="7.69207">
        <ele>510.1166992</ele>
        <time>2010-11-07T13:11:48Z</time>
      </trkpt>
      <trkpt lat="47.57121" lon="7.69197">
        <ele>509.6361084</ele>
        <time>2010-11-07T13:11:55Z</time>
      </trkpt>
      <trkpt lat="47.57122" lon="7.69179">
        <ele>509.1553955</ele>
        <time>2010-11-07T13:12:04Z</time>
      </trkpt>
      <trkpt lat="47.57123" lon="7.69162">
        <ele>509.6361084</ele>
        <time>2010-11-07T13:12:14Z</time>
      </trkpt>
      <trkpt lat="47.57123" lon="7.6916">
        <ele>510.1166992</ele>
        <time>2010-11-07T13:12:15Z</time>
      </trkpt>
      <trkpt lat="47.57125" lon="7.69144">
        <ele>509.1553955</ele>
        <time>2010-11-07T13:12:25Z</time>
      </trkpt>
      <trkpt lat="47.57125" lon="7.6913">
        <ele>508.1940918</ele>
        <time>2010-11-07T13:12:34Z</time>
      </trkpt>
      <trkpt lat="47.57127" lon="7.69112">
        <ele>509.1553955</ele>
        <time>2010-11-07T13:12:43Z</time>
      </trkpt>
      <trkpt lat="47.57128" lon="7.69103">
        <ele>509.1553955</ele>
        <time>2010-11-07T13:12:49Z</time>
      </trkpt>
      <trkpt lat="47.57127" lon="7.69089">
        <ele>508.6746826</ele>
        <time>2010-11-07T13:12:55Z</time>
      </trkpt>
      <trkpt lat="47.57126" lon="7.69075">
        <ele>508.6746826</ele>
        <time>2010-11-07T13:13:01Z</time>
      </trkpt>
      <trkpt lat="47.57126" lon="7.69062">
        <ele>508.6746826</ele>
        <time>2010-11-07T13:13:08Z</time>
      </trkpt>
      <trkpt lat="47.57126" lon="7.69045">
        <ele>508.1940918</ele>
        <time>2010-11-07T13:13:17Z</time>
      </trkpt>
      <trkpt lat="47.57131" lon="7.69032">
        <ele>507.713501</ele>
        <time>2010-11-07T13:13:26Z</time>
      </trkpt>
      <trkpt lat="47.5713" lon="7.69023">
        <ele>507.713501</ele>
        <time>2010-11-07T13:13:33Z</time>
      </trkpt>
      <trkpt lat="47.57133" lon="7.6901">
        <ele>507.713501</ele>
        <time>2010-11-07T13:13:41Z</time>
      </trkpt>
      <trkpt lat="47.57131" lon="7.69004">
        <ele>507.2327881</ele>
        <time>2010-11-07T13:13:47Z</time>
      </trkpt>
      <trkpt lat="47.57133" lon="7.68997">
        <ele>507.2327881</ele>
        <time>2010-11-07T13:13:53Z</time>
      </trkpt>
      <trkpt lat="47.57134" lon="7.68993">
        <ele>506.7520752</ele>
        <time>2010-11-07T13:14:00Z</time>
      </trkpt>
      <trkpt lat="47.57135" lon="7.68986">
        <ele>507.2327881</ele>
        <time>2010-11-07T13:14:07Z</time>
      </trkpt>
      <trkpt lat="47.57135" lon="7.68975">
        <ele>506.7520752</ele>
        <time>2010-11-07T13:14:15Z</time>
      </trkpt>
      <trkpt lat="47.57136" lon="7.6897">
        <ele>506.2714844</ele>
        <time>2010-11-07T13:14:19Z</time>
      </trkpt>
      <trkpt lat="47.57138" lon="7.68958">
        <ele>506.7520752</ele>
        <time>2010-11-07T13:14:27Z</time>
      </trkpt>
      <trkpt lat="47.57139" lon="7.68944">
        <ele>506.7520752</ele>
        <time>2010-11-07T13:14:36Z</time>
      </trkpt>
      <trkpt lat="47.5714" lon="7.68929">
        <ele>506.7520752</ele>
        <time>2010-11-07T13:14:43Z</time>
      </trkpt>
      <trkpt lat="47.57139" lon="7.68917">
        <ele>506.2714844</ele>
        <time>2010-11-07T13:14:49Z</time>
      </trkpt>
      <trkpt lat="47.57142" lon="7.68909">
        <ele>506.7520752</ele>
        <time>2010-11-07T13:14:56Z</time>
      </trkpt>
      <trkpt lat="47.57144" lon="7.68893">
        <ele>506.7520752</ele>
        <time>2010-11-07T13:15:06Z</time>
      </trkpt>
      <trkpt lat="47.57149" lon="7.6888">
        <ele>506.2714844</ele>
        <time>2010-11-07T13:15:15Z</time>
      </trkpt>
      <trkpt lat="47.57151" lon="7.68868">
        <ele>505.7908936</ele>
        <time>2010-11-07T13:15:23Z</time>
      </trkpt>
      <trkpt lat="47.57151" lon="7.68855">
        <ele>505.7908936</ele>
        <time>2010-11-07T13:15:31Z</time>
      </trkpt>
      <trkpt lat="47.5715" lon="7.68839">
        <ele>506.2714844</ele>
        <time>2010-11-07T13:15:42Z</time>
      </trkpt>
      <trkpt lat="47.5715" lon="7.68829">
        <ele>505.7908936</ele>
        <time>2010-11-07T13:15:49Z</time>
      </trkpt>
      <trkpt lat="47.57149" lon="7.6881">
        <ele>505.7908936</ele>
        <time>2010-11-07T13:15:59Z</time>
      </trkpt>
      <trkpt lat="47.57148" lon="7.68792">
        <ele>505.7908936</ele>
        <time>2010-11-07T13:16:08Z</time>
      </trkpt>
      <trkpt lat="47.57147" lon="7.6877">
        <ele>506.2714844</ele>
        <time>2010-11-07T13:16:20Z</time>
      </trkpt>
      <trkpt lat="47.57149" lon="7.68749">
        <ele>505.3101807</ele>
        <time>2010-11-07T13:16:32Z</time>
      </trkpt>
      <trkpt lat="47.57153" lon="7.68733">
        <ele>505.3101807</ele>
        <time>2010-11-07T13:16:43Z</time>
      </trkpt>
      <trkpt lat="47.57157" lon="7.68721">
        <ele>505.7908936</ele>
        <time>2010-11-07T13:16:53Z</time>
      </trkpt>
      <trkpt lat="47.57158" lon="7.68699">
        <ele>504.348877</ele>
        <time>2010-11-07T13:21:14Z</time>
      </trkpt>
      <trkpt lat="47.57154" lon="7.68682">
        <ele>504.8294678</ele>
        <time>2010-11-07T13:21:25Z</time>
      </trkpt>
      <trkpt lat="47.57154" lon="7.6866">
        <ele>504.348877</ele>
        <time>2010-11-07T13:21:37Z</time>
      </trkpt>
      <trkpt lat="47.57155" lon="7.68639">
        <ele>504.8294678</ele>
        <time>2010-11-07T13:21:48Z</time>
      </trkpt>
      <trkpt lat="47.57154" lon="7.68633">
        <ele>504.8294678</ele>
        <time>2010-11-07T13:21:57Z</time>
      </trkpt>
      <trkpt lat="47.57146" lon="7.68625">
        <ele>502.9067383</ele>
        <time>2010-11-07T13:22:26Z</time>
      </trkpt>
      <trkpt lat="47.57141" lon="7.68626">
        <ele>500.9841309</ele>
        <time>2010-11-07T13:22:47Z</time>
      </trkpt>
      <trkpt lat="47.57141" lon="7.68626">
        <ele>503.8681641</ele>
        <time>2010-11-07T13:22:48Z</time>
      </trkpt>
      <trkpt lat="47.5714" lon="7.68609">
        <ele>504.8294678</ele>
        <time>2010-11-07T13:23:08Z</time>
      </trkpt>
      <trkpt lat="47.57148" lon="7.68595">
        <ele>504.8294678</ele>
        <time>2010-11-07T13:23:19Z</time>
      </trkpt>
      <trkpt lat="47.57151" lon="7.6859">
        <ele>504.348877</ele>
        <time>2010-11-07T13:23:26Z</time>
      </trkpt>
      <trkpt lat="47.57152" lon="7.68588">
        <ele>505.7908936</ele>
        <time>2010-11-07T13:23:28Z</time>
      </trkpt>
      <trkpt lat="47.57152" lon="7.68582">
        <ele>505.7908936</ele>
        <time>2010-11-07T13:23:33Z</time>
      </trkpt>
      <trkpt lat="47.5715" lon="7.6856">
        <ele>504.8294678</ele>
        <time>2010-11-07T13:23:44Z</time>
      </trkpt>
      <trkpt lat="47.57145" lon="7.68544">
        <ele>504.8294678</ele>
        <time>2010-11-07T13:23:53Z</time>
      </trkpt>
      <trkpt lat="47.57144" lon="7.6853">
        <ele>506.2714844</ele>
        <time>2010-11-07T13:24:03Z</time>
      </trkpt>
      <trkpt lat="47.57148" lon="7.68525">
        <ele>507.2327881</ele>
        <time>2010-11-07T13:24:08Z</time>
      </trkpt>
      <trkpt lat="47.57164" lon="7.68513">
        <ele>506.7520752</ele>
        <time>2010-11-07T13:24:20Z</time>
      </trkpt>
      <trkpt lat="47.57171" lon="7.68506">
        <ele>507.713501</ele>
        <time>2010-11-07T13:24:28Z</time>
      </trkpt>
      <trkpt lat="47.57175" lon="7.68494">
        <ele>509.1553955</ele>
        <time>2010-11-07T13:24:38Z</time>
      </trkpt>
      <trkpt lat="47.57176" lon="7.68491">
        <ele>510.59729</ele>
        <time>2010-11-07T13:24:41Z</time>
      </trkpt>
      <trkpt lat="47.57176" lon="7.6849">
        <ele>509.6361084</ele>
        <time>2010-11-07T13:24:42Z</time>
      </trkpt>
      <trkpt lat="47.57178" lon="7.68479">
        <ele>510.59729</ele>
        <time>2010-11-07T13:24:49Z</time>
      </trkpt>
      <trkpt lat="47.57176" lon="7.68462">
        <ele>510.59729</ele>
        <time>2010-11-07T13:24:59Z</time>
      </trkpt>
      <trkpt lat="47.57176" lon="7.6846">
        <ele>510.59729</ele>
        <time>2010-11-07T13:25:00Z</time>
      </trkpt>
      <trkpt lat="47.57176" lon="7.68451">
        <ele>511.5587158</ele>
        <time>2010-11-07T13:25:04Z</time>
      </trkpt>
      <trkpt lat="47.57178" lon="7.68444">
        <ele>511.5587158</ele>
        <time>2010-11-07T13:25:08Z</time>
      </trkpt>
      <trkpt lat="47.57183" lon="7.68442">
        <ele>509.1553955</ele>
        <time>2010-11-07T13:25:12Z</time>
      </trkpt>
      <trkpt lat="47.57191" lon="7.68438">
        <ele>510.1166992</ele>
        <time>2010-11-07T13:25:21Z</time>
      </trkpt>
      <trkpt lat="47.57192" lon="7.68437">
        <ele>513.9620361</ele>
        <time>2010-11-07T13:25:22Z</time>
      </trkpt>
      <trkpt lat="47.57193" lon="7.68437">
        <ele>513.9620361</ele>
        <time>2010-11-07T13:25:23Z</time>
      </trkpt>
      <trkpt lat="47.57204" lon="7.68426">
        <ele>513.4814453</ele>
        <time>2010-11-07T13:25:33Z</time>
      </trkpt>
      <trkpt lat="47.57212" lon="7.68418">
        <ele>514.9233398</ele>
        <time>2010-11-07T13:25:42Z</time>
      </trkpt>
      <trkpt lat="47.5722" lon="7.68405">
        <ele>515.8846436</ele>
        <time>2010-11-07T13:25:53Z</time>
      </trkpt>
      <trkpt lat="47.57226" lon="7.68388">
        <ele>515.8846436</ele>
        <time>2010-11-07T13:26:04Z</time>
      </trkpt>
      <trkpt lat="47.5723" lon="7.68372">
        <ele>516.3652344</ele>
        <time>2010-11-07T13:26:13Z</time>
      </trkpt>
      <trkpt lat="47.57236" lon="7.68356">
        <ele>516.8459473</ele>
        <time>2010-11-07T13:26:24Z</time>
      </trkpt>
      <trkpt lat="47.57239" lon="7.68348">
        <ele>517.3266602</ele>
        <time>2010-11-07T13:26:29Z</time>
      </trkpt>
      <trkpt lat="47.57242" lon="7.68336">
        <ele>516.8459473</ele>
        <time>2010-11-07T13:26:37Z</time>
      </trkpt>
      <trkpt lat="47.57246" lon="7.68319">
        <ele>517.807251</ele>
        <time>2010-11-07T13:26:48Z</time>
      </trkpt>
      <trkpt lat="47.57245" lon="7.68304">
        <ele>517.807251</ele>
        <time>2010-11-07T13:26:56Z</time>
      </trkpt>
      <trkpt lat="47.57243" lon="7.68291">
        <ele>518.2878418</ele>
        <time>2010-11-07T13:27:05Z</time>
      </trkpt>
      <trkpt lat="47.57242" lon="7.6828">
        <ele>518.7685547</ele>
        <time>2010-11-07T13:27:11Z</time>
      </trkpt>
      <trkpt lat="47.57249" lon="7.68267">
        <ele>519.7298584</ele>
        <time>2010-11-07T13:27:20Z</time>
      </trkpt>
      <trkpt lat="47.57253" lon="7.68253">
        <ele>520.2105713</ele>
        <time>2010-11-07T13:27:28Z</time>
      </trkpt>
      <trkpt lat="47.57259" lon="7.68239">
        <ele>520.6912842</ele>
        <time>2010-11-07T13:27:38Z</time>
      </trkpt>
      <trkpt lat="47.57261" lon="7.68228">
        <ele>521.1719971</ele>
        <time>2010-11-07T13:27:45Z</time>
      </trkpt>
      <trkpt lat="47.57269" lon="7.68214">
        <ele>522.1331787</ele>
        <time>2010-11-07T13:27:55Z</time>
      </trkpt>
      <trkpt lat="47.57275" lon="7.68208">
        <ele>522.6138916</ele>
        <time>2010-11-07T13:28:02Z</time>
      </trkpt>
      <trkpt lat="47.57282" lon="7.68198">
        <ele>523.0946045</ele>
        <time>2010-11-07T13:28:12Z</time>
      </trkpt>
      <trkpt lat="47.57287" lon="7.68197">
        <ele>523.0946045</ele>
        <time>2010-11-07T13:28:41Z</time>
      </trkpt>
      <trkpt lat="47.57292" lon="7.68188">
        <ele>523.5751953</ele>
        <time>2010-11-07T13:28:49Z</time>
      </trkpt>
      <trkpt lat="47.57299" lon="7.68178">
        <ele>523.0946045</ele>
        <time>2010-11-07T13:28:57Z</time>
      </trkpt>
      <trkpt lat="47.57299" lon="7.68179">
        <ele>523.0946045</ele>
        <time>2010-11-07T13:29:13Z</time>
      </trkpt>
      <trkpt lat="47.57302" lon="7.68173">
        <ele>524.0557861</ele>
        <time>2010-11-07T13:29:20Z</time>
      </trkpt>
      <trkpt lat="47.57309" lon="7.68161">
        <ele>524.536499</ele>
        <time>2010-11-07T13:29:29Z</time>
      </trkpt>
      <trkpt lat="47.57312" lon="7.6814">
        <ele>525.0172119</ele>
        <time>2010-11-07T13:29:41Z</time>
      </trkpt>
      <trkpt lat="47.57314" lon="7.68128">
        <ele>526.9398193</ele>
        <time>2010-11-07T13:29:48Z</time>
      </trkpt>
      <trkpt lat="47.57314" lon="7.68112">
        <ele>526.9398193</ele>
        <time>2010-11-07T13:29:57Z</time>
      </trkpt>
      <trkpt lat="47.57316" lon="7.68106">
        <ele>527.4204102</ele>
        <time>2010-11-07T13:30:05Z</time>
      </trkpt>
      <trkpt lat="47.57317" lon="7.68099">
        <ele>527.4204102</ele>
        <time>2010-11-07T13:30:15Z</time>
      </trkpt>
      <trkpt lat="47.57317" lon="7.68086">
        <ele>528.8625488</ele>
        <time>2010-11-07T13:30:25Z</time>
      </trkpt>
      <trkpt lat="47.57318" lon="7.6808">
        <ele>530.3044434</ele>
        <time>2010-11-07T13:30:30Z</time>
      </trkpt>
      <trkpt lat="47.57319" lon="7.68066">
        <ele>531.7463379</ele>
        <time>2010-11-07T13:30:40Z</time>
      </trkpt>
      <trkpt lat="47.57327" lon="7.67973">
        <ele>525.9783936</ele>
        <time>2010-11-07T13:37:55Z</time>
      </trkpt>
      <trkpt lat="47.5733" lon="7.67959">
        <ele>524.536499</ele>
        <time>2010-11-07T13:38:05Z</time>
      </trkpt>
      <trkpt lat="47.57334" lon="7.67947">
        <ele>523.5751953</ele>
        <time>2010-11-07T13:38:14Z</time>
      </trkpt>
      <trkpt lat="47.57342" lon="7.67948">
        <ele>524.536499</ele>
        <time>2010-11-07T13:38:24Z</time>
      </trkpt>
      <trkpt lat="47.57352" lon="7.67949">
        <ele>522.1331787</ele>
        <time>2010-11-07T13:38:34Z</time>
      </trkpt>
      <trkpt lat="47.57357" lon="7.67953">
        <ele>521.6525879</ele>
        <time>2010-11-07T13:38:40Z</time>
      </trkpt>
      <trkpt lat="47.57363" lon="7.6796">
        <ele>520.2105713</ele>
        <time>2010-11-07T13:38:47Z</time>
      </trkpt>
      <trkpt lat="47.57364" lon="7.67961">
        <ele>520.6912842</ele>
        <time>2010-11-07T13:38:48Z</time>
      </trkpt>
      <trkpt lat="47.57369" lon="7.67972">
        <ele>518.2878418</ele>
        <time>2010-11-07T13:39:15Z</time>
      </trkpt>
      <trkpt lat="47.57381" lon="7.67986">
        <ele>516.8459473</ele>
        <time>2010-11-07T13:39:12Z</time>
      </trkpt>
      <trkpt lat="47.57386" lon="7.67996">
        <ele>516.3652344</ele>
        <time>2010-11-07T13:39:21Z</time>
      </trkpt>
      <trkpt lat="47.57391" lon="7.68004">
        <ele>514.9233398</ele>
        <time>2010-11-07T13:39:28Z</time>
      </trkpt>
      <trkpt lat="47.57392" lon="7.68005">
        <ele>514.442627</ele>
        <time>2010-11-07T13:39:29Z</time>
      </trkpt>
      <trkpt lat="47.57395" lon="7.6801">
        <ele>514.9233398</ele>
        <time>2010-11-07T13:39:34Z</time>
      </trkpt>
      <trkpt lat="47.57402" lon="7.68021">
        <ele>513.9620361</ele>
        <time>2010-11-07T13:39:41Z</time>
      </trkpt>
      <trkpt lat="47.57404" lon="7.68032">
        <ele>513.0007324</ele>
        <time>2010-11-07T13:39:49Z</time>
      </trkpt>
      <trkpt lat="47.57404" lon="7.68035">
        <ele>512.5200195</ele>
        <time>2010-11-07T13:39:51Z</time>
      </trkpt>
      <trkpt lat="47.5741" lon="7.6805">
        <ele>511.5587158</ele>
        <time>2010-11-07T13:40:01Z</time>
      </trkpt>
      <trkpt lat="47.57419" lon="7.68062">
        <ele>510.59729</ele>
        <time>2010-11-07T13:40:10Z</time>
      </trkpt>
      <trkpt lat="47.57424" lon="7.68079">
        <ele>509.1553955</ele>
        <time>2010-11-07T13:40:21Z</time>
      </trkpt>
      <trkpt lat="47.57431" lon="7.68093">
        <ele>507.713501</ele>
        <time>2010-11-07T13:40:30Z</time>
      </trkpt>
      <trkpt lat="47.57441" lon="7.68105">
        <ele>506.7520752</ele>
        <time>2010-11-07T13:40:39Z</time>
      </trkpt>
      <trkpt lat="47.57442" lon="7.68114">
        <ele>505.7908936</ele>
        <time>2010-11-07T13:40:46Z</time>
      </trkpt>
      <trkpt lat="47.57445" lon="7.68125">
        <ele>505.3101807</ele>
        <time>2010-11-07T13:40:54Z</time>
      </trkpt>
      <trkpt lat="47.5745" lon="7.68137">
        <ele>504.348877</ele>
        <time>2010-11-07T13:41:03Z</time>
      </trkpt>
      <trkpt lat="47.57453" lon="7.68147">
        <ele>502.4261475</ele>
        <time>2010-11-07T13:41:11Z</time>
      </trkpt>
      <trkpt lat="47.57458" lon="7.68154">
        <ele>501.9455566</ele>
        <time>2010-11-07T13:41:21Z</time>
      </trkpt>
      <trkpt lat="47.57463" lon="7.68156">
        <ele>500.9841309</ele>
        <time>2010-11-07T13:41:29Z</time>
      </trkpt>
      <trkpt lat="47.57469" lon="7.68158">
        <ele>500.0229492</ele>
        <time>2010-11-07T13:41:37Z</time>
      </trkpt>
      <trkpt lat="47.57476" lon="7.6816">
        <ele>499.5422363</ele>
        <time>2010-11-07T13:41:45Z</time>
      </trkpt>
      <trkpt lat="47.57483" lon="7.6817">
        <ele>499.5422363</ele>
        <time>2010-11-07T13:41:52Z</time>
      </trkpt>
      <trkpt lat="47.57491" lon="7.68189">
        <ele>500.0229492</ele>
        <time>2010-11-07T13:42:01Z</time>
      </trkpt>
      <trkpt lat="47.57494" lon="7.68211">
        <ele>499.5422363</ele>
        <time>2010-11-07T13:42:11Z</time>
      </trkpt>
      <trkpt lat="47.57497" lon="7.68228">
        <ele>500.0229492</ele>
        <time>2010-11-07T13:42:20Z</time>
      </trkpt>
      <trkpt lat="47.57491" lon="7.68243">
        <ele>500.0229492</ele>
        <time>2010-11-07T13:42:28Z</time>
      </trkpt>
      <trkpt lat="47.57485" lon="7.68256">
        <ele>499.5422363</ele>
        <time>2010-11-07T13:42:35Z</time>
      </trkpt>
      <trkpt lat="47.5748" lon="7.68269">
        <ele>499.5422363</ele>
        <time>2010-11-07T13:42:44Z</time>
      </trkpt>
      <trkpt lat="47.57474" lon="7.68279">
        <ele>498.5809326</ele>
        <time>2010-11-07T13:42:52Z</time>
      </trkpt>
      <trkpt lat="47.57468" lon="7.68289">
        <ele>498.5809326</ele>
        <time>2010-11-07T13:43:00Z</time>
      </trkpt>
      <trkpt lat="47.57464" lon="7.68306">
        <ele>498.1003418</ele>
        <time>2010-11-07T13:43:09Z</time>
      </trkpt>
      <trkpt lat="47.57456" lon="7.68317">
        <ele>497.6196289</ele>
        <time>2010-11-07T13:43:17Z</time>
      </trkpt>
      <trkpt lat="47.57454" lon="7.68322">
        <ele>497.6196289</ele>
        <time>2010-11-07T13:43:20Z</time>
      </trkpt>
      <trkpt lat="47.57446" lon="7.6833">
        <ele>497.138916</ele>
        <time>2010-11-07T13:43:29Z</time>
      </trkpt>
      <trkpt lat="47.57436" lon="7.68333">
        <ele>496.6583252</ele>
        <time>2010-11-07T13:43:36Z</time>
      </trkpt>
      <trkpt lat="47.57433" lon="7.68334">
        <ele>496.1777344</ele>
        <time>2010-11-07T13:43:38Z</time>
      </trkpt>
      <trkpt lat="47.57426" lon="7.68333">
        <ele>496.1777344</ele>
        <time>2010-11-07T13:43:43Z</time>
      </trkpt>
      <trkpt lat="47.57413" lon="7.68329">
        <ele>496.6583252</ele>
        <time>2010-11-07T13:43:52Z</time>
      </trkpt>
      <trkpt lat="47.57401" lon="7.68331">
        <ele>496.6583252</ele>
        <time>2010-11-07T13:44:01Z</time>
      </trkpt>
      <trkpt lat="47.57392" lon="7.68335">
        <ele>497.138916</ele>
        <time>2010-11-07T13:44:08Z</time>
      </trkpt>
      <trkpt lat="47.57385" lon="7.68339">
        <ele>497.138916</ele>
        <time>2010-11-07T13:44:16Z</time>
      </trkpt>
      <trkpt lat="47.57378" lon="7.68353">
        <ele>497.6196289</ele>
        <time>2010-11-07T13:44:30Z</time>
      </trkpt>
      <trkpt lat="47.57373" lon="7.68365">
        <ele>499.0615234</ele>
        <time>2010-11-07T13:44:42Z</time>
      </trkpt>
      <trkpt lat="47.57375" lon="7.6838">
        <ele>499.5422363</ele>
        <time>2010-11-07T13:44:52Z</time>
      </trkpt>
      <trkpt lat="47.57372" lon="7.68391">
        <ele>500.0229492</ele>
        <time>2010-11-07T13:45:00Z</time>
      </trkpt>
      <trkpt lat="47.57372" lon="7.68403">
        <ele>500.0229492</ele>
        <time>2010-11-07T13:45:07Z</time>
      </trkpt>
      <trkpt lat="47.5737" lon="7.68413">
        <ele>500.50354</ele>
        <time>2010-11-07T13:45:13Z</time>
      </trkpt>
      <trkpt lat="47.57366" lon="7.68424">
        <ele>500.50354</ele>
        <time>2010-11-07T13:45:21Z</time>
      </trkpt>
      <trkpt lat="47.57364" lon="7.68437">
        <ele>500.9841309</ele>
        <time>2010-11-07T13:45:28Z</time>
      </trkpt>
      <trkpt lat="47.5736" lon="7.6845">
        <ele>501.4648438</ele>
        <time>2010-11-07T13:45:36Z</time>
      </trkpt>
      <trkpt lat="47.57353" lon="7.68464">
        <ele>501.4648438</ele>
        <time>2010-11-07T13:45:45Z</time>
      </trkpt>
      <trkpt lat="47.57346" lon="7.68477">
        <ele>502.4261475</ele>
        <time>2010-11-07T13:45:54Z</time>
      </trkpt>
      <trkpt lat="47.57341" lon="7.6849">
        <ele>501.9455566</ele>
        <time>2010-11-07T13:46:03Z</time>
      </trkpt>
      <trkpt lat="47.57335" lon="7.68502">
        <ele>502.4261475</ele>
        <time>2010-11-07T13:46:10Z</time>
      </trkpt>
      <trkpt lat="47.57332" lon="7.68512">
        <ele>502.4261475</ele>
        <time>2010-11-07T13:46:17Z</time>
      </trkpt>
      <trkpt lat="47.57331" lon="7.68523">
        <ele>502.4261475</ele>
        <time>2010-11-07T13:46:25Z</time>
      </trkpt>
      <trkpt lat="47.57325" lon="7.68534">
        <ele>501.4648438</ele>
        <time>2010-11-07T13:46:34Z</time>
      </trkpt>
      <trkpt lat="47.57318" lon="7.68544">
        <ele>500.50354</ele>
        <time>2010-11-07T13:46:49Z</time>
      </trkpt>
      <trkpt lat="47.57315" lon="7.68553">
        <ele>500.50354</ele>
        <time>2010-11-07T13:47:02Z</time>
      </trkpt>
      <trkpt lat="47.57312" lon="7.68563">
        <ele>499.5422363</ele>
        <time>2010-11-07T13:48:22Z</time>
      </trkpt>
      <trkpt lat="47.57311" lon="7.68574">
        <ele>496.1777344</ele>
        <time>2010-11-07T13:48:34Z</time>
      </trkpt>
      <trkpt lat="47.57306" lon="7.68586">
        <ele>494.7355957</ele>
        <time>2010-11-07T13:48:44Z</time>
      </trkpt>
      <trkpt lat="47.57286" lon="7.68681">
        <ele>486.5644531</ele>
        <time>2010-11-07T13:50:03Z</time>
      </trkpt>
      <trkpt lat="47.57243" lon="7.68867">
        <ele>495.6968994</ele>
        <time>2010-11-07T13:52:43Z</time>
      </trkpt>
      <trkpt lat="47.57242" lon="7.68877">
        <ele>496.1777344</ele>
        <time>2010-11-07T13:52:49Z</time>
      </trkpt>
      <trkpt lat="47.57238" lon="7.68894">
        <ele>495.6968994</ele>
        <time>2010-11-07T13:53:05Z</time>
      </trkpt>
      <trkpt lat="47.57246" lon="7.68878">
        <ele>496.1777344</ele>
        <time>2010-11-07T13:54:07Z</time>
      </trkpt>
      <trkpt lat="47.5725" lon="7.68875">
        <ele>496.6583252</ele>
        <time>2010-11-07T13:54:17Z</time>
      </trkpt>
      <trkpt lat="47.57253" lon="7.68871">
        <ele>496.1777344</ele>
        <time>2010-11-07T13:54:23Z</time>
      </trkpt>
      <trkpt lat="47.57258" lon="7.68865">
        <ele>495.2161865</ele>
        <time>2010-11-07T13:54:31Z</time>
      </trkpt>
      <trkpt lat="47.57262" lon="7.68851">
        <ele>494.7355957</ele>
        <time>2010-11-07T13:54:40Z</time>
      </trkpt>
      <trkpt lat="47.57264" lon="7.68845">
        <ele>494.7355957</ele>
        <time>2010-11-07T13:54:46Z</time>
      </trkpt>
      <trkpt lat="47.57269" lon="7.68838">
        <ele>494.7355957</ele>
        <time>2010-11-07T13:54:52Z</time>
      </trkpt>
      <trkpt lat="47.57276" lon="7.68831">
        <ele>494.7355957</ele>
        <time>2010-11-07T13:55:00Z</time>
      </trkpt>
      <trkpt lat="47.57282" lon="7.68825">
        <ele>494.7355957</ele>
        <time>2010-11-07T13:55:08Z</time>
      </trkpt>
      <trkpt lat="47.57289" lon="7.68817">
        <ele>494.2550049</ele>
        <time>2010-11-07T13:55:16Z</time>
      </trkpt>
      <trkpt lat="47.57301" lon="7.68807">
        <ele>493.774292</ele>
        <time>2010-11-07T13:55:26Z</time>
      </trkpt>
      <trkpt lat="47.57308" lon="7.68799">
        <ele>494.7355957</ele>
        <time>2010-11-07T13:55:33Z</time>
      </trkpt>
      <trkpt lat="47.57317" lon="7.68795">
        <ele>493.774292</ele>
        <time>2010-11-07T13:55:41Z</time>
      </trkpt>
      <trkpt lat="47.57319" lon="7.68795">
        <ele>494.2550049</ele>
        <time>2010-11-07T13:55:43Z</time>
      </trkpt>
      <trkpt lat="47.57327" lon="7.68789">
        <ele>493.774292</ele>
        <time>2010-11-07T13:55:51Z</time>
      </trkpt>
      <trkpt lat="47.57337" lon="7.68787">
        <ele>492.8129883</ele>
        <time>2010-11-07T13:55:59Z</time>
      </trkpt>
      <trkpt lat="47.57347" lon="7.68787">
        <ele>491.3709717</ele>
        <time>2010-11-07T13:56:09Z</time>
      </trkpt>
      <trkpt lat="47.57359" lon="7.68786">
        <ele>491.3709717</ele>
        <time>2010-11-07T13:56:20Z</time>
      </trkpt>
      <trkpt lat="47.57368" lon="7.68787">
        <ele>490.40979</ele>
        <time>2010-11-07T13:56:29Z</time>
      </trkpt>
      <trkpt lat="47.57377" lon="7.68785">
        <ele>489.4483643</ele>
        <time>2010-11-07T13:56:39Z</time>
      </trkpt>
      <trkpt lat="47.57387" lon="7.68788">
        <ele>489.4483643</ele>
        <time>2010-11-07T13:56:54Z</time>
      </trkpt>
      <trkpt lat="47.57402" lon="7.68789">
        <ele>487.0450439</ele>
        <time>2010-11-07T13:57:06Z</time>
      </trkpt>
      <trkpt lat="47.57418" lon="7.68787">
        <ele>485.6030273</ele>
        <time>2010-11-07T13:57:18Z</time>
      </trkpt>
      <trkpt lat="47.57432" lon="7.68786">
        <ele>486.0837402</ele>
        <time>2010-11-07T13:57:29Z</time>
      </trkpt>
      <trkpt lat="47.57443" lon="7.68785">
        <ele>486.5644531</ele>
        <time>2010-11-07T13:57:39Z</time>
      </trkpt>
      <trkpt lat="47.57454" lon="7.68784">
        <ele>487.5256348</ele>
        <time>2010-11-07T13:57:49Z</time>
      </trkpt>
      <trkpt lat="47.57472" lon="7.68782">
        <ele>488.0064697</ele>
        <time>2010-11-07T13:58:02Z</time>
      </trkpt>
      <trkpt lat="47.57486" lon="7.68781">
        <ele>487.0450439</ele>
        <time>2010-11-07T13:58:14Z</time>
      </trkpt>
      <trkpt lat="47.57503" lon="7.6878">
        <ele>486.5644531</ele>
        <time>2010-11-07T13:58:28Z</time>
      </trkpt>
      <trkpt lat="47.57518" lon="7.68771">
        <ele>484.6418457</ele>
        <time>2010-11-07T13:58:42Z</time>
      </trkpt>
      <trkpt lat="47.57522" lon="7.68754">
        <ele>483.6804199</ele>
        <time>2010-11-07T13:58:53Z</time>
      </trkpt>
      <trkpt lat="47.57524" lon="7.68732">
        <ele>482.7192383</ele>
        <time>2010-11-07T13:59:06Z</time>
      </trkpt>
      <trkpt lat="47.57527" lon="7.68711">
        <ele>481.7578125</ele>
        <time>2010-11-07T13:59:18Z</time>
      </trkpt>
      <trkpt lat="47.57533" lon="7.6869">
        <ele>481.2772217</ele>
        <time>2010-11-07T13:59:30Z</time>
      </trkpt>
      <trkpt lat="47.57538" lon="7.68674">
        <ele>480.7966309</ele>
        <time>2010-11-07T13:59:40Z</time>
      </trkpt>
      <trkpt lat="47.57547" lon="7.68657">
        <ele>480.7966309</ele>
        <time>2010-11-07T13:59:53Z</time>
      </trkpt>
      <trkpt lat="47.57556" lon="7.68644">
        <ele>479.835083</ele>
        <time>2010-11-07T14:00:04Z</time>
      </trkpt>
      <trkpt lat="47.57565" lon="7.68626">
        <ele>478.3931885</ele>
        <time>2010-11-07T14:00:17Z</time>
      </trkpt>
      <trkpt lat="47.57575" lon="7.68609">
        <ele>477.9124756</ele>
        <time>2010-11-07T14:00:29Z</time>
      </trkpt>
      <trkpt lat="47.57584" lon="7.68591">
        <ele>476.9512939</ele>
        <time>2010-11-07T14:00:42Z</time>
      </trkpt>
      <trkpt lat="47.57593" lon="7.68573">
        <ele>475.5092773</ele>
        <time>2010-11-07T14:00:55Z</time>
      </trkpt>
      <trkpt lat="47.57603" lon="7.68555">
        <ele>474.5479736</ele>
        <time>2010-11-07T14:01:08Z</time>
      </trkpt>
      <trkpt lat="47.57611" lon="7.68539">
        <ele>474.0672607</ele>
        <time>2010-11-07T14:01:19Z</time>
      </trkpt>
      <trkpt lat="47.57624" lon="7.68519">
        <ele>471.1833496</ele>
        <time>2010-11-07T14:01:35Z</time>
      </trkpt>
      <trkpt lat="47.57635" lon="7.68513">
        <ele>469.741333</ele>
        <time>2010-11-07T14:01:46Z</time>
      </trkpt>
      <trkpt lat="47.57645" lon="7.6851">
        <ele>468.7800293</ele>
        <time>2010-11-07T14:01:57Z</time>
      </trkpt>
      <trkpt lat="47.57656" lon="7.68507">
        <ele>465.8961182</ele>
        <time>2010-11-07T14:02:30Z</time>
      </trkpt>
      <trkpt lat="47.57664" lon="7.68505">
        <ele>465.8961182</ele>
        <time>2010-11-07T14:03:31Z</time>
      </trkpt>
      <trkpt lat="47.57698" lon="7.68501">
        <ele>461.0894775</ele>
        <time>2010-11-07T14:04:05Z</time>
      </trkpt>
      <trkpt lat="47.57717" lon="7.68502">
        <ele>460.1281738</ele>
        <time>2010-11-07T14:04:24Z</time>
      </trkpt>
      <trkpt lat="47.57759" lon="7.68476">
        <ele>454.8408203</ele>
        <time>2010-11-07T14:05:07Z</time>
      </trkpt>
      <trkpt lat="47.57775" lon="7.68462">
        <ele>453.3989258</ele>
        <time>2010-11-07T14:05:25Z</time>
      </trkpt>
      <trkpt lat="47.57818" lon="7.68367">
        <ele>441.8631592</ele>
        <time>2010-11-07T14:06:47Z</time>
      </trkpt>
      <trkpt lat="47.57931" lon="7.68331">
        <ele>433.2113037</ele>
        <time>2010-11-07T14:08:29Z</time>
      </trkpt>
      <trkpt lat="47.5798" lon="7.68323">
        <ele>427.9239502</ele>
        <time>2010-11-07T14:09:11Z</time>
      </trkpt>
      <trkpt lat="47.58049" lon="7.68347">
        <ele>422.1560059</ele>
        <time>2010-11-07T14:10:12Z</time>
      </trkpt>
      <trkpt lat="47.58079" lon="7.68374">
        <ele>419.2722168</ele>
        <time>2010-11-07T14:10:40Z</time>
      </trkpt>
      <trkpt lat="47.58132" lon="7.68423">
        <ele>414.4654541</ele>
        <time>2010-11-07T14:11:35Z</time>
      </trkpt>
      <trkpt lat="47.58134" lon="7.68426">
        <ele>414.4654541</ele>
        <time>2010-11-07T14:11:37Z</time>
      </trkpt>
      <trkpt lat="47.58153" lon="7.68444">
        <ele>410.6202393</ele>
        <time>2010-11-07T14:11:59Z</time>
      </trkpt>
      <trkpt lat="47.58163" lon="7.6846">
        <ele>409.1783447</ele>
        <time>2010-11-07T14:12:14Z</time>
      </trkpt>
      <trkpt lat="47.58238" lon="7.68538">
        <ele>395.7198486</ele>
        <time>2010-11-07T14:13:54Z</time>
      </trkpt>
      <trkpt lat="47.58294" lon="7.68544">
        <ele>388.5100098</ele>
        <time>2010-11-07T14:14:48Z</time>
      </trkpt>
      <trkpt lat="47.58307" lon="7.68547">
        <ele>386.5874023</ele>
        <time>2010-11-07T14:14:59Z</time>
      </trkpt>
      <trkpt lat="47.58321" lon="7.68551">
        <ele>386.1066895</ele>
        <time>2010-11-07T14:15:11Z</time>
      </trkpt>
      <trkpt lat="47.58333" lon="7.68554">
        <ele>384.6647949</ele>
        <time>2010-11-07T14:15:21Z</time>
      </trkpt>
      <trkpt lat="47.58348" lon="7.68558">
        <ele>383.7032471</ele>
        <time>2010-11-07T14:15:34Z</time>
      </trkpt>
      <trkpt lat="47.58362" lon="7.68557">
        <ele>383.2226563</ele>
        <time>2010-11-07T14:15:46Z</time>
      </trkpt>
      <trkpt lat="47.58368" lon="7.68555">
        <ele>383.2226563</ele>
        <time>2010-11-07T14:15:54Z</time>
      </trkpt>
      <trkpt lat="47.58379" lon="7.68562">
        <ele>382.7420654</ele>
        <time>2010-11-07T14:16:04Z</time>
      </trkpt>
      <trkpt lat="47.58388" lon="7.68569">
        <ele>383.2226563</ele>
        <time>2010-11-07T14:16:13Z</time>
      </trkpt>
      <trkpt lat="47.58401" lon="7.6858">
        <ele>381.7806396</ele>
        <time>2010-11-07T14:16:27Z</time>
      </trkpt>
      <trkpt lat="47.58411" lon="7.68588">
        <ele>382.2613525</ele>
        <time>2010-11-07T14:16:38Z</time>
      </trkpt>
      <trkpt lat="47.58424" lon="7.68595">
        <ele>382.7420654</ele>
        <time>2010-11-07T14:16:50Z</time>
      </trkpt>
      <trkpt lat="47.58434" lon="7.68601">
        <ele>382.7420654</ele>
        <time>2010-11-07T14:17:01Z</time>
      </trkpt>
      <trkpt lat="47.5845" lon="7.68606">
        <ele>382.7420654</ele>
        <time>2010-11-07T14:17:15Z</time>
      </trkpt>
      <trkpt lat="47.58461" lon="7.68615">
        <ele>383.2226563</ele>
        <time>2010-11-07T14:17:26Z</time>
      </trkpt>
      <trkpt lat="47.58472" lon="7.68617">
        <ele>383.2226563</ele>
        <time>2010-11-07T14:17:36Z</time>
      </trkpt>
      <trkpt lat="47.58482" lon="7.68621">
        <ele>383.2226563</ele>
        <time>2010-11-07T14:17:44Z</time>
      </trkpt>
      <trkpt lat="47.58494" lon="7.68626">
        <ele>383.7032471</ele>
        <time>2010-11-07T14:17:54Z</time>
      </trkpt>
      <trkpt lat="47.58506" lon="7.68631">
        <ele>383.7032471</ele>
        <time>2010-11-07T14:18:04Z</time>
      </trkpt>
      <trkpt lat="47.58519" lon="7.68635">
        <ele>384.184082</ele>
        <time>2010-11-07T14:18:15Z</time>
      </trkpt>
      <trkpt lat="47.58534" lon="7.68641">
        <ele>384.184082</ele>
        <time>2010-11-07T14:18:28Z</time>
      </trkpt>
      <trkpt lat="47.58548" lon="7.68646">
        <ele>384.184082</ele>
        <time>2010-11-07T14:18:40Z</time>
      </trkpt>
      <trkpt lat="47.58561" lon="7.68651">
        <ele>384.184082</ele>
        <time>2010-11-07T14:18:51Z</time>
      </trkpt>
      <trkpt lat="47.58577" lon="7.68659">
        <ele>384.184082</ele>
        <time>2010-11-07T14:19:05Z</time>
      </trkpt>
      <trkpt lat="47.58589" lon="7.68668">
        <ele>385.1453857</ele>
        <time>2010-11-07T14:19:17Z</time>
      </trkpt>
      <trkpt lat="47.58603" lon="7.68685">
        <ele>386.1066895</ele>
        <time>2010-11-07T14:19:32Z</time>
      </trkpt>
      <trkpt lat="47.58612" lon="7.687">
        <ele>386.5874023</ele>
        <time>2010-11-07T14:19:44Z</time>
      </trkpt>
      <trkpt lat="47.58618" lon="7.68716">
        <ele>386.5874023</ele>
        <time>2010-11-07T14:19:55Z</time>
      </trkpt>
      <trkpt lat="47.58625" lon="7.68732">
        <ele>386.5874023</ele>
        <time>2010-11-07T14:20:07Z</time>
      </trkpt>
      <trkpt lat="47.58631" lon="7.68754">
        <ele>387.0679932</ele>
        <time>2010-11-07T14:20:21Z</time>
      </trkpt>
      <trkpt lat="47.58637" lon="7.68773">
        <ele>386.5874023</ele>
        <time>2010-11-07T14:20:33Z</time>
      </trkpt>
      <trkpt lat="47.58639" lon="7.6878">
        <ele>387.548584</ele>
        <time>2010-11-07T14:20:37Z</time>
      </trkpt>
      <trkpt lat="47.58645" lon="7.68801">
        <ele>386.5874023</ele>
        <time>2010-11-07T14:20:50Z</time>
      </trkpt>
      <trkpt lat="47.5865" lon="7.68823">
        <ele>386.5874023</ele>
        <time>2010-11-07T14:21:03Z</time>
      </trkpt>
      <trkpt lat="47.58653" lon="7.68844">
        <ele>385.6259766</ele>
        <time>2010-11-07T14:21:16Z</time>
      </trkpt>
      <trkpt lat="47.58655" lon="7.68863">
        <ele>386.5874023</ele>
        <time>2010-11-07T14:21:27Z</time>
      </trkpt>
      <trkpt lat="47.58656" lon="7.68888">
        <ele>386.5874023</ele>
        <time>2010-11-07T14:21:41Z</time>
      </trkpt>
      <trkpt lat="47.58656" lon="7.68906">
        <ele>386.1066895</ele>
        <time>2010-11-07T14:21:52Z</time>
      </trkpt>
      <trkpt lat="47.58656" lon="7.68929">
        <ele>386.5874023</ele>
        <time>2010-11-07T14:22:05Z</time>
      </trkpt>
      <trkpt lat="47.58656" lon="7.68947">
        <ele>386.5874023</ele>
        <time>2010-11-07T14:22:16Z</time>
      </trkpt>
      <trkpt lat="47.58656" lon="7.68955">
        <ele>385.6259766</ele>
        <time>2010-11-07T14:22:21Z</time>
      </trkpt>
      <trkpt lat="47.58657" lon="7.68978">
        <ele>386.1066895</ele>
        <time>2010-11-07T14:22:34Z</time>
      </trkpt>
      <trkpt lat="47.58657" lon="7.68997">
        <ele>385.1453857</ele>
        <time>2010-11-07T14:22:45Z</time>
      </trkpt>
      <trkpt lat="47.58658" lon="7.69018">
        <ele>385.1453857</ele>
        <time>2010-11-07T14:22:58Z</time>
      </trkpt>
      <trkpt lat="47.58658" lon="7.6904">
        <ele>384.184082</ele>
        <time>2010-11-07T14:23:11Z</time>
      </trkpt>
      <trkpt lat="47.58659" lon="7.69062">
        <ele>383.2226563</ele>
        <time>2010-11-07T14:23:24Z</time>
      </trkpt>
      <trkpt lat="47.58661" lon="7.69081">
        <ele>383.2226563</ele>
        <time>2010-11-07T14:23:36Z</time>
      </trkpt>
      <trkpt lat="47.58664" lon="7.691">
        <ele>382.2613525</ele>
        <time>2010-11-07T14:23:47Z</time>
      </trkpt>
      <trkpt lat="47.58665" lon="7.69114">
        <ele>381.7806396</ele>
        <time>2010-11-07T14:23:55Z</time>
      </trkpt>
      <trkpt lat="47.58669" lon="7.69135">
        <ele>381.7806396</ele>
        <time>2010-11-07T14:24:07Z</time>
      </trkpt>
      <trkpt lat="47.58672" lon="7.69153">
        <ele>381.7806396</ele>
        <time>2010-11-07T14:24:18Z</time>
      </trkpt>
      <trkpt lat="47.58676" lon="7.69173">
        <ele>381.3000488</ele>
        <time>2010-11-07T14:24:30Z</time>
      </trkpt>
      <trkpt lat="47.58679" lon="7.69193">
        <ele>381.3000488</ele>
        <time>2010-11-07T14:24:42Z</time>
      </trkpt>
      <trkpt lat="47.58682" lon="7.69213">
        <ele>380.819458</ele>
        <time>2010-11-07T14:24:53Z</time>
      </trkpt>
      <trkpt lat="47.58684" lon="7.69234">
        <ele>380.3387451</ele>
        <time>2010-11-07T14:25:05Z</time>
      </trkpt>
      <trkpt lat="47.58686" lon="7.69257">
        <ele>380.3387451</ele>
        <time>2010-11-07T14:25:19Z</time>
      </trkpt>
      <trkpt lat="47.58687" lon="7.69276">
        <ele>380.819458</ele>
        <time>2010-11-07T14:25:30Z</time>
      </trkpt>
      <trkpt lat="47.5871" lon="7.6939">
        <ele>378.8968506</ele>
        <time>2010-11-07T14:27:06Z</time>
      </trkpt>
      <trkpt lat="47.58711" lon="7.69391">
        <ele>377.9354248</ele>
        <time>2010-11-07T14:27:14Z</time>
      </trkpt>
      <trkpt lat="47.58712" lon="7.69394">
        <ele>378.4161377</ele>
        <time>2010-11-07T14:27:24Z</time>
      </trkpt>
      <trkpt lat="47.58714" lon="7.69397">
        <ele>378.4161377</ele>
        <time>2010-11-07T14:27:34Z</time>
      </trkpt>
      <trkpt lat="47.58714" lon="7.69402">
        <ele>378.8968506</ele>
        <time>2010-11-07T14:27:45Z</time>
      </trkpt>
      <trkpt lat="47.58714" lon="7.69411">
        <ele>377.454834</ele>
        <time>2010-11-07T14:27:54Z</time>
      </trkpt>
      <trkpt lat="47.58694" lon="7.69503">
        <ele>381.7806396</ele>
        <time>2010-11-07T14:29:05Z</time>
      </trkpt>
      <trkpt lat="47.58692" lon="7.69517">
        <ele>381.3000488</ele>
        <time>2010-11-07T14:29:15Z</time>
      </trkpt>
      <trkpt lat="47.58689" lon="7.69533">
        <ele>382.2613525</ele>
        <time>2010-11-07T14:29:26Z</time>
      </trkpt>
      <trkpt lat="47.58688" lon="7.6955">
        <ele>381.7806396</ele>
        <time>2010-11-07T14:29:37Z</time>
      </trkpt>
      <trkpt lat="47.58688" lon="7.69568">
        <ele>382.2613525</ele>
        <time>2010-11-07T14:29:47Z</time>
      </trkpt>
      <trkpt lat="47.58688" lon="7.69587">
        <ele>382.7420654</ele>
        <time>2010-11-07T14:29:58Z</time>
      </trkpt>
      <trkpt lat="47.58688" lon="7.69598">
        <ele>382.7420654</ele>
        <time>2010-11-07T14:30:05Z</time>
      </trkpt>
      <trkpt lat="47.58687" lon="7.69605">
        <ele>383.2226563</ele>
        <time>2010-11-07T14:30:09Z</time>
      </trkpt>
      <trkpt lat="47.58691" lon="7.69624">
        <ele>384.184082</ele>
        <time>2010-11-07T14:30:20Z</time>
      </trkpt>
      <trkpt lat="47.58696" lon="7.69639">
        <ele>385.1453857</ele>
        <time>2010-11-07T14:30:30Z</time>
      </trkpt>
      <trkpt lat="47.58692" lon="7.69676">
        <ele>384.6647949</ele>
        <time>2010-11-07T14:31:36Z</time>
      </trkpt>
      <trkpt lat="47.58696" lon="7.69665">
        <ele>383.7032471</ele>
        <time>2010-11-07T14:36:02Z</time>
      </trkpt>
      <trkpt lat="47.58701" lon="7.69651">
        <ele>383.2226563</ele>
        <time>2010-11-07T14:36:13Z</time>
      </trkpt>
      <trkpt lat="47.58706" lon="7.69639">
        <ele>383.7032471</ele>
        <time>2010-11-07T14:36:24Z</time>
      </trkpt>
      <trkpt lat="47.58707" lon="7.69638">
        <ele>383.7032471</ele>
        <time>2010-11-07T14:36:26Z</time>
      </trkpt>
      <trkpt lat="47.58715" lon="7.69635">
        <ele>383.2226563</ele>
        <time>2010-11-07T14:36:35Z</time>
      </trkpt>
      <trkpt lat="47.58724" lon="7.69639">
        <ele>384.184082</ele>
        <time>2010-11-07T14:36:45Z</time>
      </trkpt>
      <trkpt lat="47.58728" lon="7.69642">
        <ele>384.184082</ele>
        <time>2010-11-07T14:36:52Z</time>
      </trkpt>
      <trkpt lat="47.58741" lon="7.69646">
        <ele>385.6259766</ele>
        <time>2010-11-07T14:37:03Z</time>
      </trkpt>
      <trkpt lat="47.58751" lon="7.69651">
        <ele>386.1066895</ele>
        <time>2010-11-07T14:37:15Z</time>
      </trkpt>
      <trkpt lat="47.58758" lon="7.69657">
        <ele>386.5874023</ele>
        <time>2010-11-07T14:37:22Z</time>
      </trkpt>
      <trkpt lat="47.58761" lon="7.6966">
        <ele>386.5874023</ele>
        <time>2010-11-07T14:37:25Z</time>
      </trkpt>
      <trkpt lat="47.58768" lon="7.6967">
        <ele>386.5874023</ele>
        <time>2010-11-07T14:37:33Z</time>
      </trkpt>
      <trkpt lat="47.58768" lon="7.69672">
        <ele>386.1066895</ele>
        <time>2010-11-07T14:37:34Z</time>
      </trkpt>
      <trkpt lat="47.58774" lon="7.69688">
        <ele>386.5874023</ele>
        <time>2010-11-07T14:37:44Z</time>
      </trkpt>
      <trkpt lat="47.58774" lon="7.69704">
        <ele>388.5100098</ele>
        <time>2010-11-07T14:37:54Z</time>
      </trkpt>
      <trkpt lat="47.58775" lon="7.69721">
        <ele>388.9906006</ele>
        <time>2010-11-07T14:38:04Z</time>
      </trkpt>
      <trkpt lat="47.58774" lon="7.69738">
        <ele>388.5100098</ele>
        <time>2010-11-07T14:38:14Z</time>
      </trkpt>
      <trkpt lat="47.58772" lon="7.69757">
        <ele>388.5100098</ele>
        <time>2010-11-07T14:38:25Z</time>
      </trkpt>
      <trkpt lat="47.58773" lon="7.69767">
        <ele>388.9906006</ele>
        <time>2010-11-07T14:38:32Z</time>
      </trkpt>
      <trkpt lat="47.5877" lon="7.69779">
        <ele>389.9519043</ele>
        <time>2010-11-07T14:38:39Z</time>
      </trkpt>
      <trkpt lat="47.58766" lon="7.69802">
        <ele>389.9519043</ele>
        <time>2010-11-07T14:38:53Z</time>
      </trkpt>
      <trkpt lat="47.58762" lon="7.69818">
        <ele>390.4326172</ele>
        <time>2010-11-07T14:39:03Z</time>
      </trkpt>
      <trkpt lat="47.58755" lon="7.69831">
        <ele>390.4326172</ele>
        <time>2010-11-07T14:39:14Z</time>
      </trkpt>
      <trkpt lat="47.58751" lon="7.69837">
        <ele>390.913208</ele>
        <time>2010-11-07T14:39:21Z</time>
      </trkpt>
      <trkpt lat="47.58744" lon="7.69838">
        <ele>388.9906006</ele>
        <time>2010-11-07T14:39:30Z</time>
      </trkpt>
      <trkpt lat="47.58744" lon="7.69838">
        <ele>389.4711914</ele>
        <time>2010-11-07T14:39:38Z</time>
      </trkpt>
      <trkpt lat="47.58744" lon="7.69838">
        <ele>389.4711914</ele>
        <time>2010-11-07T14:39:42Z</time>
      </trkpt>
      <trkpt lat="47.58736" lon="7.6986">
        <ele>390.913208</ele>
        <time>2010-11-07T14:39:53Z</time>
      </trkpt>
      <trkpt lat="47.5873" lon="7.69861">
        <ele>391.3937988</ele>
        <time>2010-11-07T14:40:01Z</time>
      </trkpt>
      <trkpt lat="47.58719" lon="7.69864">
        <ele>391.8745117</ele>
        <time>2010-11-07T14:40:12Z</time>
      </trkpt>
      <trkpt lat="47.58716" lon="7.69867">
        <ele>392.3553467</ele>
        <time>2010-11-07T14:40:16Z</time>
      </trkpt>
      <trkpt lat="47.58715" lon="7.69882">
        <ele>393.3165283</ele>
        <time>2010-11-07T14:40:25Z</time>
      </trkpt>
      <trkpt lat="47.58716" lon="7.69887">
        <ele>393.3165283</ele>
        <time>2010-11-07T14:40:29Z</time>
      </trkpt>
      <trkpt lat="47.58722" lon="7.69899">
        <ele>393.3165283</ele>
        <time>2010-11-07T14:40:38Z</time>
      </trkpt>
      <trkpt lat="47.58729" lon="7.6991">
        <ele>394.7585449</ele>
        <time>2010-11-07T14:40:49Z</time>
      </trkpt>
      <trkpt lat="47.58737" lon="7.69918">
        <ele>394.7585449</ele>
        <time>2010-11-07T14:40:58Z</time>
      </trkpt>
      <trkpt lat="47.58749" lon="7.69926">
        <ele>396.6811523</ele>
        <time>2010-11-07T14:41:08Z</time>
      </trkpt>
      <trkpt lat="47.58758" lon="7.69935">
        <ele>397.1617432</ele>
        <time>2010-11-07T14:41:18Z</time>
      </trkpt>
      <trkpt lat="47.5876" lon="7.69938">
        <ele>397.6424561</ele>
        <time>2010-11-07T14:41:20Z</time>
      </trkpt>
      <trkpt lat="47.58761" lon="7.69941">
        <ele>397.1617432</ele>
        <time>2010-11-07T14:41:22Z</time>
      </trkpt>
      <trkpt lat="47.58769" lon="7.69949">
        <ele>398.1231689</ele>
        <time>2010-11-07T14:41:31Z</time>
      </trkpt>
      <trkpt lat="47.58778" lon="7.69959">
        <ele>397.1617432</ele>
        <time>2010-11-07T14:41:41Z</time>
      </trkpt>
      <trkpt lat="47.58784" lon="7.69974">
        <ele>399.0843506</ele>
        <time>2010-11-07T14:41:51Z</time>
      </trkpt>
      <trkpt lat="47.58788" lon="7.69991">
        <ele>399.0843506</ele>
        <time>2010-11-07T14:42:02Z</time>
      </trkpt>
      <trkpt lat="47.5879" lon="7.70008">
        <ele>400.0458984</ele>
        <time>2010-11-07T14:42:13Z</time>
      </trkpt>
      <trkpt lat="47.58798" lon="7.70021">
        <ele>401.487793</ele>
        <time>2010-11-07T14:42:24Z</time>
      </trkpt>
      <trkpt lat="47.58801" lon="7.70024">
        <ele>401.0070801</ele>
        <time>2010-11-07T14:42:27Z</time>
      </trkpt>
      <trkpt lat="47.58805" lon="7.70037">
        <ele>402.9296875</ele>
        <time>2010-11-07T14:42:37Z</time>
      </trkpt>
      <trkpt lat="47.58812" lon="7.70049">
        <ele>404.8522949</ele>
        <time>2010-11-07T14:42:48Z</time>
      </trkpt>
      <trkpt lat="47.5882" lon="7.70061">
        <ele>405.3330078</ele>
        <time>2010-11-07T14:42:58Z</time>
      </trkpt>
      <trkpt lat="47.58827" lon="7.70072">
        <ele>407.2556152</ele>
        <time>2010-11-07T14:43:08Z</time>
      </trkpt>
      <trkpt lat="47.5883" lon="7.7008">
        <ele>407.2556152</ele>
        <time>2010-11-07T14:43:14Z</time>
      </trkpt>
      <trkpt lat="47.58835" lon="7.70091">
        <ele>408.217041</ele>
        <time>2010-11-07T14:43:22Z</time>
      </trkpt>
      <trkpt lat="47.58838" lon="7.70102">
        <ele>409.6590576</ele>
        <time>2010-11-07T14:43:31Z</time>
      </trkpt>
      <trkpt lat="47.58839" lon="7.70114">
        <ele>410.1396484</ele>
        <time>2010-11-07T14:43:40Z</time>
      </trkpt>
      <trkpt lat="47.5884" lon="7.70125">
        <ele>412.0622559</ele>
        <time>2010-11-07T14:43:49Z</time>
      </trkpt>
      <trkpt lat="47.58841" lon="7.70131">
        <ele>413.0235596</ele>
        <time>2010-11-07T14:43:56Z</time>
      </trkpt>
      <trkpt lat="47.58837" lon="7.70142">
        <ele>415.4268799</ele>
        <time>2010-11-07T14:44:05Z</time>
      </trkpt>
      <trkpt lat="47.58834" lon="7.70148">
        <ele>416.8688965</ele>
        <time>2010-11-07T14:44:09Z</time>
      </trkpt>
      <trkpt lat="47.58832" lon="7.70152">
        <ele>413.9848633</ele>
        <time>2010-11-07T14:44:12Z</time>
      </trkpt>
      <trkpt lat="47.58831" lon="7.70155">
        <ele>416.8688965</ele>
        <time>2010-11-07T14:44:14Z</time>
      </trkpt>
      <trkpt lat="47.58827" lon="7.70166">
        <ele>419.2722168</ele>
        <time>2010-11-07T14:44:25Z</time>
      </trkpt>
      <trkpt lat="47.58825" lon="7.70171">
        <ele>418.7915039</ele>
        <time>2010-11-07T14:44:31Z</time>
      </trkpt>
      <trkpt lat="47.58822" lon="7.70179">
        <ele>420.7141113</ele>
        <time>2010-11-07T14:44:40Z</time>
      </trkpt>
      <trkpt lat="47.58821" lon="7.70185">
        <ele>421.675415</ele>
        <time>2010-11-07T14:44:46Z</time>
      </trkpt>
      <trkpt lat="47.58821" lon="7.70192">
        <ele>421.675415</ele>
        <time>2010-11-07T14:44:58Z</time>
      </trkpt>
      <trkpt lat="47.58821" lon="7.70198">
        <ele>422.6367188</ele>
        <time>2010-11-07T14:45:03Z</time>
      </trkpt>
      <trkpt lat="47.58821" lon="7.70204">
        <ele>424.0787354</ele>
        <time>2010-11-07T14:45:09Z</time>
      </trkpt>
      <trkpt lat="47.58821" lon="7.70205">
        <ele>424.5594482</ele>
        <time>2010-11-07T14:45:10Z</time>
      </trkpt>
      <trkpt lat="47.58821" lon="7.70211">
        <ele>424.5594482</ele>
        <time>2010-11-07T14:45:16Z</time>
      </trkpt>
      <trkpt lat="47.58821" lon="7.70222">
        <ele>426.4820557</ele>
        <time>2010-11-07T14:45:26Z</time>
      </trkpt>
      <trkpt lat="47.58821" lon="7.70235">
        <ele>427.4433594</ele>
        <time>2010-11-07T14:45:37Z</time>
      </trkpt>
      <trkpt lat="47.58821" lon="7.70247">
        <ele>428.885376</ele>
        <time>2010-11-07T14:45:47Z</time>
      </trkpt>
      <trkpt lat="47.5882" lon="7.70263">
        <ele>430.8079834</ele>
        <time>2010-11-07T14:45:59Z</time>
      </trkpt>
      <trkpt lat="47.5882" lon="7.70268">
        <ele>430.8079834</ele>
        <time>2010-11-07T14:46:04Z</time>
      </trkpt>
      <trkpt lat="47.58819" lon="7.70277">
        <ele>432.25</ele>
        <time>2010-11-07T14:46:11Z</time>
      </trkpt>
      <trkpt lat="47.58818" lon="7.70283">
        <ele>432.25</ele>
        <time>2010-11-07T14:46:16Z</time>
      </trkpt>
      <trkpt lat="47.58817" lon="7.70291">
        <ele>433.6918945</ele>
        <time>2010-11-07T14:46:23Z</time>
      </trkpt>
      <trkpt lat="47.58817" lon="7.70298">
        <ele>434.6533203</ele>
        <time>2010-11-07T14:46:29Z</time>
      </trkpt>
      <trkpt lat="47.58818" lon="7.70305">
        <ele>436.0952148</ele>
        <time>2010-11-07T14:46:36Z</time>
      </trkpt>
      <trkpt lat="47.58818" lon="7.70312">
        <ele>437.0565186</ele>
        <time>2010-11-07T14:46:42Z</time>
      </trkpt>
      <trkpt lat="47.58818" lon="7.70318">
        <ele>438.0178223</ele>
        <time>2010-11-07T14:46:47Z</time>
      </trkpt>
      <trkpt lat="47.58819" lon="7.70324">
        <ele>438.0178223</ele>
        <time>2010-11-07T14:46:52Z</time>
      </trkpt>
      <trkpt lat="47.58819" lon="7.70327">
        <ele>438.979126</ele>
        <time>2010-11-07T14:46:59Z</time>
      </trkpt>
      <trkpt lat="47.58819" lon="7.70336">
        <ele>440.4212646</ele>
        <time>2010-11-07T14:47:07Z</time>
      </trkpt>
      <trkpt lat="47.58822" lon="7.70348">
        <ele>441.3824463</ele>
        <time>2010-11-07T14:47:17Z</time>
      </trkpt>
      <trkpt lat="47.58827" lon="7.7036">
        <ele>443.3050537</ele>
        <time>2010-11-07T14:47:28Z</time>
      </trkpt>
      <trkpt lat="47.58829" lon="7.70371">
        <ele>444.2664795</ele>
        <time>2010-11-07T14:47:38Z</time>
      </trkpt>
      <trkpt lat="47.5883" lon="7.70381">
        <ele>445.708374</ele>
        <time>2010-11-07T14:47:46Z</time>
      </trkpt>
      <trkpt lat="47.58832" lon="7.70394">
        <ele>446.6696777</ele>
        <time>2010-11-07T14:47:57Z</time>
      </trkpt>
      <trkpt lat="47.58833" lon="7.70405">
        <ele>447.6309814</ele>
        <time>2010-11-07T14:48:06Z</time>
      </trkpt>
      <trkpt lat="47.58833" lon="7.70418">
        <ele>449.072998</ele>
        <time>2010-11-07T14:48:16Z</time>
      </trkpt>
      <trkpt lat="47.58834" lon="7.70428">
        <ele>451.4763184</ele>
        <time>2010-11-07T14:48:26Z</time>
      </trkpt>
      <trkpt lat="47.58834" lon="7.7043">
        <ele>450.9956055</ele>
        <time>2010-11-07T14:48:27Z</time>
      </trkpt>
      <trkpt lat="47.58834" lon="7.70432">
        <ele>450.9956055</ele>
        <time>2010-11-07T14:48:29Z</time>
      </trkpt>
      <trkpt lat="47.58833" lon="7.70444">
        <ele>452.4376221</ele>
        <time>2010-11-07T14:48:39Z</time>
      </trkpt>
      <trkpt lat="47.58838" lon="7.7045">
        <ele>453.8796387</ele>
        <time>2010-11-07T14:48:46Z</time>
      </trkpt>
      <trkpt lat="47.58842" lon="7.70458">
        <ele>455.3215332</ele>
        <time>2010-11-07T14:48:55Z</time>
      </trkpt>
      <trkpt lat="47.5884" lon="7.70463">
        <ele>455.3215332</ele>
        <time>2010-11-07T14:49:00Z</time>
      </trkpt>
      <trkpt lat="47.58836" lon="7.70477">
        <ele>457.2442627</ele>
        <time>2010-11-07T14:49:10Z</time>
      </trkpt>
      <trkpt lat="47.58832" lon="7.70492">
        <ele>458.6861572</ele>
        <time>2010-11-07T14:49:23Z</time>
      </trkpt>
      <trkpt lat="47.58833" lon="7.70504">
        <ele>460.6087646</ele>
        <time>2010-11-07T14:49:34Z</time>
      </trkpt>
      <trkpt lat="47.58832" lon="7.70516">
        <ele>461.5701904</ele>
        <time>2010-11-07T14:49:44Z</time>
      </trkpt>
      <trkpt lat="47.58829" lon="7.70529">
        <ele>463.012085</ele>
        <time>2010-11-07T14:49:56Z</time>
      </trkpt>
      <trkpt lat="47.58825" lon="7.70535">
        <ele>464.4541016</ele>
        <time>2010-11-07T14:50:04Z</time>
      </trkpt>
      <trkpt lat="47.58824" lon="7.70542">
        <ele>465.8961182</ele>
        <time>2010-11-07T14:50:11Z</time>
      </trkpt>
      <trkpt lat="47.58827" lon="7.70549">
        <ele>466.8574219</ele>
        <time>2010-11-07T14:50:19Z</time>
      </trkpt>
      <trkpt lat="47.58824" lon="7.70548">
        <ele>467.3381348</ele>
        <time>2010-11-07T14:50:26Z</time>
      </trkpt>
      <trkpt lat="47.58826" lon="7.7055">
        <ele>467.3381348</ele>
        <time>2010-11-07T14:50:32Z</time>
      </trkpt>
      <trkpt lat="47.58828" lon="7.7055">
        <ele>467.3381348</ele>
        <time>2010-11-07T14:50:34Z</time>
      </trkpt>
      <trkpt lat="47.5884" lon="7.70544">
        <ele>465.4155273</ele>
        <time>2010-11-07T14:50:47Z</time>
      </trkpt>
      <trkpt lat="47.5885" lon="7.70537">
        <ele>464.4541016</ele>
        <time>2010-11-07T14:50:58Z</time>
      </trkpt>
      <trkpt lat="47.58854" lon="7.70537">
        <ele>463.9733887</ele>
        <time>2010-11-07T14:51:06Z</time>
      </trkpt>
      <trkpt lat="47.58857" lon="7.70534">
        <ele>463.9733887</ele>
        <time>2010-11-07T14:51:10Z</time>
      </trkpt>
      <trkpt lat="47.58869" lon="7.70524">
        <ele>463.012085</ele>
        <time>2010-11-07T14:51:23Z</time>
      </trkpt>
      <trkpt lat="47.58879" lon="7.70517">
        <ele>461.5701904</ele>
        <time>2010-11-07T14:51:34Z</time>
      </trkpt>
      <trkpt lat="47.58887" lon="7.7051">
        <ele>461.0894775</ele>
        <time>2010-11-07T14:51:44Z</time>
      </trkpt>
      <trkpt lat="47.58895" lon="7.70498">
        <ele>460.6087646</ele>
        <time>2010-11-07T14:51:56Z</time>
      </trkpt>
      <trkpt lat="47.58905" lon="7.70489">
        <ele>460.1281738</ele>
        <time>2010-11-07T14:52:08Z</time>
      </trkpt>
      <trkpt lat="47.58915" lon="7.70482">
        <ele>458.6861572</ele>
        <time>2010-11-07T14:52:20Z</time>
      </trkpt>
      <trkpt lat="47.58926" lon="7.70473">
        <ele>456.7635498</ele>
        <time>2010-11-07T14:52:33Z</time>
      </trkpt>
      <trkpt lat="47.58937" lon="7.7047">
        <ele>455.8022461</ele>
        <time>2010-11-07T14:52:44Z</time>
      </trkpt>
      <trkpt lat="47.58953" lon="7.70467">
        <ele>454.8408203</ele>
        <time>2010-11-07T14:52:59Z</time>
      </trkpt>
      <trkpt lat="47.58966" lon="7.70466">
        <ele>453.3989258</ele>
        <time>2010-11-07T14:53:12Z</time>
      </trkpt>
      <trkpt lat="47.58982" lon="7.70464">
        <ele>451.4763184</ele>
        <time>2010-11-07T14:53:27Z</time>
      </trkpt>
      <trkpt lat="47.58994" lon="7.70461">
        <ele>451.4763184</ele>
        <time>2010-11-07T14:53:38Z</time>
      </trkpt>
      <trkpt lat="47.59009" lon="7.70459">
        <ele>450.5150146</ele>
        <time>2010-11-07T14:53:51Z</time>
      </trkpt>
      <trkpt lat="47.59022" lon="7.70456">
        <ele>450.5150146</ele>
        <time>2010-11-07T14:54:03Z</time>
      </trkpt>
      <trkpt lat="47.59036" lon="7.70455">
        <ele>450.5150146</ele>
        <time>2010-11-07T14:54:15Z</time>
      </trkpt>
      <trkpt lat="47.5905" lon="7.70453">
        <ele>450.5150146</ele>
        <time>2010-11-07T14:54:27Z</time>
      </trkpt>
      <trkpt lat="47.59064" lon="7.7045">
        <ele>450.5150146</ele>
        <time>2010-11-07T14:54:39Z</time>
      </trkpt>
      <trkpt lat="47.59076" lon="7.70451">
        <ele>449.5537109</ele>
        <time>2010-11-07T14:54:50Z</time>
      </trkpt>
      <trkpt lat="47.59091" lon="7.70451">
        <ele>450.0344238</ele>
        <time>2010-11-07T14:55:03Z</time>
      </trkpt>
      <trkpt lat="47.59102" lon="7.70452">
        <ele>450.0344238</ele>
        <time>2010-11-07T14:55:14Z</time>
      </trkpt>
      <trkpt lat="47.59109" lon="7.70452">
        <ele>449.5537109</ele>
        <time>2010-11-07T14:55:21Z</time>
      </trkpt>
      <trkpt lat="47.59122" lon="7.7045">
        <ele>448.5924072</ele>
        <time>2010-11-07T14:55:33Z</time>
      </trkpt>
      <trkpt lat="47.59137" lon="7.70446">
        <ele>448.5924072</ele>
        <time>2010-11-07T14:55:46Z</time>
      </trkpt>
      <trkpt lat="47.59148" lon="7.70444">
        <ele>447.6309814</ele>
        <time>2010-11-07T14:55:56Z</time>
      </trkpt>
      <trkpt lat="47.59161" lon="7.70443">
        <ele>446.6696777</ele>
        <time>2010-11-07T14:56:07Z</time>
      </trkpt>
      <trkpt lat="47.59175" lon="7.70441">
        <ele>445.708374</ele>
        <time>2010-11-07T14:56:19Z</time>
      </trkpt>
      <trkpt lat="47.59185" lon="7.70439">
        <ele>443.7857666</ele>
        <time>2010-11-07T14:56:30Z</time>
      </trkpt>
      <trkpt lat="47.59193" lon="7.70437">
        <ele>443.3050537</ele>
        <time>2010-11-07T14:56:38Z</time>
      </trkpt>
      <trkpt lat="47.59203" lon="7.70431">
        <ele>443.3050537</ele>
        <time>2010-11-07T14:56:46Z</time>
      </trkpt>
      <trkpt lat="47.5921" lon="7.70422">
        <ele>442.3438721</ele>
        <time>2010-11-07T14:56:55Z</time>
      </trkpt>
      <trkpt lat="47.59218" lon="7.7042">
        <ele>441.3824463</ele>
        <time>2010-11-07T14:57:04Z</time>
      </trkpt>
      <trkpt lat="47.59229" lon="7.70418">
        <ele>440.4212646</ele>
        <time>2010-11-07T14:57:12Z</time>
      </trkpt>
      <trkpt lat="47.59234" lon="7.70417">
        <ele>440.4212646</ele>
        <time>2010-11-07T14:57:19Z</time>
      </trkpt>
      <trkpt lat="47.59244" lon="7.7042">
        <ele>439.9404297</ele>
        <time>2010-11-07T14:57:30Z</time>
      </trkpt>
      <trkpt lat="47.5931" lon="7.70421">
        <ele>435.614502</ele>
        <time>2010-11-07T14:58:28Z</time>
      </trkpt>
      <trkpt lat="47.5932" lon="7.70421">
        <ele>435.1339111</ele>
        <time>2010-11-07T14:58:36Z</time>
      </trkpt>
      <trkpt lat="47.59334" lon="7.70426">
        <ele>434.6533203</ele>
        <time>2010-11-07T14:58:46Z</time>
      </trkpt>
      <trkpt lat="47.59346" lon="7.7043">
        <ele>434.1726074</ele>
        <time>2010-11-07T14:58:55Z</time>
      </trkpt>
      <trkpt lat="47.59352" lon="7.70434">
        <ele>434.1726074</ele>
        <time>2010-11-07T14:59:02Z</time>
      </trkpt>
      <trkpt lat="47.5936" lon="7.70436">
        <ele>434.1726074</ele>
        <time>2010-11-07T14:59:09Z</time>
      </trkpt>
      <trkpt lat="47.59367" lon="7.70438">
        <ele>431.2885742</ele>
        <time>2010-11-07T14:59:15Z</time>
      </trkpt>
      <trkpt lat="47.59374" lon="7.70442">
        <ele>433.2113037</ele>
        <time>2010-11-07T14:59:22Z</time>
      </trkpt>
      <trkpt lat="47.59386" lon="7.70445">
        <ele>434.1726074</ele>
        <time>2010-11-07T14:59:30Z</time>
      </trkpt>
      <trkpt lat="47.59395" lon="7.70447">
        <ele>430.8079834</ele>
        <time>2010-11-07T14:59:37Z</time>
      </trkpt>
      <trkpt lat="47.59417" lon="7.70458">
        <ele>433.6918945</ele>
        <time>2010-11-07T15:00:04Z</time>
      </trkpt>
      <trkpt lat="47.59424" lon="7.70468">
        <ele>434.1726074</ele>
        <time>2010-11-07T15:00:12Z</time>
      </trkpt>
      <trkpt lat="47.59433" lon="7.70475">
        <ele>435.1339111</ele>
        <time>2010-11-07T15:00:19Z</time>
      </trkpt>
      <trkpt lat="47.59446" lon="7.70478">
        <ele>435.1339111</ele>
        <time>2010-11-07T15:00:26Z</time>
      </trkpt>
      <trkpt lat="47.59461" lon="7.70481">
        <ele>435.1339111</ele>
        <time>2010-11-07T15:00:36Z</time>
      </trkpt>
      <trkpt lat="47.59468" lon="7.70484">
        <ele>433.6918945</ele>
        <time>2010-11-07T15:00:41Z</time>
      </trkpt>
      <trkpt lat="47.59472" lon="7.70488">
        <ele>434.1726074</ele>
        <time>2010-11-07T15:00:46Z</time>
      </trkpt>
      <trkpt lat="47.59489" lon="7.70493">
        <ele>435.1339111</ele>
        <time>2010-11-07T15:01:06Z</time>
      </trkpt>
      <trkpt lat="47.59509" lon="7.70499">
        <ele>429.3659668</ele>
        <time>2010-11-07T15:02:31Z</time>
      </trkpt>
      <trkpt lat="47.59509" lon="7.70499">
        <ele>433.6918945</ele>
        <time>2010-11-07T15:02:32Z</time>
      </trkpt>
    </trkseg>
  </trk>
</gpx>